<?xml version="1.0" encoding="UTF-8" standalone="no" ?>
<gpx xmlns="http://www.topografix.com/GPX/1/1" xmlns:xsi="http://www.w3.org/2001/XMLSchema-instance" xsi:schemaLocation="http://www.topografix.com/GPX/1/1 http://www.topografix.com/GPX/1/1/gpx.xsd" version="1.1" creator="VisuGPX - https://www.visugpx.com">
  <metadata>
    <name>Sortie St Maurice - les DH du Tour des Bozençons 28 km - 120512</name>
    <desc><![CDATA[La fameuse DH des Trois Pierres tient toutes ses promesses...! !]]></desc>
  </metadata>
  <trk>
    <name><![CDATA[TracÃ© actuel: 12 MAI 2012 08:06]]></name>
    <trkseg>
      <trkpt lat="45.582" lon="4.63001">
        <ele>469</ele>
        <time>2012-05-12T06:06:53Z</time>
      </trkpt>
      <trkpt lat="45.582" lon="4.63001">
        <ele>469</ele>
        <time>2012-05-12T06:06:59Z</time>
      </trkpt>
      <trkpt lat="45.58197" lon="4.63012">
        <ele>468</ele>
        <time>2012-05-12T06:07:05Z</time>
      </trkpt>
      <trkpt lat="45.58198" lon="4.63016">
        <ele>468</ele>
        <time>2012-05-12T06:07:06Z</time>
      </trkpt>
      <trkpt lat="45.58209" lon="4.63057">
        <ele>466</ele>
        <time>2012-05-12T06:07:13Z</time>
      </trkpt>
      <trkpt lat="45.5821" lon="4.63064">
        <ele>465</ele>
        <time>2012-05-12T06:07:14Z</time>
      </trkpt>
      <trkpt lat="45.58212" lon="4.6307">
        <ele>465</ele>
        <time>2012-05-12T06:07:15Z</time>
      </trkpt>
      <trkpt lat="45.58214" lon="4.63076">
        <ele>465</ele>
        <time>2012-05-12T06:07:16Z</time>
      </trkpt>
      <trkpt lat="45.58215" lon="4.63082">
        <ele>465</ele>
        <time>2012-05-12T06:07:17Z</time>
      </trkpt>
      <trkpt lat="45.58214" lon="4.63089">
        <ele>465</ele>
        <time>2012-05-12T06:07:18Z</time>
      </trkpt>
      <trkpt lat="45.58211" lon="4.63095">
        <ele>464</ele>
        <time>2012-05-12T06:07:19Z</time>
      </trkpt>
      <trkpt lat="45.58208" lon="4.63101">
        <ele>464</ele>
        <time>2012-05-12T06:07:20Z</time>
      </trkpt>
      <trkpt lat="45.58199" lon="4.63117">
        <ele>462</ele>
        <time>2012-05-12T06:07:23Z</time>
      </trkpt>
      <trkpt lat="45.58196" lon="4.63122">
        <ele>461</ele>
        <time>2012-05-12T06:07:24Z</time>
      </trkpt>
      <trkpt lat="45.58191" lon="4.63124">
        <ele>461</ele>
        <time>2012-05-12T06:07:25Z</time>
      </trkpt>
      <trkpt lat="45.58185" lon="4.63124">
        <ele>460</ele>
        <time>2012-05-12T06:07:26Z</time>
      </trkpt>
      <trkpt lat="45.5818" lon="4.63122">
        <ele>460</ele>
        <time>2012-05-12T06:07:27Z</time>
      </trkpt>
      <trkpt lat="45.58174" lon="4.63119">
        <ele>460</ele>
        <time>2012-05-12T06:07:28Z</time>
      </trkpt>
      <trkpt lat="45.58158" lon="4.63109">
        <ele>459</ele>
        <time>2012-05-12T06:07:31Z</time>
      </trkpt>
      <trkpt lat="45.58118" lon="4.63089">
        <ele>456</ele>
        <time>2012-05-12T06:07:38Z</time>
      </trkpt>
      <trkpt lat="45.58078" lon="4.63067">
        <ele>453</ele>
        <time>2012-05-12T06:07:45Z</time>
      </trkpt>
      <trkpt lat="45.5805" lon="4.63053">
        <ele>451</ele>
        <time>2012-05-12T06:07:50Z</time>
      </trkpt>
      <trkpt lat="45.58031" lon="4.63044">
        <ele>451</ele>
        <time>2012-05-12T06:07:53Z</time>
      </trkpt>
      <trkpt lat="45.58024" lon="4.63042">
        <ele>450</ele>
        <time>2012-05-12T06:07:54Z</time>
      </trkpt>
      <trkpt lat="45.57999" lon="4.63029">
        <ele>451</ele>
        <time>2012-05-12T06:07:59Z</time>
      </trkpt>
      <trkpt lat="45.57977" lon="4.63023">
        <ele>451</ele>
        <time>2012-05-12T06:08:05Z</time>
      </trkpt>
      <trkpt lat="45.57974" lon="4.63021">
        <ele>450</ele>
        <time>2012-05-12T06:08:06Z</time>
      </trkpt>
      <trkpt lat="45.5797" lon="4.63019">
        <ele>450</ele>
        <time>2012-05-12T06:08:07Z</time>
      </trkpt>
      <trkpt lat="45.57951" lon="4.63013">
        <ele>450</ele>
        <time>2012-05-12T06:08:12Z</time>
      </trkpt>
      <trkpt lat="45.57946" lon="4.63012">
        <ele>449</ele>
        <time>2012-05-12T06:08:13Z</time>
      </trkpt>
      <trkpt lat="45.57942" lon="4.63011">
        <ele>449</ele>
        <time>2012-05-12T06:08:14Z</time>
      </trkpt>
      <trkpt lat="45.57938" lon="4.6301">
        <ele>449</ele>
        <time>2012-05-12T06:08:15Z</time>
      </trkpt>
      <trkpt lat="45.57936" lon="4.63008">
        <ele>449</ele>
        <time>2012-05-12T06:08:16Z</time>
      </trkpt>
      <trkpt lat="45.57934" lon="4.63007">
        <ele>449</ele>
        <time>2012-05-12T06:08:17Z</time>
      </trkpt>
      <trkpt lat="45.57933" lon="4.63006">
        <ele>449</ele>
        <time>2012-05-12T06:08:18Z</time>
      </trkpt>
      <trkpt lat="45.57928" lon="4.63001">
        <ele>449</ele>
        <time>2012-05-12T06:08:23Z</time>
      </trkpt>
      <trkpt lat="45.57925" lon="4.62999">
        <ele>448</ele>
        <time>2012-05-12T06:08:30Z</time>
      </trkpt>
      <trkpt lat="45.57921" lon="4.62994">
        <ele>449</ele>
        <time>2012-05-12T06:08:34Z</time>
      </trkpt>
      <trkpt lat="45.57919" lon="4.62993">
        <ele>449</ele>
        <time>2012-05-12T06:08:35Z</time>
      </trkpt>
      <trkpt lat="45.57915" lon="4.62989">
        <ele>449</ele>
        <time>2012-05-12T06:08:37Z</time>
      </trkpt>
      <trkpt lat="45.57914" lon="4.62987">
        <ele>449</ele>
        <time>2012-05-12T06:08:38Z</time>
      </trkpt>
      <trkpt lat="45.57905" lon="4.62969">
        <ele>450</ele>
        <time>2012-05-12T06:08:44Z</time>
      </trkpt>
      <trkpt lat="45.57888" lon="4.62941">
        <ele>450</ele>
        <time>2012-05-12T06:08:53Z</time>
      </trkpt>
      <trkpt lat="45.57875" lon="4.62922">
        <ele>451</ele>
        <time>2012-05-12T06:09:00Z</time>
      </trkpt>
      <trkpt lat="45.57864" lon="4.62899">
        <ele>451</ele>
        <time>2012-05-12T06:09:07Z</time>
      </trkpt>
      <trkpt lat="45.57849" lon="4.62852">
        <ele>451</ele>
        <time>2012-05-12T06:09:17Z</time>
      </trkpt>
      <trkpt lat="45.57841" lon="4.62826">
        <ele>450</ele>
        <time>2012-05-12T06:09:22Z</time>
      </trkpt>
      <trkpt lat="45.57839" lon="4.62821">
        <ele>450</ele>
        <time>2012-05-12T06:09:23Z</time>
      </trkpt>
      <trkpt lat="45.57838" lon="4.62815">
        <ele>450</ele>
        <time>2012-05-12T06:09:24Z</time>
      </trkpt>
      <trkpt lat="45.57831" lon="4.62794">
        <ele>449</ele>
        <time>2012-05-12T06:09:29Z</time>
      </trkpt>
      <trkpt lat="45.5783" lon="4.62786">
        <ele>449</ele>
        <time>2012-05-12T06:09:33Z</time>
      </trkpt>
      <trkpt lat="45.57823" lon="4.62765">
        <ele>449</ele>
        <time>2012-05-12T06:09:39Z</time>
      </trkpt>
      <trkpt lat="45.57816" lon="4.62742">
        <ele>449</ele>
        <time>2012-05-12T06:09:45Z</time>
      </trkpt>
      <trkpt lat="45.57804" lon="4.62714">
        <ele>450</ele>
        <time>2012-05-12T06:09:52Z</time>
      </trkpt>
      <trkpt lat="45.57796" lon="4.62697">
        <ele>451</ele>
        <time>2012-05-12T06:09:57Z</time>
      </trkpt>
      <trkpt lat="45.5779" lon="4.6268">
        <ele>451</ele>
        <time>2012-05-12T06:10:03Z</time>
      </trkpt>
      <trkpt lat="45.5778" lon="4.6265">
        <ele>451</ele>
        <time>2012-05-12T06:10:11Z</time>
      </trkpt>
      <trkpt lat="45.57772" lon="4.62623">
        <ele>452</ele>
        <time>2012-05-12T06:10:19Z</time>
      </trkpt>
      <trkpt lat="45.57764" lon="4.6259">
        <ele>452</ele>
        <time>2012-05-12T06:10:27Z</time>
      </trkpt>
      <trkpt lat="45.5776" lon="4.62551">
        <ele>452</ele>
        <time>2012-05-12T06:10:35Z</time>
      </trkpt>
      <trkpt lat="45.57758" lon="4.62508">
        <ele>452</ele>
        <time>2012-05-12T06:10:43Z</time>
      </trkpt>
      <trkpt lat="45.57757" lon="4.62469">
        <ele>452</ele>
        <time>2012-05-12T06:10:51Z</time>
      </trkpt>
      <trkpt lat="45.57764" lon="4.62427">
        <ele>453</ele>
        <time>2012-05-12T06:10:59Z</time>
      </trkpt>
      <trkpt lat="45.57773" lon="4.62401">
        <ele>452</ele>
        <time>2012-05-12T06:11:05Z</time>
      </trkpt>
      <trkpt lat="45.57781" lon="4.62382">
        <ele>453</ele>
        <time>2012-05-12T06:11:09Z</time>
      </trkpt>
      <trkpt lat="45.57784" lon="4.62376">
        <ele>452</ele>
        <time>2012-05-12T06:11:10Z</time>
      </trkpt>
      <trkpt lat="45.57787" lon="4.62371">
        <ele>452</ele>
        <time>2012-05-12T06:11:11Z</time>
      </trkpt>
      <trkpt lat="45.5779" lon="4.62365">
        <ele>451</ele>
        <time>2012-05-12T06:11:12Z</time>
      </trkpt>
      <trkpt lat="45.57794" lon="4.6236">
        <ele>451</ele>
        <time>2012-05-12T06:11:13Z</time>
      </trkpt>
      <trkpt lat="45.57802" lon="4.62349">
        <ele>451</ele>
        <time>2012-05-12T06:11:15Z</time>
      </trkpt>
      <trkpt lat="45.57807" lon="4.62345">
        <ele>451</ele>
        <time>2012-05-12T06:11:16Z</time>
      </trkpt>
      <trkpt lat="45.57812" lon="4.62341">
        <ele>451</ele>
        <time>2012-05-12T06:11:17Z</time>
      </trkpt>
      <trkpt lat="45.57817" lon="4.62339">
        <ele>450</ele>
        <time>2012-05-12T06:11:18Z</time>
      </trkpt>
      <trkpt lat="45.57821" lon="4.62338">
        <ele>450</ele>
        <time>2012-05-12T06:11:19Z</time>
      </trkpt>
      <trkpt lat="45.57826" lon="4.62337">
        <ele>450</ele>
        <time>2012-05-12T06:11:20Z</time>
      </trkpt>
      <trkpt lat="45.57851" lon="4.62328">
        <ele>450</ele>
        <time>2012-05-12T06:11:27Z</time>
      </trkpt>
      <trkpt lat="45.5788" lon="4.62323">
        <ele>451</ele>
        <time>2012-05-12T06:11:35Z</time>
      </trkpt>
      <trkpt lat="45.57907" lon="4.62317">
        <ele>451</ele>
        <time>2012-05-12T06:11:44Z</time>
      </trkpt>
      <trkpt lat="45.57939" lon="4.62311">
        <ele>452</ele>
        <time>2012-05-12T06:11:54Z</time>
      </trkpt>
      <trkpt lat="45.57967" lon="4.62306">
        <ele>452</ele>
        <time>2012-05-12T06:12:03Z</time>
      </trkpt>
      <trkpt lat="45.57994" lon="4.62302">
        <ele>454</ele>
        <time>2012-05-12T06:12:12Z</time>
      </trkpt>
      <trkpt lat="45.58021" lon="4.62298">
        <ele>455</ele>
        <time>2012-05-12T06:12:21Z</time>
      </trkpt>
      <trkpt lat="45.58042" lon="4.62297">
        <ele>455</ele>
        <time>2012-05-12T06:12:28Z</time>
      </trkpt>
      <trkpt lat="45.58063" lon="4.62294">
        <ele>456</ele>
        <time>2012-05-12T06:12:35Z</time>
      </trkpt>
      <trkpt lat="45.58086" lon="4.62292">
        <ele>456</ele>
        <time>2012-05-12T06:12:43Z</time>
      </trkpt>
      <trkpt lat="45.58112" lon="4.62291">
        <ele>457</ele>
        <time>2012-05-12T06:12:52Z</time>
      </trkpt>
      <trkpt lat="45.5814" lon="4.62289">
        <ele>458</ele>
        <time>2012-05-12T06:13:02Z</time>
      </trkpt>
      <trkpt lat="45.58167" lon="4.62297">
        <ele>458</ele>
        <time>2012-05-12T06:13:12Z</time>
      </trkpt>
      <trkpt lat="45.58182" lon="4.62305">
        <ele>459</ele>
        <time>2012-05-12T06:13:18Z</time>
      </trkpt>
      <trkpt lat="45.58207" lon="4.6232">
        <ele>459</ele>
        <time>2012-05-12T06:13:28Z</time>
      </trkpt>
      <trkpt lat="45.58226" lon="4.6233">
        <ele>460</ele>
        <time>2012-05-12T06:13:36Z</time>
      </trkpt>
      <trkpt lat="45.58248" lon="4.62342">
        <ele>461</ele>
        <time>2012-05-12T06:13:45Z</time>
      </trkpt>
      <trkpt lat="45.58266" lon="4.62345">
        <ele>462</ele>
        <time>2012-05-12T06:13:52Z</time>
      </trkpt>
      <trkpt lat="45.58292" lon="4.62338">
        <ele>463</ele>
        <time>2012-05-12T06:14:02Z</time>
      </trkpt>
      <trkpt lat="45.5831" lon="4.62325">
        <ele>463</ele>
        <time>2012-05-12T06:14:10Z</time>
      </trkpt>
      <trkpt lat="45.58321" lon="4.62309">
        <ele>463</ele>
        <time>2012-05-12T06:14:16Z</time>
      </trkpt>
      <trkpt lat="45.58332" lon="4.62279">
        <ele>463</ele>
        <time>2012-05-12T06:14:24Z</time>
      </trkpt>
      <trkpt lat="45.58337" lon="4.62244">
        <ele>465</ele>
        <time>2012-05-12T06:14:32Z</time>
      </trkpt>
      <trkpt lat="45.58337" lon="4.62216">
        <ele>464</ele>
        <time>2012-05-12T06:14:38Z</time>
      </trkpt>
      <trkpt lat="45.58335" lon="4.62188">
        <ele>465</ele>
        <time>2012-05-12T06:14:44Z</time>
      </trkpt>
      <trkpt lat="45.58329" lon="4.62154">
        <ele>466</ele>
        <time>2012-05-12T06:14:52Z</time>
      </trkpt>
      <trkpt lat="45.5832" lon="4.6212">
        <ele>466</ele>
        <time>2012-05-12T06:15:00Z</time>
      </trkpt>
      <trkpt lat="45.58318" lon="4.62092">
        <ele>466</ele>
        <time>2012-05-12T06:15:06Z</time>
      </trkpt>
      <trkpt lat="45.58323" lon="4.62053">
        <ele>468</ele>
        <time>2012-05-12T06:15:14Z</time>
      </trkpt>
      <trkpt lat="45.58329" lon="4.62024">
        <ele>468</ele>
        <time>2012-05-12T06:15:20Z</time>
      </trkpt>
      <trkpt lat="45.58334" lon="4.61992">
        <ele>468</ele>
        <time>2012-05-12T06:15:27Z</time>
      </trkpt>
      <trkpt lat="45.5834" lon="4.61957">
        <ele>469</ele>
        <time>2012-05-12T06:15:35Z</time>
      </trkpt>
      <trkpt lat="45.58347" lon="4.61923">
        <ele>470</ele>
        <time>2012-05-12T06:15:42Z</time>
      </trkpt>
      <trkpt lat="45.58356" lon="4.61878">
        <ele>470</ele>
        <time>2012-05-12T06:15:52Z</time>
      </trkpt>
      <trkpt lat="45.58366" lon="4.61852">
        <ele>471</ele>
        <time>2012-05-12T06:15:58Z</time>
      </trkpt>
      <trkpt lat="45.58382" lon="4.6182">
        <ele>472</ele>
        <time>2012-05-12T06:16:06Z</time>
      </trkpt>
      <trkpt lat="45.58404" lon="4.61789">
        <ele>472</ele>
        <time>2012-05-12T06:16:16Z</time>
      </trkpt>
      <trkpt lat="45.58416" lon="4.6177">
        <ele>473</ele>
        <time>2012-05-12T06:16:22Z</time>
      </trkpt>
      <trkpt lat="45.58428" lon="4.61756">
        <ele>473</ele>
        <time>2012-05-12T06:16:28Z</time>
      </trkpt>
      <trkpt lat="45.58446" lon="4.6174">
        <ele>474</ele>
        <time>2012-05-12T06:16:35Z</time>
      </trkpt>
      <trkpt lat="45.58463" lon="4.61723">
        <ele>475</ele>
        <time>2012-05-12T06:16:42Z</time>
      </trkpt>
      <trkpt lat="45.58481" lon="4.61708">
        <ele>475</ele>
        <time>2012-05-12T06:16:49Z</time>
      </trkpt>
      <trkpt lat="45.58504" lon="4.61685">
        <ele>476</ele>
        <time>2012-05-12T06:16:58Z</time>
      </trkpt>
      <trkpt lat="45.58516" lon="4.61664">
        <ele>476</ele>
        <time>2012-05-12T06:17:04Z</time>
      </trkpt>
      <trkpt lat="45.58526" lon="4.61639">
        <ele>476</ele>
        <time>2012-05-12T06:17:10Z</time>
      </trkpt>
      <trkpt lat="45.5853" lon="4.61612">
        <ele>476</ele>
        <time>2012-05-12T06:17:16Z</time>
      </trkpt>
      <trkpt lat="45.58533" lon="4.61579">
        <ele>477</ele>
        <time>2012-05-12T06:17:23Z</time>
      </trkpt>
      <trkpt lat="45.58537" lon="4.61537">
        <ele>477</ele>
        <time>2012-05-12T06:17:32Z</time>
      </trkpt>
      <trkpt lat="45.58541" lon="4.61499">
        <ele>477</ele>
        <time>2012-05-12T06:17:40Z</time>
      </trkpt>
      <trkpt lat="45.58543" lon="4.61458">
        <ele>477</ele>
        <time>2012-05-12T06:17:48Z</time>
      </trkpt>
      <trkpt lat="45.58536" lon="4.61415">
        <ele>477</ele>
        <time>2012-05-12T06:17:56Z</time>
      </trkpt>
      <trkpt lat="45.58527" lon="4.61371">
        <ele>477</ele>
        <time>2012-05-12T06:18:04Z</time>
      </trkpt>
      <trkpt lat="45.58526" lon="4.61365">
        <ele>477</ele>
        <time>2012-05-12T06:18:05Z</time>
      </trkpt>
      <trkpt lat="45.58517" lon="4.61322">
        <ele>477</ele>
        <time>2012-05-12T06:18:13Z</time>
      </trkpt>
      <trkpt lat="45.58508" lon="4.61279">
        <ele>477</ele>
        <time>2012-05-12T06:18:21Z</time>
      </trkpt>
      <trkpt lat="45.58507" lon="4.61229">
        <ele>477</ele>
        <time>2012-05-12T06:18:29Z</time>
      </trkpt>
      <trkpt lat="45.58509" lon="4.61212">
        <ele>476</ele>
        <time>2012-05-12T06:18:32Z</time>
      </trkpt>
      <trkpt lat="45.58523" lon="4.61174">
        <ele>476</ele>
        <time>2012-05-12T06:18:39Z</time>
      </trkpt>
      <trkpt lat="45.58526" lon="4.61169">
        <ele>476</ele>
        <time>2012-05-12T06:18:40Z</time>
      </trkpt>
      <trkpt lat="45.58528" lon="4.61164">
        <ele>476</ele>
        <time>2012-05-12T06:18:41Z</time>
      </trkpt>
      <trkpt lat="45.58545" lon="4.61138">
        <ele>475</ele>
        <time>2012-05-12T06:18:47Z</time>
      </trkpt>
      <trkpt lat="45.58553" lon="4.61131">
        <ele>476</ele>
        <time>2012-05-12T06:18:49Z</time>
      </trkpt>
      <trkpt lat="45.58556" lon="4.61129">
        <ele>476</ele>
        <time>2012-05-12T06:18:50Z</time>
      </trkpt>
      <trkpt lat="45.5856" lon="4.61126">
        <ele>476</ele>
        <time>2012-05-12T06:18:51Z</time>
      </trkpt>
      <trkpt lat="45.5858" lon="4.61114">
        <ele>475</ele>
        <time>2012-05-12T06:18:57Z</time>
      </trkpt>
      <trkpt lat="45.58609" lon="4.61103">
        <ele>475</ele>
        <time>2012-05-12T06:19:05Z</time>
      </trkpt>
      <trkpt lat="45.58632" lon="4.61095">
        <ele>475</ele>
        <time>2012-05-12T06:19:11Z</time>
      </trkpt>
      <trkpt lat="45.58666" lon="4.61085">
        <ele>473</ele>
        <time>2012-05-12T06:19:19Z</time>
      </trkpt>
      <trkpt lat="45.587" lon="4.61072">
        <ele>472</ele>
        <time>2012-05-12T06:19:27Z</time>
      </trkpt>
      <trkpt lat="45.58741" lon="4.61059">
        <ele>471</ele>
        <time>2012-05-12T06:19:36Z</time>
      </trkpt>
      <trkpt lat="45.58746" lon="4.61057">
        <ele>471</ele>
        <time>2012-05-12T06:19:37Z</time>
      </trkpt>
      <trkpt lat="45.58774" lon="4.61047">
        <ele>471</ele>
        <time>2012-05-12T06:19:44Z</time>
      </trkpt>
      <trkpt lat="45.58795" lon="4.61049">
        <ele>471</ele>
        <time>2012-05-12T06:19:49Z</time>
      </trkpt>
      <trkpt lat="45.58812" lon="4.61058">
        <ele>471</ele>
        <time>2012-05-12T06:19:53Z</time>
      </trkpt>
      <trkpt lat="45.58816" lon="4.61061">
        <ele>470</ele>
        <time>2012-05-12T06:19:54Z</time>
      </trkpt>
      <trkpt lat="45.58823" lon="4.61068">
        <ele>471</ele>
        <time>2012-05-12T06:19:56Z</time>
      </trkpt>
      <trkpt lat="45.58826" lon="4.61072">
        <ele>470</ele>
        <time>2012-05-12T06:19:57Z</time>
      </trkpt>
      <trkpt lat="45.5883" lon="4.61076">
        <ele>470</ele>
        <time>2012-05-12T06:19:58Z</time>
      </trkpt>
      <trkpt lat="45.58833" lon="4.6108">
        <ele>470</ele>
        <time>2012-05-12T06:19:59Z</time>
      </trkpt>
      <trkpt lat="45.58836" lon="4.61085">
        <ele>470</ele>
        <time>2012-05-12T06:20:00Z</time>
      </trkpt>
      <trkpt lat="45.58839" lon="4.6109">
        <ele>470</ele>
        <time>2012-05-12T06:20:01Z</time>
      </trkpt>
      <trkpt lat="45.58852" lon="4.6112">
        <ele>469</ele>
        <time>2012-05-12T06:20:07Z</time>
      </trkpt>
      <trkpt lat="45.58863" lon="4.61147">
        <ele>469</ele>
        <time>2012-05-12T06:20:12Z</time>
      </trkpt>
      <trkpt lat="45.58869" lon="4.61157">
        <ele>469</ele>
        <time>2012-05-12T06:20:14Z</time>
      </trkpt>
      <trkpt lat="45.58888" lon="4.61175">
        <ele>468</ele>
        <time>2012-05-12T06:20:19Z</time>
      </trkpt>
      <trkpt lat="45.58896" lon="4.6118">
        <ele>468</ele>
        <time>2012-05-12T06:20:21Z</time>
      </trkpt>
      <trkpt lat="45.58909" lon="4.61184">
        <ele>468</ele>
        <time>2012-05-12T06:20:24Z</time>
      </trkpt>
      <trkpt lat="45.58931" lon="4.61185">
        <ele>469</ele>
        <time>2012-05-12T06:20:29Z</time>
      </trkpt>
      <trkpt lat="45.58935" lon="4.61184">
        <ele>468</ele>
        <time>2012-05-12T06:20:30Z</time>
      </trkpt>
      <trkpt lat="45.58944" lon="4.6118">
        <ele>468</ele>
        <time>2012-05-12T06:20:32Z</time>
      </trkpt>
      <trkpt lat="45.58948" lon="4.61177">
        <ele>469</ele>
        <time>2012-05-12T06:20:33Z</time>
      </trkpt>
      <trkpt lat="45.58952" lon="4.61174">
        <ele>468</ele>
        <time>2012-05-12T06:20:34Z</time>
      </trkpt>
      <trkpt lat="45.5897" lon="4.61156">
        <ele>468</ele>
        <time>2012-05-12T06:20:39Z</time>
      </trkpt>
      <trkpt lat="45.58974" lon="4.61152">
        <ele>468</ele>
        <time>2012-05-12T06:20:40Z</time>
      </trkpt>
      <trkpt lat="45.58977" lon="4.61148">
        <ele>468</ele>
        <time>2012-05-12T06:20:41Z</time>
      </trkpt>
      <trkpt lat="45.5898" lon="4.61145">
        <ele>468</ele>
        <time>2012-05-12T06:20:42Z</time>
      </trkpt>
      <trkpt lat="45.58984" lon="4.61142">
        <ele>468</ele>
        <time>2012-05-12T06:20:43Z</time>
      </trkpt>
      <trkpt lat="45.59004" lon="4.6112">
        <ele>468</ele>
        <time>2012-05-12T06:20:49Z</time>
      </trkpt>
      <trkpt lat="45.59027" lon="4.61096">
        <ele>468</ele>
        <time>2012-05-12T06:20:56Z</time>
      </trkpt>
      <trkpt lat="45.59041" lon="4.61082">
        <ele>468</ele>
        <time>2012-05-12T06:21:00Z</time>
      </trkpt>
      <trkpt lat="45.59045" lon="4.61079">
        <ele>468</ele>
        <time>2012-05-12T06:21:01Z</time>
      </trkpt>
      <trkpt lat="45.59052" lon="4.61071">
        <ele>468</ele>
        <time>2012-05-12T06:21:03Z</time>
      </trkpt>
      <trkpt lat="45.59066" lon="4.61056">
        <ele>468</ele>
        <time>2012-05-12T06:21:07Z</time>
      </trkpt>
      <trkpt lat="45.59069" lon="4.61052">
        <ele>468</ele>
        <time>2012-05-12T06:21:08Z</time>
      </trkpt>
      <trkpt lat="45.59099" lon="4.61019">
        <ele>468</ele>
        <time>2012-05-12T06:21:17Z</time>
      </trkpt>
      <trkpt lat="45.59119" lon="4.61003">
        <ele>469</ele>
        <time>2012-05-12T06:21:23Z</time>
      </trkpt>
      <trkpt lat="45.59146" lon="4.60992">
        <ele>470</ele>
        <time>2012-05-12T06:21:31Z</time>
      </trkpt>
      <trkpt lat="45.59176" lon="4.60991">
        <ele>471</ele>
        <time>2012-05-12T06:21:40Z</time>
      </trkpt>
      <trkpt lat="45.5921" lon="4.60986">
        <ele>471</ele>
        <time>2012-05-12T06:21:50Z</time>
      </trkpt>
      <trkpt lat="45.59231" lon="4.60971">
        <ele>471</ele>
        <time>2012-05-12T06:21:57Z</time>
      </trkpt>
      <trkpt lat="45.5925" lon="4.60949">
        <ele>472</ele>
        <time>2012-05-12T06:22:04Z</time>
      </trkpt>
      <trkpt lat="45.59256" lon="4.60945">
        <ele>472</ele>
        <time>2012-05-12T06:22:06Z</time>
      </trkpt>
      <trkpt lat="45.59259" lon="4.60945">
        <ele>472</ele>
        <time>2012-05-12T06:22:07Z</time>
      </trkpt>
      <trkpt lat="45.59261" lon="4.60947">
        <ele>472</ele>
        <time>2012-05-12T06:22:08Z</time>
      </trkpt>
      <trkpt lat="45.59263" lon="4.60951">
        <ele>473</ele>
        <time>2012-05-12T06:22:09Z</time>
      </trkpt>
      <trkpt lat="45.59262" lon="4.60955">
        <ele>473</ele>
        <time>2012-05-12T06:22:10Z</time>
      </trkpt>
      <trkpt lat="45.59262" lon="4.60959">
        <ele>473</ele>
        <time>2012-05-12T06:22:11Z</time>
      </trkpt>
      <trkpt lat="45.59261" lon="4.60962">
        <ele>473</ele>
        <time>2012-05-12T06:22:12Z</time>
      </trkpt>
      <trkpt lat="45.59253" lon="4.60987">
        <ele>474</ele>
        <time>2012-05-12T06:22:20Z</time>
      </trkpt>
      <trkpt lat="45.59244" lon="4.61018">
        <ele>475</ele>
        <time>2012-05-12T06:22:29Z</time>
      </trkpt>
      <trkpt lat="45.59242" lon="4.61035">
        <ele>476</ele>
        <time>2012-05-12T06:22:34Z</time>
      </trkpt>
      <trkpt lat="45.59238" lon="4.61058">
        <ele>477</ele>
        <time>2012-05-12T06:22:41Z</time>
      </trkpt>
      <trkpt lat="45.59232" lon="4.61091">
        <ele>480</ele>
        <time>2012-05-12T06:22:51Z</time>
      </trkpt>
      <trkpt lat="45.59235" lon="4.61125">
        <ele>481</ele>
        <time>2012-05-12T06:23:01Z</time>
      </trkpt>
      <trkpt lat="45.59245" lon="4.61143">
        <ele>482</ele>
        <time>2012-05-12T06:23:08Z</time>
      </trkpt>
      <trkpt lat="45.59263" lon="4.61161">
        <ele>484</ele>
        <time>2012-05-12T06:23:17Z</time>
      </trkpt>
      <trkpt lat="45.5928" lon="4.61174">
        <ele>485</ele>
        <time>2012-05-12T06:23:25Z</time>
      </trkpt>
      <trkpt lat="45.59296" lon="4.61186">
        <ele>486</ele>
        <time>2012-05-12T06:23:33Z</time>
      </trkpt>
      <trkpt lat="45.59301" lon="4.61195">
        <ele>486</ele>
        <time>2012-05-12T06:23:39Z</time>
      </trkpt>
      <trkpt lat="45.593" lon="4.612">
        <ele>486</ele>
        <time>2012-05-12T06:23:43Z</time>
      </trkpt>
      <trkpt lat="45.59301" lon="4.61202">
        <ele>486</ele>
        <time>2012-05-12T06:23:44Z</time>
      </trkpt>
      <trkpt lat="45.59303" lon="4.61201">
        <ele>486</ele>
        <time>2012-05-12T06:23:45Z</time>
      </trkpt>
      <trkpt lat="45.59304" lon="4.61199">
        <ele>486</ele>
        <time>2012-05-12T06:23:46Z</time>
      </trkpt>
      <trkpt lat="45.59306" lon="4.61197">
        <ele>487</ele>
        <time>2012-05-12T06:23:47Z</time>
      </trkpt>
      <trkpt lat="45.59308" lon="4.61196">
        <ele>487</ele>
        <time>2012-05-12T06:23:48Z</time>
      </trkpt>
      <trkpt lat="45.5931" lon="4.61195">
        <ele>486</ele>
        <time>2012-05-12T06:23:49Z</time>
      </trkpt>
      <trkpt lat="45.59312" lon="4.61194">
        <ele>486</ele>
        <time>2012-05-12T06:23:50Z</time>
      </trkpt>
      <trkpt lat="45.59314" lon="4.61192">
        <ele>486</ele>
        <time>2012-05-12T06:23:51Z</time>
      </trkpt>
      <trkpt lat="45.59338" lon="4.61173">
        <ele>487</ele>
        <time>2012-05-12T06:24:00Z</time>
      </trkpt>
      <trkpt lat="45.59364" lon="4.61151">
        <ele>488</ele>
        <time>2012-05-12T06:24:10Z</time>
      </trkpt>
      <trkpt lat="45.59384" lon="4.61134">
        <ele>488</ele>
        <time>2012-05-12T06:24:18Z</time>
      </trkpt>
      <trkpt lat="45.59405" lon="4.61111">
        <ele>490</ele>
        <time>2012-05-12T06:24:27Z</time>
      </trkpt>
      <trkpt lat="45.59425" lon="4.61076">
        <ele>492</ele>
        <time>2012-05-12T06:24:38Z</time>
      </trkpt>
      <trkpt lat="45.5944" lon="4.61046">
        <ele>494</ele>
        <time>2012-05-12T06:24:47Z</time>
      </trkpt>
      <trkpt lat="45.59453" lon="4.61019">
        <ele>496</ele>
        <time>2012-05-12T06:24:56Z</time>
      </trkpt>
      <trkpt lat="45.59463" lon="4.60998">
        <ele>497</ele>
        <time>2012-05-12T06:25:03Z</time>
      </trkpt>
      <trkpt lat="45.59477" lon="4.60975">
        <ele>499</ele>
        <time>2012-05-12T06:25:12Z</time>
      </trkpt>
      <trkpt lat="45.59492" lon="4.60963">
        <ele>500</ele>
        <time>2012-05-12T06:25:20Z</time>
      </trkpt>
      <trkpt lat="45.59495" lon="4.60963">
        <ele>500</ele>
        <time>2012-05-12T06:25:21Z</time>
      </trkpt>
      <trkpt lat="45.59497" lon="4.60964">
        <ele>500</ele>
        <time>2012-05-12T06:25:22Z</time>
      </trkpt>
      <trkpt lat="45.59515" lon="4.60975">
        <ele>502</ele>
        <time>2012-05-12T06:25:31Z</time>
      </trkpt>
      <trkpt lat="45.59528" lon="4.60985">
        <ele>503</ele>
        <time>2012-05-12T06:25:38Z</time>
      </trkpt>
      <trkpt lat="45.59544" lon="4.60991">
        <ele>504</ele>
        <time>2012-05-12T06:25:45Z</time>
      </trkpt>
      <trkpt lat="45.59561" lon="4.60992">
        <ele>506</ele>
        <time>2012-05-12T06:25:53Z</time>
      </trkpt>
      <trkpt lat="45.59578" lon="4.60986">
        <ele>507</ele>
        <time>2012-05-12T06:26:01Z</time>
      </trkpt>
      <trkpt lat="45.59596" lon="4.60969">
        <ele>509</ele>
        <time>2012-05-12T06:26:10Z</time>
      </trkpt>
      <trkpt lat="45.59614" lon="4.60949">
        <ele>510</ele>
        <time>2012-05-12T06:26:20Z</time>
      </trkpt>
      <trkpt lat="45.59631" lon="4.6093">
        <ele>511</ele>
        <time>2012-05-12T06:26:29Z</time>
      </trkpt>
      <trkpt lat="45.59647" lon="4.60911">
        <ele>512</ele>
        <time>2012-05-12T06:26:38Z</time>
      </trkpt>
      <trkpt lat="45.59661" lon="4.60891">
        <ele>513</ele>
        <time>2012-05-12T06:26:46Z</time>
      </trkpt>
      <trkpt lat="45.59683" lon="4.60868">
        <ele>513</ele>
        <time>2012-05-12T06:26:56Z</time>
      </trkpt>
      <trkpt lat="45.59699" lon="4.60851">
        <ele>513</ele>
        <time>2012-05-12T06:27:03Z</time>
      </trkpt>
      <trkpt lat="45.59719" lon="4.6083">
        <ele>514</ele>
        <time>2012-05-12T06:27:12Z</time>
      </trkpt>
      <trkpt lat="45.59737" lon="4.60811">
        <ele>514</ele>
        <time>2012-05-12T06:27:20Z</time>
      </trkpt>
      <trkpt lat="45.59756" lon="4.6079">
        <ele>516</ele>
        <time>2012-05-12T06:27:29Z</time>
      </trkpt>
      <trkpt lat="45.59771" lon="4.60773">
        <ele>516</ele>
        <time>2012-05-12T06:27:36Z</time>
      </trkpt>
      <trkpt lat="45.59774" lon="4.60767">
        <ele>517</ele>
        <time>2012-05-12T06:27:38Z</time>
      </trkpt>
      <trkpt lat="45.59781" lon="4.60761">
        <ele>517</ele>
        <time>2012-05-12T06:27:41Z</time>
      </trkpt>
      <trkpt lat="45.59783" lon="4.60761">
        <ele>517</ele>
        <time>2012-05-12T06:27:42Z</time>
      </trkpt>
      <trkpt lat="45.59786" lon="4.60761">
        <ele>517</ele>
        <time>2012-05-12T06:27:43Z</time>
      </trkpt>
      <trkpt lat="45.59788" lon="4.60762">
        <ele>518</ele>
        <time>2012-05-12T06:27:44Z</time>
      </trkpt>
      <trkpt lat="45.5979" lon="4.60761">
        <ele>518</ele>
        <time>2012-05-12T06:27:45Z</time>
      </trkpt>
      <trkpt lat="45.59793" lon="4.6076">
        <ele>518</ele>
        <time>2012-05-12T06:27:46Z</time>
      </trkpt>
      <trkpt lat="45.59813" lon="4.60751">
        <ele>518</ele>
        <time>2012-05-12T06:27:54Z</time>
      </trkpt>
      <trkpt lat="45.59837" lon="4.60734">
        <ele>519</ele>
        <time>2012-05-12T06:28:03Z</time>
      </trkpt>
      <trkpt lat="45.59862" lon="4.60714">
        <ele>520</ele>
        <time>2012-05-12T06:28:12Z</time>
      </trkpt>
      <trkpt lat="45.59885" lon="4.60694">
        <ele>520</ele>
        <time>2012-05-12T06:28:21Z</time>
      </trkpt>
      <trkpt lat="45.59887" lon="4.60694">
        <ele>520</ele>
        <time>2012-05-12T06:28:22Z</time>
      </trkpt>
      <trkpt lat="45.5989" lon="4.60695">
        <ele>520</ele>
        <time>2012-05-12T06:28:23Z</time>
      </trkpt>
      <trkpt lat="45.59914" lon="4.60694">
        <ele>519</ele>
        <time>2012-05-12T06:28:30Z</time>
      </trkpt>
      <trkpt lat="45.59947" lon="4.60686">
        <ele>520</ele>
        <time>2012-05-12T06:28:39Z</time>
      </trkpt>
      <trkpt lat="45.59981" lon="4.60677">
        <ele>521</ele>
        <time>2012-05-12T06:28:49Z</time>
      </trkpt>
      <trkpt lat="45.60001" lon="4.60668">
        <ele>523</ele>
        <time>2012-05-12T06:28:56Z</time>
      </trkpt>
      <trkpt lat="45.60002" lon="4.60664">
        <ele>523</ele>
        <time>2012-05-12T06:28:57Z</time>
      </trkpt>
      <trkpt lat="45.60003" lon="4.6066">
        <ele>523</ele>
        <time>2012-05-12T06:28:58Z</time>
      </trkpt>
      <trkpt lat="45.60003" lon="4.60656">
        <ele>523</ele>
        <time>2012-05-12T06:28:59Z</time>
      </trkpt>
      <trkpt lat="45.60003" lon="4.60652">
        <ele>523</ele>
        <time>2012-05-12T06:29:00Z</time>
      </trkpt>
      <trkpt lat="45.60003" lon="4.60648">
        <ele>523</ele>
        <time>2012-05-12T06:29:01Z</time>
      </trkpt>
      <trkpt lat="45.60005" lon="4.60612">
        <ele>523</ele>
        <time>2012-05-12T06:29:09Z</time>
      </trkpt>
      <trkpt lat="45.60011" lon="4.60582">
        <ele>524</ele>
        <time>2012-05-12T06:29:16Z</time>
      </trkpt>
      <trkpt lat="45.60017" lon="4.60556">
        <ele>524</ele>
        <time>2012-05-12T06:29:22Z</time>
      </trkpt>
      <trkpt lat="45.6003" lon="4.60524">
        <ele>525</ele>
        <time>2012-05-12T06:29:31Z</time>
      </trkpt>
      <trkpt lat="45.60043" lon="4.60505">
        <ele>526</ele>
        <time>2012-05-12T06:29:38Z</time>
      </trkpt>
      <trkpt lat="45.60053" lon="4.60488">
        <ele>527</ele>
        <time>2012-05-12T06:29:45Z</time>
      </trkpt>
      <trkpt lat="45.60059" lon="4.60467">
        <ele>529</ele>
        <time>2012-05-12T06:29:53Z</time>
      </trkpt>
      <trkpt lat="45.60063" lon="4.60451">
        <ele>531</ele>
        <time>2012-05-12T06:30:00Z</time>
      </trkpt>
      <trkpt lat="45.60065" lon="4.60433">
        <ele>533</ele>
        <time>2012-05-12T06:30:09Z</time>
      </trkpt>
      <trkpt lat="45.60068" lon="4.60422">
        <ele>535</ele>
        <time>2012-05-12T06:30:15Z</time>
      </trkpt>
      <trkpt lat="45.60068" lon="4.6042">
        <ele>535</ele>
        <time>2012-05-12T06:30:16Z</time>
      </trkpt>
      <trkpt lat="45.60069" lon="4.60418">
        <ele>535</ele>
        <time>2012-05-12T06:30:17Z</time>
      </trkpt>
      <trkpt lat="45.6007" lon="4.60416">
        <ele>535</ele>
        <time>2012-05-12T06:30:18Z</time>
      </trkpt>
      <trkpt lat="45.6007" lon="4.60414">
        <ele>535</ele>
        <time>2012-05-12T06:30:19Z</time>
      </trkpt>
      <trkpt lat="45.6007" lon="4.60412">
        <ele>536</ele>
        <time>2012-05-12T06:30:20Z</time>
      </trkpt>
      <trkpt lat="45.60071" lon="4.60409">
        <ele>536</ele>
        <time>2012-05-12T06:30:21Z</time>
      </trkpt>
      <trkpt lat="45.60071" lon="4.60407">
        <ele>536</ele>
        <time>2012-05-12T06:30:22Z</time>
      </trkpt>
      <trkpt lat="45.60071" lon="4.60405">
        <ele>537</ele>
        <time>2012-05-12T06:30:23Z</time>
      </trkpt>
      <trkpt lat="45.60072" lon="4.60403">
        <ele>536</ele>
        <time>2012-05-12T06:30:24Z</time>
      </trkpt>
      <trkpt lat="45.60072" lon="4.60401">
        <ele>536</ele>
        <time>2012-05-12T06:30:25Z</time>
      </trkpt>
      <trkpt lat="45.60072" lon="4.60398">
        <ele>536</ele>
        <time>2012-05-12T06:30:26Z</time>
      </trkpt>
      <trkpt lat="45.60072" lon="4.60396">
        <ele>536</ele>
        <time>2012-05-12T06:30:27Z</time>
      </trkpt>
      <trkpt lat="45.60073" lon="4.60394">
        <ele>537</ele>
        <time>2012-05-12T06:30:28Z</time>
      </trkpt>
      <trkpt lat="45.60074" lon="4.60373">
        <ele>538</ele>
        <time>2012-05-12T06:30:38Z</time>
      </trkpt>
      <trkpt lat="45.60077" lon="4.60352">
        <ele>541</ele>
        <time>2012-05-12T06:30:48Z</time>
      </trkpt>
      <trkpt lat="45.60076" lon="4.60334">
        <ele>544</ele>
        <time>2012-05-12T06:30:56Z</time>
      </trkpt>
      <trkpt lat="45.60075" lon="4.60321">
        <ele>546</ele>
        <time>2012-05-12T06:31:03Z</time>
      </trkpt>
      <trkpt lat="45.60074" lon="4.60315">
        <ele>546</ele>
        <time>2012-05-12T06:31:06Z</time>
      </trkpt>
      <trkpt lat="45.60073" lon="4.60313">
        <ele>546</ele>
        <time>2012-05-12T06:31:07Z</time>
      </trkpt>
      <trkpt lat="45.60074" lon="4.60311">
        <ele>546</ele>
        <time>2012-05-12T06:31:08Z</time>
      </trkpt>
      <trkpt lat="45.60074" lon="4.60309">
        <ele>547</ele>
        <time>2012-05-12T06:31:09Z</time>
      </trkpt>
      <trkpt lat="45.60074" lon="4.60307">
        <ele>547</ele>
        <time>2012-05-12T06:31:10Z</time>
      </trkpt>
      <trkpt lat="45.60073" lon="4.60305">
        <ele>547</ele>
        <time>2012-05-12T06:31:11Z</time>
      </trkpt>
      <trkpt lat="45.60073" lon="4.60302">
        <ele>547</ele>
        <time>2012-05-12T06:31:12Z</time>
      </trkpt>
      <trkpt lat="45.60069" lon="4.60285">
        <ele>548</ele>
        <time>2012-05-12T06:31:20Z</time>
      </trkpt>
      <trkpt lat="45.6006" lon="4.60261">
        <ele>550</ele>
        <time>2012-05-12T06:31:31Z</time>
      </trkpt>
      <trkpt lat="45.60052" lon="4.60243">
        <ele>551</ele>
        <time>2012-05-12T06:31:39Z</time>
      </trkpt>
      <trkpt lat="45.60046" lon="4.6022">
        <ele>553</ele>
        <time>2012-05-12T06:31:49Z</time>
      </trkpt>
      <trkpt lat="45.60046" lon="4.60197">
        <ele>554</ele>
        <time>2012-05-12T06:31:58Z</time>
      </trkpt>
      <trkpt lat="45.60046" lon="4.60179">
        <ele>556</ele>
        <time>2012-05-12T06:32:05Z</time>
      </trkpt>
      <trkpt lat="45.60048" lon="4.60151">
        <ele>559</ele>
        <time>2012-05-12T06:32:16Z</time>
      </trkpt>
      <trkpt lat="45.60046" lon="4.6013">
        <ele>561</ele>
        <time>2012-05-12T06:32:25Z</time>
      </trkpt>
      <trkpt lat="45.60041" lon="4.60112">
        <ele>562</ele>
        <time>2012-05-12T06:32:33Z</time>
      </trkpt>
      <trkpt lat="45.60036" lon="4.60093">
        <ele>563</ele>
        <time>2012-05-12T06:32:41Z</time>
      </trkpt>
      <trkpt lat="45.60033" lon="4.60073">
        <ele>564</ele>
        <time>2012-05-12T06:32:49Z</time>
      </trkpt>
      <trkpt lat="45.60033" lon="4.60049">
        <ele>566</ele>
        <time>2012-05-12T06:32:57Z</time>
      </trkpt>
      <trkpt lat="45.60038" lon="4.60033">
        <ele>566</ele>
        <time>2012-05-12T06:33:03Z</time>
      </trkpt>
      <trkpt lat="45.60041" lon="4.6003">
        <ele>565</ele>
        <time>2012-05-12T06:33:07Z</time>
      </trkpt>
      <trkpt lat="45.6004" lon="4.6003">
        <ele>566</ele>
        <time>2012-05-12T06:33:22Z</time>
      </trkpt>
      <trkpt lat="45.60041" lon="4.6003">
        <ele>566</ele>
        <time>2012-05-12T06:33:39Z</time>
      </trkpt>
      <trkpt lat="45.6004" lon="4.6003">
        <ele>566</ele>
        <time>2012-05-12T06:33:58Z</time>
      </trkpt>
      <trkpt lat="45.6004" lon="4.60031">
        <ele>566</ele>
        <time>2012-05-12T06:34:21Z</time>
      </trkpt>
      <trkpt lat="45.60041" lon="4.6003">
        <ele>567</ele>
        <time>2012-05-12T06:34:37Z</time>
      </trkpt>
      <trkpt lat="45.6004" lon="4.6003">
        <ele>567</ele>
        <time>2012-05-12T06:34:55Z</time>
      </trkpt>
      <trkpt lat="45.6004" lon="4.6003">
        <ele>567</ele>
        <time>2012-05-12T06:35:12Z</time>
      </trkpt>
      <trkpt lat="45.60039" lon="4.60031">
        <ele>568</ele>
        <time>2012-05-12T06:35:31Z</time>
      </trkpt>
      <trkpt lat="45.60039" lon="4.60032">
        <ele>568</ele>
        <time>2012-05-12T06:35:49Z</time>
      </trkpt>
      <trkpt lat="45.60039" lon="4.60032">
        <ele>568</ele>
        <time>2012-05-12T06:36:07Z</time>
      </trkpt>
      <trkpt lat="45.60039" lon="4.60031">
        <ele>569</ele>
        <time>2012-05-12T06:36:23Z</time>
      </trkpt>
      <trkpt lat="45.60039" lon="4.60029">
        <ele>569</ele>
        <time>2012-05-12T06:36:30Z</time>
      </trkpt>
      <trkpt lat="45.60039" lon="4.60026">
        <ele>568</ele>
        <time>2012-05-12T06:36:32Z</time>
      </trkpt>
      <trkpt lat="45.6004" lon="4.60024">
        <ele>568</ele>
        <time>2012-05-12T06:36:33Z</time>
      </trkpt>
      <trkpt lat="45.60041" lon="4.60022">
        <ele>568</ele>
        <time>2012-05-12T06:36:34Z</time>
      </trkpt>
      <trkpt lat="45.6005" lon="4.59996">
        <ele>570</ele>
        <time>2012-05-12T06:36:43Z</time>
      </trkpt>
      <trkpt lat="45.60058" lon="4.59972">
        <ele>570</ele>
        <time>2012-05-12T06:36:51Z</time>
      </trkpt>
      <trkpt lat="45.6007" lon="4.59937">
        <ele>572</ele>
        <time>2012-05-12T06:37:03Z</time>
      </trkpt>
      <trkpt lat="45.60077" lon="4.5991">
        <ele>573</ele>
        <time>2012-05-12T06:37:12Z</time>
      </trkpt>
      <trkpt lat="45.60084" lon="4.59893">
        <ele>575</ele>
        <time>2012-05-12T06:37:19Z</time>
      </trkpt>
      <trkpt lat="45.60084" lon="4.59878">
        <ele>577</ele>
        <time>2012-05-12T06:37:26Z</time>
      </trkpt>
      <trkpt lat="45.6008" lon="4.59861">
        <ele>578</ele>
        <time>2012-05-12T06:37:34Z</time>
      </trkpt>
      <trkpt lat="45.60076" lon="4.59842">
        <ele>581</ele>
        <time>2012-05-12T06:37:42Z</time>
      </trkpt>
      <trkpt lat="45.60073" lon="4.59825">
        <ele>583</ele>
        <time>2012-05-12T06:37:50Z</time>
      </trkpt>
      <trkpt lat="45.60061" lon="4.59815">
        <ele>584</ele>
        <time>2012-05-12T06:37:58Z</time>
      </trkpt>
      <trkpt lat="45.60049" lon="4.59799">
        <ele>584</ele>
        <time>2012-05-12T06:38:05Z</time>
      </trkpt>
      <trkpt lat="45.60037" lon="4.59776">
        <ele>586</ele>
        <time>2012-05-12T06:38:14Z</time>
      </trkpt>
      <trkpt lat="45.60028" lon="4.59763">
        <ele>586</ele>
        <time>2012-05-12T06:38:20Z</time>
      </trkpt>
      <trkpt lat="45.60015" lon="4.59746">
        <ele>586</ele>
        <time>2012-05-12T06:38:27Z</time>
      </trkpt>
      <trkpt lat="45.60003" lon="4.59726">
        <ele>586</ele>
        <time>2012-05-12T06:38:34Z</time>
      </trkpt>
      <trkpt lat="45.59989" lon="4.597">
        <ele>586</ele>
        <time>2012-05-12T06:38:42Z</time>
      </trkpt>
      <trkpt lat="45.59977" lon="4.59674">
        <ele>587</ele>
        <time>2012-05-12T06:38:50Z</time>
      </trkpt>
      <trkpt lat="45.59967" lon="4.59652">
        <ele>589</ele>
        <time>2012-05-12T06:38:58Z</time>
      </trkpt>
      <trkpt lat="45.59955" lon="4.59637">
        <ele>589</ele>
        <time>2012-05-12T06:39:04Z</time>
      </trkpt>
      <trkpt lat="45.59941" lon="4.59622">
        <ele>588</ele>
        <time>2012-05-12T06:39:09Z</time>
      </trkpt>
      <trkpt lat="45.59916" lon="4.59595">
        <ele>586</ele>
        <time>2012-05-12T06:39:15Z</time>
      </trkpt>
      <trkpt lat="45.599" lon="4.59578">
        <ele>584</ele>
        <time>2012-05-12T06:39:18Z</time>
      </trkpt>
      <trkpt lat="45.5988" lon="4.59563">
        <ele>584</ele>
        <time>2012-05-12T06:39:23Z</time>
      </trkpt>
      <trkpt lat="45.5987" lon="4.59556">
        <ele>586</ele>
        <time>2012-05-12T06:39:29Z</time>
      </trkpt>
      <trkpt lat="45.59865" lon="4.59553">
        <ele>587</ele>
        <time>2012-05-12T06:39:32Z</time>
      </trkpt>
      <trkpt lat="45.59851" lon="4.59544">
        <ele>589</ele>
        <time>2012-05-12T06:39:41Z</time>
      </trkpt>
      <trkpt lat="45.59847" lon="4.59541">
        <ele>590</ele>
        <time>2012-05-12T06:39:44Z</time>
      </trkpt>
      <trkpt lat="45.59846" lon="4.59541">
        <ele>590</ele>
        <time>2012-05-12T06:39:45Z</time>
      </trkpt>
      <trkpt lat="45.59845" lon="4.5954">
        <ele>590</ele>
        <time>2012-05-12T06:39:46Z</time>
      </trkpt>
      <trkpt lat="45.59844" lon="4.5954">
        <ele>590</ele>
        <time>2012-05-12T06:39:47Z</time>
      </trkpt>
      <trkpt lat="45.59842" lon="4.59539">
        <ele>591</ele>
        <time>2012-05-12T06:39:48Z</time>
      </trkpt>
      <trkpt lat="45.59841" lon="4.59539">
        <ele>591</ele>
        <time>2012-05-12T06:39:49Z</time>
      </trkpt>
      <trkpt lat="45.5984" lon="4.59539">
        <ele>591</ele>
        <time>2012-05-12T06:39:50Z</time>
      </trkpt>
      <trkpt lat="45.59838" lon="4.59539">
        <ele>591</ele>
        <time>2012-05-12T06:39:51Z</time>
      </trkpt>
      <trkpt lat="45.59834" lon="4.59542">
        <ele>592</ele>
        <time>2012-05-12T06:39:54Z</time>
      </trkpt>
      <trkpt lat="45.59833" lon="4.59544">
        <ele>592</ele>
        <time>2012-05-12T06:39:55Z</time>
      </trkpt>
      <trkpt lat="45.59827" lon="4.59557">
        <ele>593</ele>
        <time>2012-05-12T06:40:02Z</time>
      </trkpt>
      <trkpt lat="45.59818" lon="4.59575">
        <ele>595</ele>
        <time>2012-05-12T06:40:11Z</time>
      </trkpt>
      <trkpt lat="45.5981" lon="4.59588">
        <ele>597</ele>
        <time>2012-05-12T06:40:19Z</time>
      </trkpt>
      <trkpt lat="45.59806" lon="4.59592">
        <ele>598</ele>
        <time>2012-05-12T06:40:22Z</time>
      </trkpt>
      <trkpt lat="45.59805" lon="4.59593">
        <ele>598</ele>
        <time>2012-05-12T06:40:23Z</time>
      </trkpt>
      <trkpt lat="45.59803" lon="4.59594">
        <ele>598</ele>
        <time>2012-05-12T06:40:24Z</time>
      </trkpt>
      <trkpt lat="45.59802" lon="4.59596">
        <ele>599</ele>
        <time>2012-05-12T06:40:25Z</time>
      </trkpt>
      <trkpt lat="45.59801" lon="4.59597">
        <ele>599</ele>
        <time>2012-05-12T06:40:26Z</time>
      </trkpt>
      <trkpt lat="45.59799" lon="4.59599">
        <ele>599</ele>
        <time>2012-05-12T06:40:27Z</time>
      </trkpt>
      <trkpt lat="45.59788" lon="4.59605">
        <ele>600</ele>
        <time>2012-05-12T06:40:35Z</time>
      </trkpt>
      <trkpt lat="45.59786" lon="4.59606">
        <ele>600</ele>
        <time>2012-05-12T06:40:36Z</time>
      </trkpt>
      <trkpt lat="45.59785" lon="4.59608">
        <ele>600</ele>
        <time>2012-05-12T06:40:37Z</time>
      </trkpt>
      <trkpt lat="45.59783" lon="4.59609">
        <ele>600</ele>
        <time>2012-05-12T06:40:38Z</time>
      </trkpt>
      <trkpt lat="45.59782" lon="4.5961">
        <ele>600</ele>
        <time>2012-05-12T06:40:39Z</time>
      </trkpt>
      <trkpt lat="45.5978" lon="4.59611">
        <ele>600</ele>
        <time>2012-05-12T06:40:40Z</time>
      </trkpt>
      <trkpt lat="45.59765" lon="4.59624">
        <ele>601</ele>
        <time>2012-05-12T06:40:49Z</time>
      </trkpt>
      <trkpt lat="45.59756" lon="4.59633">
        <ele>602</ele>
        <time>2012-05-12T06:40:55Z</time>
      </trkpt>
      <trkpt lat="45.59754" lon="4.59634">
        <ele>603</ele>
        <time>2012-05-12T06:40:56Z</time>
      </trkpt>
      <trkpt lat="45.59753" lon="4.59636">
        <ele>603</ele>
        <time>2012-05-12T06:40:57Z</time>
      </trkpt>
      <trkpt lat="45.59739" lon="4.59647">
        <ele>605</ele>
        <time>2012-05-12T06:41:06Z</time>
      </trkpt>
      <trkpt lat="45.59727" lon="4.59644">
        <ele>605</ele>
        <time>2012-05-12T06:41:13Z</time>
      </trkpt>
      <trkpt lat="45.59713" lon="4.59639">
        <ele>607</ele>
        <time>2012-05-12T06:41:21Z</time>
      </trkpt>
      <trkpt lat="45.597" lon="4.59632">
        <ele>609</ele>
        <time>2012-05-12T06:41:29Z</time>
      </trkpt>
      <trkpt lat="45.59682" lon="4.5962">
        <ele>610</ele>
        <time>2012-05-12T06:41:40Z</time>
      </trkpt>
      <trkpt lat="45.59667" lon="4.59606">
        <ele>611</ele>
        <time>2012-05-12T06:41:50Z</time>
      </trkpt>
      <trkpt lat="45.59657" lon="4.59596">
        <ele>612</ele>
        <time>2012-05-12T06:41:57Z</time>
      </trkpt>
      <trkpt lat="45.5965" lon="4.59582">
        <ele>612</ele>
        <time>2012-05-12T06:42:04Z</time>
      </trkpt>
      <trkpt lat="45.59651" lon="4.59562">
        <ele>612</ele>
        <time>2012-05-12T06:42:12Z</time>
      </trkpt>
      <trkpt lat="45.59652" lon="4.59558">
        <ele>612</ele>
        <time>2012-05-12T06:42:14Z</time>
      </trkpt>
      <trkpt lat="45.59652" lon="4.59555">
        <ele>613</ele>
        <time>2012-05-12T06:42:15Z</time>
      </trkpt>
      <trkpt lat="45.59652" lon="4.59553">
        <ele>613</ele>
        <time>2012-05-12T06:42:16Z</time>
      </trkpt>
      <trkpt lat="45.59653" lon="4.59551">
        <ele>613</ele>
        <time>2012-05-12T06:42:17Z</time>
      </trkpt>
      <trkpt lat="45.59653" lon="4.59549">
        <ele>613</ele>
        <time>2012-05-12T06:42:18Z</time>
      </trkpt>
      <trkpt lat="45.59658" lon="4.5953">
        <ele>615</ele>
        <time>2012-05-12T06:42:27Z</time>
      </trkpt>
      <trkpt lat="45.59664" lon="4.5951">
        <ele>617</ele>
        <time>2012-05-12T06:42:37Z</time>
      </trkpt>
      <trkpt lat="45.59669" lon="4.59488">
        <ele>620</ele>
        <time>2012-05-12T06:42:48Z</time>
      </trkpt>
      <trkpt lat="45.59671" lon="4.59472">
        <ele>622</ele>
        <time>2012-05-12T06:42:56Z</time>
      </trkpt>
      <trkpt lat="45.59674" lon="4.59453">
        <ele>624</ele>
        <time>2012-05-12T06:43:05Z</time>
      </trkpt>
      <trkpt lat="45.59676" lon="4.59439">
        <ele>626</ele>
        <time>2012-05-12T06:43:12Z</time>
      </trkpt>
      <trkpt lat="45.59678" lon="4.59424">
        <ele>629</ele>
        <time>2012-05-12T06:43:20Z</time>
      </trkpt>
      <trkpt lat="45.5968" lon="4.59408">
        <ele>632</ele>
        <time>2012-05-12T06:43:28Z</time>
      </trkpt>
      <trkpt lat="45.59682" lon="4.59397">
        <ele>634</ele>
        <time>2012-05-12T06:43:36Z</time>
      </trkpt>
      <trkpt lat="45.5969" lon="4.59397">
        <ele>634</ele>
        <time>2012-05-12T06:43:44Z</time>
      </trkpt>
      <trkpt lat="45.59697" lon="4.59393">
        <ele>636</ele>
        <time>2012-05-12T06:43:52Z</time>
      </trkpt>
      <trkpt lat="45.59709" lon="4.59387">
        <ele>637</ele>
        <time>2012-05-12T06:44:02Z</time>
      </trkpt>
      <trkpt lat="45.59711" lon="4.59384">
        <ele>637</ele>
        <time>2012-05-12T06:44:04Z</time>
      </trkpt>
      <trkpt lat="45.59722" lon="4.59369">
        <ele>639</ele>
        <time>2012-05-12T06:44:15Z</time>
      </trkpt>
      <trkpt lat="45.59724" lon="4.59366">
        <ele>638</ele>
        <time>2012-05-12T06:44:17Z</time>
      </trkpt>
      <trkpt lat="45.59729" lon="4.59353">
        <ele>640</ele>
        <time>2012-05-12T06:44:25Z</time>
      </trkpt>
      <trkpt lat="45.59733" lon="4.59344">
        <ele>640</ele>
        <time>2012-05-12T06:44:30Z</time>
      </trkpt>
      <trkpt lat="45.59737" lon="4.59323">
        <ele>642</ele>
        <time>2012-05-12T06:44:40Z</time>
      </trkpt>
      <trkpt lat="45.59738" lon="4.59314">
        <ele>642</ele>
        <time>2012-05-12T06:44:44Z</time>
      </trkpt>
      <trkpt lat="45.59739" lon="4.59292">
        <ele>642</ele>
        <time>2012-05-12T06:44:53Z</time>
      </trkpt>
      <trkpt lat="45.59742" lon="4.59266">
        <ele>644</ele>
        <time>2012-05-12T06:45:04Z</time>
      </trkpt>
      <trkpt lat="45.59743" lon="4.59245">
        <ele>646</ele>
        <time>2012-05-12T06:45:13Z</time>
      </trkpt>
      <trkpt lat="45.59747" lon="4.59218">
        <ele>648</ele>
        <time>2012-05-12T06:45:24Z</time>
      </trkpt>
      <trkpt lat="45.59748" lon="4.5919">
        <ele>649</ele>
        <time>2012-05-12T06:45:35Z</time>
      </trkpt>
      <trkpt lat="45.59751" lon="4.59161">
        <ele>651</ele>
        <time>2012-05-12T06:45:47Z</time>
      </trkpt>
      <trkpt lat="45.5976" lon="4.59133">
        <ele>654</ele>
        <time>2012-05-12T06:45:59Z</time>
      </trkpt>
      <trkpt lat="45.59771" lon="4.59116">
        <ele>655</ele>
        <time>2012-05-12T06:46:08Z</time>
      </trkpt>
      <trkpt lat="45.59789" lon="4.59097">
        <ele>658</ele>
        <time>2012-05-12T06:46:21Z</time>
      </trkpt>
      <trkpt lat="45.59803" lon="4.59085">
        <ele>660</ele>
        <time>2012-05-12T06:46:30Z</time>
      </trkpt>
      <trkpt lat="45.59816" lon="4.59076">
        <ele>661</ele>
        <time>2012-05-12T06:46:38Z</time>
      </trkpt>
      <trkpt lat="45.59831" lon="4.59071">
        <ele>663</ele>
        <time>2012-05-12T06:46:47Z</time>
      </trkpt>
      <trkpt lat="45.59847" lon="4.59078">
        <ele>664</ele>
        <time>2012-05-12T06:46:56Z</time>
      </trkpt>
      <trkpt lat="45.59856" lon="4.59085">
        <ele>666</ele>
        <time>2012-05-12T06:47:02Z</time>
      </trkpt>
      <trkpt lat="45.59869" lon="4.59099">
        <ele>668</ele>
        <time>2012-05-12T06:47:11Z</time>
      </trkpt>
      <trkpt lat="45.59882" lon="4.59113">
        <ele>669</ele>
        <time>2012-05-12T06:47:20Z</time>
      </trkpt>
      <trkpt lat="45.59894" lon="4.59128">
        <ele>672</ele>
        <time>2012-05-12T06:47:29Z</time>
      </trkpt>
      <trkpt lat="45.59907" lon="4.5914">
        <ele>673</ele>
        <time>2012-05-12T06:47:38Z</time>
      </trkpt>
      <trkpt lat="45.59918" lon="4.59147">
        <ele>674</ele>
        <time>2012-05-12T06:47:46Z</time>
      </trkpt>
      <trkpt lat="45.59925" lon="4.5915">
        <ele>675</ele>
        <time>2012-05-12T06:47:50Z</time>
      </trkpt>
      <trkpt lat="45.59941" lon="4.59147">
        <ele>676</ele>
        <time>2012-05-12T06:47:59Z</time>
      </trkpt>
      <trkpt lat="45.59954" lon="4.59135">
        <ele>677</ele>
        <time>2012-05-12T06:48:08Z</time>
      </trkpt>
      <trkpt lat="45.59971" lon="4.59122">
        <ele>679</ele>
        <time>2012-05-12T06:48:19Z</time>
      </trkpt>
      <trkpt lat="45.5998" lon="4.59112">
        <ele>681</ele>
        <time>2012-05-12T06:48:26Z</time>
      </trkpt>
      <trkpt lat="45.59981" lon="4.59111">
        <ele>681</ele>
        <time>2012-05-12T06:48:27Z</time>
      </trkpt>
      <trkpt lat="45.59994" lon="4.59099">
        <ele>682</ele>
        <time>2012-05-12T06:48:36Z</time>
      </trkpt>
      <trkpt lat="45.60009" lon="4.59085">
        <ele>684</ele>
        <time>2012-05-12T06:48:46Z</time>
      </trkpt>
      <trkpt lat="45.60022" lon="4.59072">
        <ele>685</ele>
        <time>2012-05-12T06:48:55Z</time>
      </trkpt>
      <trkpt lat="45.60026" lon="4.59068">
        <ele>686</ele>
        <time>2012-05-12T06:48:58Z</time>
      </trkpt>
      <trkpt lat="45.60041" lon="4.59055">
        <ele>688</ele>
        <time>2012-05-12T06:49:08Z</time>
      </trkpt>
      <trkpt lat="45.60051" lon="4.59044">
        <ele>689</ele>
        <time>2012-05-12T06:49:16Z</time>
      </trkpt>
      <trkpt lat="45.60063" lon="4.59035">
        <ele>690</ele>
        <time>2012-05-12T06:49:24Z</time>
      </trkpt>
      <trkpt lat="45.60075" lon="4.59023">
        <ele>692</ele>
        <time>2012-05-12T06:49:33Z</time>
      </trkpt>
      <trkpt lat="45.60087" lon="4.59013">
        <ele>694</ele>
        <time>2012-05-12T06:49:41Z</time>
      </trkpt>
      <trkpt lat="45.60098" lon="4.59002">
        <ele>694</ele>
        <time>2012-05-12T06:49:49Z</time>
      </trkpt>
      <trkpt lat="45.60108" lon="4.58988">
        <ele>696</ele>
        <time>2012-05-12T06:49:57Z</time>
      </trkpt>
      <trkpt lat="45.60114" lon="4.58974">
        <ele>698</ele>
        <time>2012-05-12T06:50:04Z</time>
      </trkpt>
      <trkpt lat="45.60122" lon="4.58962">
        <ele>698</ele>
        <time>2012-05-12T06:50:12Z</time>
      </trkpt>
      <trkpt lat="45.60124" lon="4.58958">
        <ele>699</ele>
        <time>2012-05-12T06:50:14Z</time>
      </trkpt>
      <trkpt lat="45.6013" lon="4.58942">
        <ele>699</ele>
        <time>2012-05-12T06:50:21Z</time>
      </trkpt>
      <trkpt lat="45.60134" lon="4.58922">
        <ele>701</ele>
        <time>2012-05-12T06:50:29Z</time>
      </trkpt>
      <trkpt lat="45.60135" lon="4.58908">
        <ele>701</ele>
        <time>2012-05-12T06:50:35Z</time>
      </trkpt>
      <trkpt lat="45.60135" lon="4.58897">
        <ele>701</ele>
        <time>2012-05-12T06:50:40Z</time>
      </trkpt>
      <trkpt lat="45.6014" lon="4.58871">
        <ele>700</ele>
        <time>2012-05-12T06:50:48Z</time>
      </trkpt>
      <trkpt lat="45.60144" lon="4.58847">
        <ele>699</ele>
        <time>2012-05-12T06:50:54Z</time>
      </trkpt>
      <trkpt lat="45.60145" lon="4.58839">
        <ele>699</ele>
        <time>2012-05-12T06:50:57Z</time>
      </trkpt>
      <trkpt lat="45.6015" lon="4.58817">
        <ele>698</ele>
        <time>2012-05-12T06:51:03Z</time>
      </trkpt>
      <trkpt lat="45.60153" lon="4.58808">
        <ele>697</ele>
        <time>2012-05-12T06:51:05Z</time>
      </trkpt>
      <trkpt lat="45.60155" lon="4.58802">
        <ele>697</ele>
        <time>2012-05-12T06:51:06Z</time>
      </trkpt>
      <trkpt lat="45.60161" lon="4.58791">
        <ele>697</ele>
        <time>2012-05-12T06:51:08Z</time>
      </trkpt>
      <trkpt lat="45.60174" lon="4.58765">
        <ele>696</ele>
        <time>2012-05-12T06:51:12Z</time>
      </trkpt>
      <trkpt lat="45.6018" lon="4.58738">
        <ele>695</ele>
        <time>2012-05-12T06:51:16Z</time>
      </trkpt>
      <trkpt lat="45.60181" lon="4.58731">
        <ele>695</ele>
        <time>2012-05-12T06:51:17Z</time>
      </trkpt>
      <trkpt lat="45.60183" lon="4.5868">
        <ele>693</ele>
        <time>2012-05-12T06:51:23Z</time>
      </trkpt>
      <trkpt lat="45.60183" lon="4.5867">
        <ele>692</ele>
        <time>2012-05-12T06:51:24Z</time>
      </trkpt>
      <trkpt lat="45.60184" lon="4.5866">
        <ele>692</ele>
        <time>2012-05-12T06:51:25Z</time>
      </trkpt>
      <trkpt lat="45.60185" lon="4.58638">
        <ele>693</ele>
        <time>2012-05-12T06:51:28Z</time>
      </trkpt>
      <trkpt lat="45.60182" lon="4.58618">
        <ele>694</ele>
        <time>2012-05-12T06:51:34Z</time>
      </trkpt>
      <trkpt lat="45.60181" lon="4.58586">
        <ele>695</ele>
        <time>2012-05-12T06:51:43Z</time>
      </trkpt>
      <trkpt lat="45.60177" lon="4.58554">
        <ele>696</ele>
        <time>2012-05-12T06:51:52Z</time>
      </trkpt>
      <trkpt lat="45.60168" lon="4.58537">
        <ele>698</ele>
        <time>2012-05-12T06:52:00Z</time>
      </trkpt>
      <trkpt lat="45.60159" lon="4.58528">
        <ele>699</ele>
        <time>2012-05-12T06:52:07Z</time>
      </trkpt>
      <trkpt lat="45.60155" lon="4.58511">
        <ele>701</ele>
        <time>2012-05-12T06:52:15Z</time>
      </trkpt>
      <trkpt lat="45.60154" lon="4.58507">
        <ele>701</ele>
        <time>2012-05-12T06:52:17Z</time>
      </trkpt>
      <trkpt lat="45.60153" lon="4.58506">
        <ele>701</ele>
        <time>2012-05-12T06:52:18Z</time>
      </trkpt>
      <trkpt lat="45.60153" lon="4.58504">
        <ele>702</ele>
        <time>2012-05-12T06:52:19Z</time>
      </trkpt>
      <trkpt lat="45.60152" lon="4.58503">
        <ele>702</ele>
        <time>2012-05-12T06:52:20Z</time>
      </trkpt>
      <trkpt lat="45.60151" lon="4.58501">
        <ele>702</ele>
        <time>2012-05-12T06:52:21Z</time>
      </trkpt>
      <trkpt lat="45.60151" lon="4.58499">
        <ele>703</ele>
        <time>2012-05-12T06:52:22Z</time>
      </trkpt>
      <trkpt lat="45.6015" lon="4.58497">
        <ele>703</ele>
        <time>2012-05-12T06:52:23Z</time>
      </trkpt>
      <trkpt lat="45.60147" lon="4.5848">
        <ele>704</ele>
        <time>2012-05-12T06:52:30Z</time>
      </trkpt>
      <trkpt lat="45.60139" lon="4.58456">
        <ele>705</ele>
        <time>2012-05-12T06:52:38Z</time>
      </trkpt>
      <trkpt lat="45.60135" lon="4.58431">
        <ele>704</ele>
        <time>2012-05-12T06:52:44Z</time>
      </trkpt>
      <trkpt lat="45.60127" lon="4.584">
        <ele>705</ele>
        <time>2012-05-12T06:52:52Z</time>
      </trkpt>
      <trkpt lat="45.60118" lon="4.58365">
        <ele>706</ele>
        <time>2012-05-12T06:53:01Z</time>
      </trkpt>
      <trkpt lat="45.60114" lon="4.58337">
        <ele>708</ele>
        <time>2012-05-12T06:53:09Z</time>
      </trkpt>
      <trkpt lat="45.60115" lon="4.58313">
        <ele>709</ele>
        <time>2012-05-12T06:53:17Z</time>
      </trkpt>
      <trkpt lat="45.6012" lon="4.58296">
        <ele>711</ele>
        <time>2012-05-12T06:53:25Z</time>
      </trkpt>
      <trkpt lat="45.60122" lon="4.58274">
        <ele>713</ele>
        <time>2012-05-12T06:53:34Z</time>
      </trkpt>
      <trkpt lat="45.60123" lon="4.58267">
        <ele>714</ele>
        <time>2012-05-12T06:53:37Z</time>
      </trkpt>
      <trkpt lat="45.60127" lon="4.58253">
        <ele>715</ele>
        <time>2012-05-12T06:53:44Z</time>
      </trkpt>
      <trkpt lat="45.6013" lon="4.58243">
        <ele>716</ele>
        <time>2012-05-12T06:53:49Z</time>
      </trkpt>
      <trkpt lat="45.60133" lon="4.58227">
        <ele>718</ele>
        <time>2012-05-12T06:53:57Z</time>
      </trkpt>
      <trkpt lat="45.60134" lon="4.58208">
        <ele>720</ele>
        <time>2012-05-12T06:54:05Z</time>
      </trkpt>
      <trkpt lat="45.60137" lon="4.58195">
        <ele>721</ele>
        <time>2012-05-12T06:54:12Z</time>
      </trkpt>
      <trkpt lat="45.60138" lon="4.5819">
        <ele>721</ele>
        <time>2012-05-12T06:54:15Z</time>
      </trkpt>
      <trkpt lat="45.60138" lon="4.58188">
        <ele>721</ele>
        <time>2012-05-12T06:54:16Z</time>
      </trkpt>
      <trkpt lat="45.60139" lon="4.58186">
        <ele>722</ele>
        <time>2012-05-12T06:54:17Z</time>
      </trkpt>
      <trkpt lat="45.60139" lon="4.58184">
        <ele>722</ele>
        <time>2012-05-12T06:54:18Z</time>
      </trkpt>
      <trkpt lat="45.6014" lon="4.58182">
        <ele>722</ele>
        <time>2012-05-12T06:54:19Z</time>
      </trkpt>
      <trkpt lat="45.60143" lon="4.58171">
        <ele>724</ele>
        <time>2012-05-12T06:54:25Z</time>
      </trkpt>
      <trkpt lat="45.60144" lon="4.58164">
        <ele>724</ele>
        <time>2012-05-12T06:54:29Z</time>
      </trkpt>
      <trkpt lat="45.60144" lon="4.58162">
        <ele>724</ele>
        <time>2012-05-12T06:54:30Z</time>
      </trkpt>
      <trkpt lat="45.60143" lon="4.58152">
        <ele>724</ele>
        <time>2012-05-12T06:54:37Z</time>
      </trkpt>
      <trkpt lat="45.60144" lon="4.58138">
        <ele>725</ele>
        <time>2012-05-12T06:54:44Z</time>
      </trkpt>
      <trkpt lat="45.60148" lon="4.58128">
        <ele>726</ele>
        <time>2012-05-12T06:54:49Z</time>
      </trkpt>
      <trkpt lat="45.60148" lon="4.58126">
        <ele>726</ele>
        <time>2012-05-12T06:54:50Z</time>
      </trkpt>
      <trkpt lat="45.60148" lon="4.58124">
        <ele>727</ele>
        <time>2012-05-12T06:54:51Z</time>
      </trkpt>
      <trkpt lat="45.60149" lon="4.58123">
        <ele>727</ele>
        <time>2012-05-12T06:54:52Z</time>
      </trkpt>
      <trkpt lat="45.60149" lon="4.58121">
        <ele>727</ele>
        <time>2012-05-12T06:54:53Z</time>
      </trkpt>
      <trkpt lat="45.6015" lon="4.58119">
        <ele>727</ele>
        <time>2012-05-12T06:54:54Z</time>
      </trkpt>
      <trkpt lat="45.6015" lon="4.58117">
        <ele>727</ele>
        <time>2012-05-12T06:54:55Z</time>
      </trkpt>
      <trkpt lat="45.6015" lon="4.58114">
        <ele>728</ele>
        <time>2012-05-12T06:54:56Z</time>
      </trkpt>
      <trkpt lat="45.60152" lon="4.58108">
        <ele>727</ele>
        <time>2012-05-12T06:54:59Z</time>
      </trkpt>
      <trkpt lat="45.60152" lon="4.58099">
        <ele>728</ele>
        <time>2012-05-12T06:55:03Z</time>
      </trkpt>
      <trkpt lat="45.60152" lon="4.58097">
        <ele>728</ele>
        <time>2012-05-12T06:55:04Z</time>
      </trkpt>
      <trkpt lat="45.60152" lon="4.58095">
        <ele>728</ele>
        <time>2012-05-12T06:55:05Z</time>
      </trkpt>
      <trkpt lat="45.60154" lon="4.58078">
        <ele>729</ele>
        <time>2012-05-12T06:55:13Z</time>
      </trkpt>
      <trkpt lat="45.60157" lon="4.58059">
        <ele>730</ele>
        <time>2012-05-12T06:55:22Z</time>
      </trkpt>
      <trkpt lat="45.60159" lon="4.58049">
        <ele>732</ele>
        <time>2012-05-12T06:55:29Z</time>
      </trkpt>
      <trkpt lat="45.60162" lon="4.58038">
        <ele>734</ele>
        <time>2012-05-12T06:55:35Z</time>
      </trkpt>
      <trkpt lat="45.60165" lon="4.58026">
        <ele>735</ele>
        <time>2012-05-12T06:55:42Z</time>
      </trkpt>
      <trkpt lat="45.60166" lon="4.58025">
        <ele>735</ele>
        <time>2012-05-12T06:55:43Z</time>
      </trkpt>
      <trkpt lat="45.60171" lon="4.5801">
        <ele>736</ele>
        <time>2012-05-12T06:55:52Z</time>
      </trkpt>
      <trkpt lat="45.60172" lon="4.58009">
        <ele>737</ele>
        <time>2012-05-12T06:55:53Z</time>
      </trkpt>
      <trkpt lat="45.60173" lon="4.58008">
        <ele>737</ele>
        <time>2012-05-12T06:55:54Z</time>
      </trkpt>
      <trkpt lat="45.60174" lon="4.58006">
        <ele>737</ele>
        <time>2012-05-12T06:55:55Z</time>
      </trkpt>
      <trkpt lat="45.60178" lon="4.57998">
        <ele>739</ele>
        <time>2012-05-12T06:56:01Z</time>
      </trkpt>
      <trkpt lat="45.60181" lon="4.57995">
        <ele>740</ele>
        <time>2012-05-12T06:56:03Z</time>
      </trkpt>
      <trkpt lat="45.60182" lon="4.57995">
        <ele>740</ele>
        <time>2012-05-12T06:56:04Z</time>
      </trkpt>
      <trkpt lat="45.60184" lon="4.57994">
        <ele>740</ele>
        <time>2012-05-12T06:56:05Z</time>
      </trkpt>
      <trkpt lat="45.60187" lon="4.57993">
        <ele>740</ele>
        <time>2012-05-12T06:56:07Z</time>
      </trkpt>
      <trkpt lat="45.60188" lon="4.57993">
        <ele>741</ele>
        <time>2012-05-12T06:56:08Z</time>
      </trkpt>
      <trkpt lat="45.6019" lon="4.57993">
        <ele>741</ele>
        <time>2012-05-12T06:56:09Z</time>
      </trkpt>
      <trkpt lat="45.60192" lon="4.57992">
        <ele>740</ele>
        <time>2012-05-12T06:56:10Z</time>
      </trkpt>
      <trkpt lat="45.60193" lon="4.57992">
        <ele>740</ele>
        <time>2012-05-12T06:56:11Z</time>
      </trkpt>
      <trkpt lat="45.60195" lon="4.57991">
        <ele>740</ele>
        <time>2012-05-12T06:56:12Z</time>
      </trkpt>
      <trkpt lat="45.60196" lon="4.57989">
        <ele>740</ele>
        <time>2012-05-12T06:56:18Z</time>
      </trkpt>
      <trkpt lat="45.60201" lon="4.57986">
        <ele>740</ele>
        <time>2012-05-12T06:56:26Z</time>
      </trkpt>
      <trkpt lat="45.60213" lon="4.57971">
        <ele>739</ele>
        <time>2012-05-12T06:56:33Z</time>
      </trkpt>
      <trkpt lat="45.60221" lon="4.57956">
        <ele>739</ele>
        <time>2012-05-12T06:56:39Z</time>
      </trkpt>
      <trkpt lat="45.6023" lon="4.57937">
        <ele>739</ele>
        <time>2012-05-12T06:56:46Z</time>
      </trkpt>
      <trkpt lat="45.60234" lon="4.57919">
        <ele>739</ele>
        <time>2012-05-12T06:56:54Z</time>
      </trkpt>
      <trkpt lat="45.60235" lon="4.57916">
        <ele>739</ele>
        <time>2012-05-12T06:56:55Z</time>
      </trkpt>
      <trkpt lat="45.60236" lon="4.57913">
        <ele>739</ele>
        <time>2012-05-12T06:56:56Z</time>
      </trkpt>
      <trkpt lat="45.60238" lon="4.57907">
        <ele>739</ele>
        <time>2012-05-12T06:56:58Z</time>
      </trkpt>
      <trkpt lat="45.60238" lon="4.57903">
        <ele>740</ele>
        <time>2012-05-12T06:56:59Z</time>
      </trkpt>
      <trkpt lat="45.60238" lon="4.57899">
        <ele>740</ele>
        <time>2012-05-12T06:57:00Z</time>
      </trkpt>
      <trkpt lat="45.60238" lon="4.57896">
        <ele>740</ele>
        <time>2012-05-12T06:57:01Z</time>
      </trkpt>
      <trkpt lat="45.60239" lon="4.57893">
        <ele>740</ele>
        <time>2012-05-12T06:57:02Z</time>
      </trkpt>
      <trkpt lat="45.60239" lon="4.5789">
        <ele>741</ele>
        <time>2012-05-12T06:57:03Z</time>
      </trkpt>
      <trkpt lat="45.6024" lon="4.57887">
        <ele>741</ele>
        <time>2012-05-12T06:57:04Z</time>
      </trkpt>
      <trkpt lat="45.60241" lon="4.57884">
        <ele>741</ele>
        <time>2012-05-12T06:57:05Z</time>
      </trkpt>
      <trkpt lat="45.60241" lon="4.57882">
        <ele>741</ele>
        <time>2012-05-12T06:57:06Z</time>
      </trkpt>
      <trkpt lat="45.60242" lon="4.57879">
        <ele>741</ele>
        <time>2012-05-12T06:57:07Z</time>
      </trkpt>
      <trkpt lat="45.60242" lon="4.57877">
        <ele>741</ele>
        <time>2012-05-12T06:57:08Z</time>
      </trkpt>
      <trkpt lat="45.60242" lon="4.57874">
        <ele>742</ele>
        <time>2012-05-12T06:57:09Z</time>
      </trkpt>
      <trkpt lat="45.60243" lon="4.57872">
        <ele>741</ele>
        <time>2012-05-12T06:57:10Z</time>
      </trkpt>
      <trkpt lat="45.60243" lon="4.57869">
        <ele>742</ele>
        <time>2012-05-12T06:57:11Z</time>
      </trkpt>
      <trkpt lat="45.60243" lon="4.57866">
        <ele>741</ele>
        <time>2012-05-12T06:57:12Z</time>
      </trkpt>
      <trkpt lat="45.60244" lon="4.57857">
        <ele>741</ele>
        <time>2012-05-12T06:57:16Z</time>
      </trkpt>
      <trkpt lat="45.60244" lon="4.57854">
        <ele>742</ele>
        <time>2012-05-12T06:57:17Z</time>
      </trkpt>
      <trkpt lat="45.60244" lon="4.57852">
        <ele>742</ele>
        <time>2012-05-12T06:57:18Z</time>
      </trkpt>
      <trkpt lat="45.60244" lon="4.5785">
        <ele>742</ele>
        <time>2012-05-12T06:57:19Z</time>
      </trkpt>
      <trkpt lat="45.60244" lon="4.57848">
        <ele>742</ele>
        <time>2012-05-12T06:57:20Z</time>
      </trkpt>
      <trkpt lat="45.60244" lon="4.57845">
        <ele>742</ele>
        <time>2012-05-12T06:57:21Z</time>
      </trkpt>
      <trkpt lat="45.60244" lon="4.57843">
        <ele>743</ele>
        <time>2012-05-12T06:57:22Z</time>
      </trkpt>
      <trkpt lat="45.60244" lon="4.57841">
        <ele>743</ele>
        <time>2012-05-12T06:57:23Z</time>
      </trkpt>
      <trkpt lat="45.60244" lon="4.57839">
        <ele>743</ele>
        <time>2012-05-12T06:57:24Z</time>
      </trkpt>
      <trkpt lat="45.60243" lon="4.57837">
        <ele>743</ele>
        <time>2012-05-12T06:57:25Z</time>
      </trkpt>
      <trkpt lat="45.60243" lon="4.57835">
        <ele>743</ele>
        <time>2012-05-12T06:57:26Z</time>
      </trkpt>
      <trkpt lat="45.60243" lon="4.57832">
        <ele>743</ele>
        <time>2012-05-12T06:57:27Z</time>
      </trkpt>
      <trkpt lat="45.60243" lon="4.5783">
        <ele>743</ele>
        <time>2012-05-12T06:57:28Z</time>
      </trkpt>
      <trkpt lat="45.60243" lon="4.57827">
        <ele>743</ele>
        <time>2012-05-12T06:57:30Z</time>
      </trkpt>
      <trkpt lat="45.60243" lon="4.57825">
        <ele>744</ele>
        <time>2012-05-12T06:57:31Z</time>
      </trkpt>
      <trkpt lat="45.60243" lon="4.57823">
        <ele>744</ele>
        <time>2012-05-12T06:57:32Z</time>
      </trkpt>
      <trkpt lat="45.60242" lon="4.57821">
        <ele>744</ele>
        <time>2012-05-12T06:57:33Z</time>
      </trkpt>
      <trkpt lat="45.60243" lon="4.57819">
        <ele>744</ele>
        <time>2012-05-12T06:57:34Z</time>
      </trkpt>
      <trkpt lat="45.60243" lon="4.57817">
        <ele>745</ele>
        <time>2012-05-12T06:57:35Z</time>
      </trkpt>
      <trkpt lat="45.60242" lon="4.57814">
        <ele>744</ele>
        <time>2012-05-12T06:57:36Z</time>
      </trkpt>
      <trkpt lat="45.60242" lon="4.57812">
        <ele>744</ele>
        <time>2012-05-12T06:57:37Z</time>
      </trkpt>
      <trkpt lat="45.60242" lon="4.5781">
        <ele>745</ele>
        <time>2012-05-12T06:57:38Z</time>
      </trkpt>
      <trkpt lat="45.60241" lon="4.578">
        <ele>745</ele>
        <time>2012-05-12T06:57:42Z</time>
      </trkpt>
      <trkpt lat="45.60241" lon="4.57797">
        <ele>746</ele>
        <time>2012-05-12T06:57:43Z</time>
      </trkpt>
      <trkpt lat="45.60241" lon="4.57795">
        <ele>746</ele>
        <time>2012-05-12T06:57:44Z</time>
      </trkpt>
      <trkpt lat="45.60241" lon="4.57792">
        <ele>746</ele>
        <time>2012-05-12T06:57:45Z</time>
      </trkpt>
      <trkpt lat="45.60241" lon="4.57789">
        <ele>746</ele>
        <time>2012-05-12T06:57:46Z</time>
      </trkpt>
      <trkpt lat="45.60242" lon="4.57786">
        <ele>747</ele>
        <time>2012-05-12T06:57:47Z</time>
      </trkpt>
      <trkpt lat="45.60243" lon="4.57784">
        <ele>747</ele>
        <time>2012-05-12T06:57:48Z</time>
      </trkpt>
      <trkpt lat="45.60243" lon="4.57782">
        <ele>747</ele>
        <time>2012-05-12T06:57:49Z</time>
      </trkpt>
      <trkpt lat="45.60244" lon="4.5778">
        <ele>747</ele>
        <time>2012-05-12T06:57:50Z</time>
      </trkpt>
      <trkpt lat="45.60244" lon="4.57777">
        <ele>747</ele>
        <time>2012-05-12T06:57:51Z</time>
      </trkpt>
      <trkpt lat="45.60245" lon="4.57774">
        <ele>748</ele>
        <time>2012-05-12T06:57:52Z</time>
      </trkpt>
      <trkpt lat="45.60246" lon="4.57771">
        <ele>748</ele>
        <time>2012-05-12T06:57:53Z</time>
      </trkpt>
      <trkpt lat="45.60247" lon="4.57769">
        <ele>748</ele>
        <time>2012-05-12T06:57:54Z</time>
      </trkpt>
      <trkpt lat="45.60251" lon="4.57747">
        <ele>749</ele>
        <time>2012-05-12T06:58:03Z</time>
      </trkpt>
      <trkpt lat="45.60251" lon="4.57728">
        <ele>748</ele>
        <time>2012-05-12T06:58:08Z</time>
      </trkpt>
      <trkpt lat="45.60249" lon="4.57704">
        <ele>748</ele>
        <time>2012-05-12T06:58:15Z</time>
      </trkpt>
      <trkpt lat="45.60247" lon="4.5768">
        <ele>747</ele>
        <time>2012-05-12T06:58:20Z</time>
      </trkpt>
      <trkpt lat="45.60246" lon="4.57675">
        <ele>747</ele>
        <time>2012-05-12T06:58:21Z</time>
      </trkpt>
      <trkpt lat="45.60245" lon="4.57669">
        <ele>747</ele>
        <time>2012-05-12T06:58:22Z</time>
      </trkpt>
      <trkpt lat="45.60244" lon="4.57643">
        <ele>746</ele>
        <time>2012-05-12T06:58:28Z</time>
      </trkpt>
      <trkpt lat="45.60244" lon="4.5764">
        <ele>746</ele>
        <time>2012-05-12T06:58:30Z</time>
      </trkpt>
      <trkpt lat="45.60244" lon="4.57639">
        <ele>746</ele>
        <time>2012-05-12T06:58:31Z</time>
      </trkpt>
      <trkpt lat="45.60243" lon="4.57637">
        <ele>746</ele>
        <time>2012-05-12T06:58:32Z</time>
      </trkpt>
      <trkpt lat="45.60243" lon="4.57636">
        <ele>745</ele>
        <time>2012-05-12T06:58:38Z</time>
      </trkpt>
      <trkpt lat="45.60243" lon="4.57636">
        <ele>746</ele>
        <time>2012-05-12T06:58:49Z</time>
      </trkpt>
      <trkpt lat="45.60243" lon="4.57636">
        <ele>746</ele>
        <time>2012-05-12T06:59:02Z</time>
      </trkpt>
      <trkpt lat="45.60243" lon="4.57635">
        <ele>746</ele>
        <time>2012-05-12T06:59:12Z</time>
      </trkpt>
      <trkpt lat="45.60243" lon="4.57636">
        <ele>746</ele>
        <time>2012-05-12T06:59:25Z</time>
      </trkpt>
      <trkpt lat="45.60243" lon="4.57636">
        <ele>746</ele>
        <time>2012-05-12T06:59:42Z</time>
      </trkpt>
      <trkpt lat="45.60243" lon="4.57635">
        <ele>745</ele>
        <time>2012-05-12T06:59:55Z</time>
      </trkpt>
      <trkpt lat="45.60244" lon="4.57636">
        <ele>746</ele>
        <time>2012-05-12T07:00:06Z</time>
      </trkpt>
      <trkpt lat="45.60243" lon="4.57636">
        <ele>746</ele>
        <time>2012-05-12T07:00:12Z</time>
      </trkpt>
      <trkpt lat="45.60236" lon="4.57628">
        <ele>745</ele>
        <time>2012-05-12T07:00:17Z</time>
      </trkpt>
      <trkpt lat="45.60228" lon="4.57621">
        <ele>745</ele>
        <time>2012-05-12T07:00:19Z</time>
      </trkpt>
      <trkpt lat="45.60222" lon="4.57617">
        <ele>744</ele>
        <time>2012-05-12T07:00:20Z</time>
      </trkpt>
      <trkpt lat="45.60204" lon="4.57602">
        <ele>742</ele>
        <time>2012-05-12T07:00:23Z</time>
      </trkpt>
      <trkpt lat="45.60176" lon="4.57563">
        <ele>739</ele>
        <time>2012-05-12T07:00:28Z</time>
      </trkpt>
      <trkpt lat="45.6017" lon="4.57555">
        <ele>739</ele>
        <time>2012-05-12T07:00:29Z</time>
      </trkpt>
      <trkpt lat="45.6016" lon="4.57538">
        <ele>737</ele>
        <time>2012-05-12T07:00:31Z</time>
      </trkpt>
      <trkpt lat="45.6014" lon="4.57497">
        <ele>734</ele>
        <time>2012-05-12T07:00:35Z</time>
      </trkpt>
      <trkpt lat="45.60123" lon="4.57456">
        <ele>732</ele>
        <time>2012-05-12T07:00:39Z</time>
      </trkpt>
      <trkpt lat="45.6012" lon="4.57445">
        <ele>732</ele>
        <time>2012-05-12T07:00:40Z</time>
      </trkpt>
      <trkpt lat="45.60112" lon="4.57416">
        <ele>729</ele>
        <time>2012-05-12T07:00:43Z</time>
      </trkpt>
      <trkpt lat="45.601" lon="4.57386">
        <ele>726</ele>
        <time>2012-05-12T07:00:46Z</time>
      </trkpt>
      <trkpt lat="45.60095" lon="4.57375">
        <ele>724</ele>
        <time>2012-05-12T07:00:47Z</time>
      </trkpt>
      <trkpt lat="45.6009" lon="4.57363">
        <ele>723</ele>
        <time>2012-05-12T07:00:48Z</time>
      </trkpt>
      <trkpt lat="45.6008" lon="4.57337">
        <ele>719</ele>
        <time>2012-05-12T07:00:50Z</time>
      </trkpt>
      <trkpt lat="45.60065" lon="4.573">
        <ele>714</ele>
        <time>2012-05-12T07:00:53Z</time>
      </trkpt>
      <trkpt lat="45.60062" lon="4.57288">
        <ele>712</ele>
        <time>2012-05-12T07:00:54Z</time>
      </trkpt>
      <trkpt lat="45.6006" lon="4.57276">
        <ele>711</ele>
        <time>2012-05-12T07:00:55Z</time>
      </trkpt>
      <trkpt lat="45.60059" lon="4.57263">
        <ele>711</ele>
        <time>2012-05-12T07:00:56Z</time>
      </trkpt>
      <trkpt lat="45.60058" lon="4.5725">
        <ele>710</ele>
        <time>2012-05-12T07:00:57Z</time>
      </trkpt>
      <trkpt lat="45.60057" lon="4.57238">
        <ele>709</ele>
        <time>2012-05-12T07:00:58Z</time>
      </trkpt>
      <trkpt lat="45.60055" lon="4.57227">
        <ele>708</ele>
        <time>2012-05-12T07:00:59Z</time>
      </trkpt>
      <trkpt lat="45.60052" lon="4.57216">
        <ele>708</ele>
        <time>2012-05-12T07:01:00Z</time>
      </trkpt>
      <trkpt lat="45.60049" lon="4.57203">
        <ele>707</ele>
        <time>2012-05-12T07:01:01Z</time>
      </trkpt>
      <trkpt lat="45.60044" lon="4.57191">
        <ele>707</ele>
        <time>2012-05-12T07:01:02Z</time>
      </trkpt>
      <trkpt lat="45.60023" lon="4.57144">
        <ele>702</ele>
        <time>2012-05-12T07:01:06Z</time>
      </trkpt>
      <trkpt lat="45.60008" lon="4.57115">
        <ele>699</ele>
        <time>2012-05-12T07:01:09Z</time>
      </trkpt>
      <trkpt lat="45.59994" lon="4.57082">
        <ele>696</ele>
        <time>2012-05-12T07:01:13Z</time>
      </trkpt>
      <trkpt lat="45.59991" lon="4.57075">
        <ele>696</ele>
        <time>2012-05-12T07:01:14Z</time>
      </trkpt>
      <trkpt lat="45.59989" lon="4.57069">
        <ele>695</ele>
        <time>2012-05-12T07:01:15Z</time>
      </trkpt>
      <trkpt lat="45.59986" lon="4.57065">
        <ele>694</ele>
        <time>2012-05-12T07:01:16Z</time>
      </trkpt>
      <trkpt lat="45.59984" lon="4.57061">
        <ele>693</ele>
        <time>2012-05-12T07:01:17Z</time>
      </trkpt>
      <trkpt lat="45.59982" lon="4.57059">
        <ele>693</ele>
        <time>2012-05-12T07:01:18Z</time>
      </trkpt>
      <trkpt lat="45.59974" lon="4.57054">
        <ele>691</ele>
        <time>2012-05-12T07:01:23Z</time>
      </trkpt>
      <trkpt lat="45.59969" lon="4.57053">
        <ele>690</ele>
        <time>2012-05-12T07:01:25Z</time>
      </trkpt>
      <trkpt lat="45.59966" lon="4.57053">
        <ele>689</ele>
        <time>2012-05-12T07:01:26Z</time>
      </trkpt>
      <trkpt lat="45.59963" lon="4.57051">
        <ele>689</ele>
        <time>2012-05-12T07:01:27Z</time>
      </trkpt>
      <trkpt lat="45.5996" lon="4.57049">
        <ele>689</ele>
        <time>2012-05-12T07:01:28Z</time>
      </trkpt>
      <trkpt lat="45.59957" lon="4.57046">
        <ele>689</ele>
        <time>2012-05-12T07:01:29Z</time>
      </trkpt>
      <trkpt lat="45.59955" lon="4.57042">
        <ele>688</ele>
        <time>2012-05-12T07:01:30Z</time>
      </trkpt>
      <trkpt lat="45.59953" lon="4.57038">
        <ele>688</ele>
        <time>2012-05-12T07:01:31Z</time>
      </trkpt>
      <trkpt lat="45.59952" lon="4.57033">
        <ele>688</ele>
        <time>2012-05-12T07:01:32Z</time>
      </trkpt>
      <trkpt lat="45.59951" lon="4.57029">
        <ele>689</ele>
        <time>2012-05-12T07:01:33Z</time>
      </trkpt>
      <trkpt lat="45.59949" lon="4.57025">
        <ele>689</ele>
        <time>2012-05-12T07:01:34Z</time>
      </trkpt>
      <trkpt lat="45.59948" lon="4.57022">
        <ele>689</ele>
        <time>2012-05-12T07:01:35Z</time>
      </trkpt>
      <trkpt lat="45.59946" lon="4.57022">
        <ele>689</ele>
        <time>2012-05-12T07:01:36Z</time>
      </trkpt>
      <trkpt lat="45.59943" lon="4.57024">
        <ele>688</ele>
        <time>2012-05-12T07:01:37Z</time>
      </trkpt>
      <trkpt lat="45.5994" lon="4.57027">
        <ele>688</ele>
        <time>2012-05-12T07:01:38Z</time>
      </trkpt>
      <trkpt lat="45.59936" lon="4.57031">
        <ele>688</ele>
        <time>2012-05-12T07:01:39Z</time>
      </trkpt>
      <trkpt lat="45.59933" lon="4.57035">
        <ele>688</ele>
        <time>2012-05-12T07:01:40Z</time>
      </trkpt>
      <trkpt lat="45.59924" lon="4.57047">
        <ele>687</ele>
        <time>2012-05-12T07:01:43Z</time>
      </trkpt>
      <trkpt lat="45.59916" lon="4.57056">
        <ele>687</ele>
        <time>2012-05-12T07:01:45Z</time>
      </trkpt>
      <trkpt lat="45.59912" lon="4.57062">
        <ele>687</ele>
        <time>2012-05-12T07:01:46Z</time>
      </trkpt>
      <trkpt lat="45.59908" lon="4.57066">
        <ele>687</ele>
        <time>2012-05-12T07:01:47Z</time>
      </trkpt>
      <trkpt lat="45.59903" lon="4.5707">
        <ele>687</ele>
        <time>2012-05-12T07:01:48Z</time>
      </trkpt>
      <trkpt lat="45.59898" lon="4.57073">
        <ele>686</ele>
        <time>2012-05-12T07:01:49Z</time>
      </trkpt>
      <trkpt lat="45.59894" lon="4.57075">
        <ele>686</ele>
        <time>2012-05-12T07:01:50Z</time>
      </trkpt>
      <trkpt lat="45.59889" lon="4.57077">
        <ele>686</ele>
        <time>2012-05-12T07:01:51Z</time>
      </trkpt>
      <trkpt lat="45.59884" lon="4.57078">
        <ele>686</ele>
        <time>2012-05-12T07:01:52Z</time>
      </trkpt>
      <trkpt lat="45.5986" lon="4.57082">
        <ele>686</ele>
        <time>2012-05-12T07:01:57Z</time>
      </trkpt>
      <trkpt lat="45.59845" lon="4.57088">
        <ele>684</ele>
        <time>2012-05-12T07:02:00Z</time>
      </trkpt>
      <trkpt lat="45.59805" lon="4.57112">
        <ele>683</ele>
        <time>2012-05-12T07:02:08Z</time>
      </trkpt>
      <trkpt lat="45.59795" lon="4.57116">
        <ele>682</ele>
        <time>2012-05-12T07:02:10Z</time>
      </trkpt>
      <trkpt lat="45.5979" lon="4.57117">
        <ele>683</ele>
        <time>2012-05-12T07:02:11Z</time>
      </trkpt>
      <trkpt lat="45.59757" lon="4.57115">
        <ele>683</ele>
        <time>2012-05-12T07:02:18Z</time>
      </trkpt>
      <trkpt lat="45.59728" lon="4.57111">
        <ele>683</ele>
        <time>2012-05-12T07:02:26Z</time>
      </trkpt>
      <trkpt lat="45.59697" lon="4.57103">
        <ele>684</ele>
        <time>2012-05-12T07:02:35Z</time>
      </trkpt>
      <trkpt lat="45.59669" lon="4.57102">
        <ele>686</ele>
        <time>2012-05-12T07:02:43Z</time>
      </trkpt>
      <trkpt lat="45.59646" lon="4.57103">
        <ele>686</ele>
        <time>2012-05-12T07:02:50Z</time>
      </trkpt>
      <trkpt lat="45.59622" lon="4.57105">
        <ele>687</ele>
        <time>2012-05-12T07:02:57Z</time>
      </trkpt>
      <trkpt lat="45.59591" lon="4.57104">
        <ele>688</ele>
        <time>2012-05-12T07:03:06Z</time>
      </trkpt>
      <trkpt lat="45.5957" lon="4.57102">
        <ele>689</ele>
        <time>2012-05-12T07:03:13Z</time>
      </trkpt>
      <trkpt lat="45.59538" lon="4.57096">
        <ele>692</ele>
        <time>2012-05-12T07:03:25Z</time>
      </trkpt>
      <trkpt lat="45.59518" lon="4.57091">
        <ele>694</ele>
        <time>2012-05-12T07:03:34Z</time>
      </trkpt>
      <trkpt lat="45.59497" lon="4.57085">
        <ele>696</ele>
        <time>2012-05-12T07:03:44Z</time>
      </trkpt>
      <trkpt lat="45.59482" lon="4.57085">
        <ele>698</ele>
        <time>2012-05-12T07:03:51Z</time>
      </trkpt>
      <trkpt lat="45.59468" lon="4.57091">
        <ele>698</ele>
        <time>2012-05-12T07:03:58Z</time>
      </trkpt>
      <trkpt lat="45.59455" lon="4.57102">
        <ele>699</ele>
        <time>2012-05-12T07:04:05Z</time>
      </trkpt>
      <trkpt lat="45.5944" lon="4.57113">
        <ele>700</ele>
        <time>2012-05-12T07:04:14Z</time>
      </trkpt>
      <trkpt lat="45.59425" lon="4.57116">
        <ele>702</ele>
        <time>2012-05-12T07:04:24Z</time>
      </trkpt>
      <trkpt lat="45.59419" lon="4.57115">
        <ele>703</ele>
        <time>2012-05-12T07:04:28Z</time>
      </trkpt>
      <trkpt lat="45.59413" lon="4.57103">
        <ele>705</ele>
        <time>2012-05-12T07:04:36Z</time>
      </trkpt>
      <trkpt lat="45.59411" lon="4.5709">
        <ele>708</ele>
        <time>2012-05-12T07:04:43Z</time>
      </trkpt>
      <trkpt lat="45.59411" lon="4.57075">
        <ele>710</ele>
        <time>2012-05-12T07:04:50Z</time>
      </trkpt>
      <trkpt lat="45.59411" lon="4.57073">
        <ele>710</ele>
        <time>2012-05-12T07:04:51Z</time>
      </trkpt>
      <trkpt lat="45.59405" lon="4.57057">
        <ele>712</ele>
        <time>2012-05-12T07:05:00Z</time>
      </trkpt>
      <trkpt lat="45.59404" lon="4.57055">
        <ele>712</ele>
        <time>2012-05-12T07:05:01Z</time>
      </trkpt>
      <trkpt lat="45.59395" lon="4.57044">
        <ele>715</ele>
        <time>2012-05-12T07:05:09Z</time>
      </trkpt>
      <trkpt lat="45.59384" lon="4.57035">
        <ele>716</ele>
        <time>2012-05-12T07:05:16Z</time>
      </trkpt>
      <trkpt lat="45.59377" lon="4.57029">
        <ele>717</ele>
        <time>2012-05-12T07:05:21Z</time>
      </trkpt>
      <trkpt lat="45.59375" lon="4.57026">
        <ele>717</ele>
        <time>2012-05-12T07:05:23Z</time>
      </trkpt>
      <trkpt lat="45.59366" lon="4.57014">
        <ele>719</ele>
        <time>2012-05-12T07:05:31Z</time>
      </trkpt>
      <trkpt lat="45.59358" lon="4.57007">
        <ele>720</ele>
        <time>2012-05-12T07:05:39Z</time>
      </trkpt>
      <trkpt lat="45.59353" lon="4.56999">
        <ele>719</ele>
        <time>2012-05-12T07:05:46Z</time>
      </trkpt>
      <trkpt lat="45.59352" lon="4.56996">
        <ele>719</ele>
        <time>2012-05-12T07:05:52Z</time>
      </trkpt>
      <trkpt lat="45.5934" lon="4.56979">
        <ele>718</ele>
        <time>2012-05-12T07:05:58Z</time>
      </trkpt>
      <trkpt lat="45.59326" lon="4.56956">
        <ele>717</ele>
        <time>2012-05-12T07:06:04Z</time>
      </trkpt>
      <trkpt lat="45.59312" lon="4.56933">
        <ele>716</ele>
        <time>2012-05-12T07:06:09Z</time>
      </trkpt>
      <trkpt lat="45.59291" lon="4.5689">
        <ele>715</ele>
        <time>2012-05-12T07:06:16Z</time>
      </trkpt>
      <trkpt lat="45.59285" lon="4.56879">
        <ele>714</ele>
        <time>2012-05-12T07:06:18Z</time>
      </trkpt>
      <trkpt lat="45.59277" lon="4.56861">
        <ele>714</ele>
        <time>2012-05-12T07:06:21Z</time>
      </trkpt>
      <trkpt lat="45.59277" lon="4.56856">
        <ele>714</ele>
        <time>2012-05-12T07:06:22Z</time>
      </trkpt>
      <trkpt lat="45.59281" lon="4.56833">
        <ele>714</ele>
        <time>2012-05-12T07:06:27Z</time>
      </trkpt>
      <trkpt lat="45.59281" lon="4.56829">
        <ele>714</ele>
        <time>2012-05-12T07:06:28Z</time>
      </trkpt>
      <trkpt lat="45.5928" lon="4.56824">
        <ele>714</ele>
        <time>2012-05-12T07:06:29Z</time>
      </trkpt>
      <trkpt lat="45.5928" lon="4.56803">
        <ele>713</ele>
        <time>2012-05-12T07:06:34Z</time>
      </trkpt>
      <trkpt lat="45.5928" lon="4.56779">
        <ele>714</ele>
        <time>2012-05-12T07:06:40Z</time>
      </trkpt>
      <trkpt lat="45.59278" lon="4.56774">
        <ele>714</ele>
        <time>2012-05-12T07:06:42Z</time>
      </trkpt>
      <trkpt lat="45.59278" lon="4.56771">
        <ele>714</ele>
        <time>2012-05-12T07:06:43Z</time>
      </trkpt>
      <trkpt lat="45.59277" lon="4.56769">
        <ele>714</ele>
        <time>2012-05-12T07:06:44Z</time>
      </trkpt>
      <trkpt lat="45.59277" lon="4.56766">
        <ele>714</ele>
        <time>2012-05-12T07:06:45Z</time>
      </trkpt>
      <trkpt lat="45.59277" lon="4.56764">
        <ele>714</ele>
        <time>2012-05-12T07:06:46Z</time>
      </trkpt>
      <trkpt lat="45.59276" lon="4.56762">
        <ele>714</ele>
        <time>2012-05-12T07:06:47Z</time>
      </trkpt>
      <trkpt lat="45.59269" lon="4.56739">
        <ele>715</ele>
        <time>2012-05-12T07:06:52Z</time>
      </trkpt>
      <trkpt lat="45.59262" lon="4.56717">
        <ele>715</ele>
        <time>2012-05-12T07:06:58Z</time>
      </trkpt>
      <trkpt lat="45.59251" lon="4.56695">
        <ele>716</ele>
        <time>2012-05-12T07:07:04Z</time>
      </trkpt>
      <trkpt lat="45.59235" lon="4.56673">
        <ele>716</ele>
        <time>2012-05-12T07:07:11Z</time>
      </trkpt>
      <trkpt lat="45.59218" lon="4.56658">
        <ele>716</ele>
        <time>2012-05-12T07:07:17Z</time>
      </trkpt>
      <trkpt lat="45.59205" lon="4.56648">
        <ele>716</ele>
        <time>2012-05-12T07:07:22Z</time>
      </trkpt>
      <trkpt lat="45.5919" lon="4.56633">
        <ele>716</ele>
        <time>2012-05-12T07:07:28Z</time>
      </trkpt>
      <trkpt lat="45.59175" lon="4.56616">
        <ele>716</ele>
        <time>2012-05-12T07:07:33Z</time>
      </trkpt>
      <trkpt lat="45.59158" lon="4.56603">
        <ele>715</ele>
        <time>2012-05-12T07:07:38Z</time>
      </trkpt>
      <trkpt lat="45.59151" lon="4.56597">
        <ele>717</ele>
        <time>2012-05-12T07:07:41Z</time>
      </trkpt>
      <trkpt lat="45.5915" lon="4.56598">
        <ele>717</ele>
        <time>2012-05-12T07:07:42Z</time>
      </trkpt>
      <trkpt lat="45.59148" lon="4.56598">
        <ele>717</ele>
        <time>2012-05-12T07:07:43Z</time>
      </trkpt>
      <trkpt lat="45.59135" lon="4.56594">
        <ele>719</ele>
        <time>2012-05-12T07:07:50Z</time>
      </trkpt>
      <trkpt lat="45.59124" lon="4.56591">
        <ele>721</ele>
        <time>2012-05-12T07:07:55Z</time>
      </trkpt>
      <trkpt lat="45.59123" lon="4.5659">
        <ele>721</ele>
        <time>2012-05-12T07:07:56Z</time>
      </trkpt>
      <trkpt lat="45.59109" lon="4.56588">
        <ele>722</ele>
        <time>2012-05-12T07:08:02Z</time>
      </trkpt>
      <trkpt lat="45.59098" lon="4.56588">
        <ele>722</ele>
        <time>2012-05-12T07:08:08Z</time>
      </trkpt>
      <trkpt lat="45.59096" lon="4.56589">
        <ele>722</ele>
        <time>2012-05-12T07:08:09Z</time>
      </trkpt>
      <trkpt lat="45.59094" lon="4.56589">
        <ele>723</ele>
        <time>2012-05-12T07:08:10Z</time>
      </trkpt>
      <trkpt lat="45.59079" lon="4.56585">
        <ele>724</ele>
        <time>2012-05-12T07:08:17Z</time>
      </trkpt>
      <trkpt lat="45.5907" lon="4.56584">
        <ele>725</ele>
        <time>2012-05-12T07:08:21Z</time>
      </trkpt>
      <trkpt lat="45.59068" lon="4.56585">
        <ele>724</ele>
        <time>2012-05-12T07:08:22Z</time>
      </trkpt>
      <trkpt lat="45.59066" lon="4.56585">
        <ele>724</ele>
        <time>2012-05-12T07:08:23Z</time>
      </trkpt>
      <trkpt lat="45.59053" lon="4.56584">
        <ele>725</ele>
        <time>2012-05-12T07:08:29Z</time>
      </trkpt>
      <trkpt lat="45.59039" lon="4.56588">
        <ele>726</ele>
        <time>2012-05-12T07:08:36Z</time>
      </trkpt>
      <trkpt lat="45.5903" lon="4.56588">
        <ele>728</ele>
        <time>2012-05-12T07:08:41Z</time>
      </trkpt>
      <trkpt lat="45.59028" lon="4.56587">
        <ele>727</ele>
        <time>2012-05-12T07:08:42Z</time>
      </trkpt>
      <trkpt lat="45.59025" lon="4.56586">
        <ele>727</ele>
        <time>2012-05-12T07:08:43Z</time>
      </trkpt>
      <trkpt lat="45.59023" lon="4.56586">
        <ele>728</ele>
        <time>2012-05-12T07:08:44Z</time>
      </trkpt>
      <trkpt lat="45.5902" lon="4.56586">
        <ele>728</ele>
        <time>2012-05-12T07:08:46Z</time>
      </trkpt>
      <trkpt lat="45.59018" lon="4.56586">
        <ele>728</ele>
        <time>2012-05-12T07:08:47Z</time>
      </trkpt>
      <trkpt lat="45.59015" lon="4.56586">
        <ele>728</ele>
        <time>2012-05-12T07:08:48Z</time>
      </trkpt>
      <trkpt lat="45.59003" lon="4.56581">
        <ele>729</ele>
        <time>2012-05-12T07:08:54Z</time>
      </trkpt>
      <trkpt lat="45.59001" lon="4.5658">
        <ele>729</ele>
        <time>2012-05-12T07:08:55Z</time>
      </trkpt>
      <trkpt lat="45.58998" lon="4.56579">
        <ele>730</ele>
        <time>2012-05-12T07:08:56Z</time>
      </trkpt>
      <trkpt lat="45.58996" lon="4.56579">
        <ele>729</ele>
        <time>2012-05-12T07:08:57Z</time>
      </trkpt>
      <trkpt lat="45.58994" lon="4.56577">
        <ele>730</ele>
        <time>2012-05-12T07:08:58Z</time>
      </trkpt>
      <trkpt lat="45.58976" lon="4.56563">
        <ele>731</ele>
        <time>2012-05-12T07:09:04Z</time>
      </trkpt>
      <trkpt lat="45.58966" lon="4.56559">
        <ele>731</ele>
        <time>2012-05-12T07:09:09Z</time>
      </trkpt>
      <trkpt lat="45.5896" lon="4.56558">
        <ele>731</ele>
        <time>2012-05-12T07:09:12Z</time>
      </trkpt>
      <trkpt lat="45.58958" lon="4.56557">
        <ele>731</ele>
        <time>2012-05-12T07:09:13Z</time>
      </trkpt>
      <trkpt lat="45.58956" lon="4.56557">
        <ele>731</ele>
        <time>2012-05-12T07:09:14Z</time>
      </trkpt>
      <trkpt lat="45.58954" lon="4.56557">
        <ele>731</ele>
        <time>2012-05-12T07:09:15Z</time>
      </trkpt>
      <trkpt lat="45.58952" lon="4.56558">
        <ele>732</ele>
        <time>2012-05-12T07:09:16Z</time>
      </trkpt>
      <trkpt lat="45.5895" lon="4.56558">
        <ele>731</ele>
        <time>2012-05-12T07:09:17Z</time>
      </trkpt>
      <trkpt lat="45.58948" lon="4.56557">
        <ele>732</ele>
        <time>2012-05-12T07:09:18Z</time>
      </trkpt>
      <trkpt lat="45.58946" lon="4.56556">
        <ele>732</ele>
        <time>2012-05-12T07:09:19Z</time>
      </trkpt>
      <trkpt lat="45.58944" lon="4.56556">
        <ele>732</ele>
        <time>2012-05-12T07:09:20Z</time>
      </trkpt>
      <trkpt lat="45.58941" lon="4.56556">
        <ele>732</ele>
        <time>2012-05-12T07:09:21Z</time>
      </trkpt>
      <trkpt lat="45.58939" lon="4.56556">
        <ele>732</ele>
        <time>2012-05-12T07:09:22Z</time>
      </trkpt>
      <trkpt lat="45.58927" lon="4.56555">
        <ele>733</ele>
        <time>2012-05-12T07:09:28Z</time>
      </trkpt>
      <trkpt lat="45.58911" lon="4.56553">
        <ele>735</ele>
        <time>2012-05-12T07:09:35Z</time>
      </trkpt>
      <trkpt lat="45.58909" lon="4.56553">
        <ele>735</ele>
        <time>2012-05-12T07:09:36Z</time>
      </trkpt>
      <trkpt lat="45.58907" lon="4.56553">
        <ele>735</ele>
        <time>2012-05-12T07:09:37Z</time>
      </trkpt>
      <trkpt lat="45.58905" lon="4.56553">
        <ele>735</ele>
        <time>2012-05-12T07:09:38Z</time>
      </trkpt>
      <trkpt lat="45.58892" lon="4.56554">
        <ele>736</ele>
        <time>2012-05-12T07:09:45Z</time>
      </trkpt>
      <trkpt lat="45.58889" lon="4.56554">
        <ele>736</ele>
        <time>2012-05-12T07:09:47Z</time>
      </trkpt>
      <trkpt lat="45.58887" lon="4.56553">
        <ele>736</ele>
        <time>2012-05-12T07:09:48Z</time>
      </trkpt>
      <trkpt lat="45.58886" lon="4.56553">
        <ele>736</ele>
        <time>2012-05-12T07:09:49Z</time>
      </trkpt>
      <trkpt lat="45.58883" lon="4.56552">
        <ele>737</ele>
        <time>2012-05-12T07:09:51Z</time>
      </trkpt>
      <trkpt lat="45.58868" lon="4.56555">
        <ele>738</ele>
        <time>2012-05-12T07:09:57Z</time>
      </trkpt>
      <trkpt lat="45.58855" lon="4.56558">
        <ele>739</ele>
        <time>2012-05-12T07:10:03Z</time>
      </trkpt>
      <trkpt lat="45.58853" lon="4.5656">
        <ele>739</ele>
        <time>2012-05-12T07:10:04Z</time>
      </trkpt>
      <trkpt lat="45.58841" lon="4.56563">
        <ele>740</ele>
        <time>2012-05-12T07:10:11Z</time>
      </trkpt>
      <trkpt lat="45.58839" lon="4.56562">
        <ele>740</ele>
        <time>2012-05-12T07:10:12Z</time>
      </trkpt>
      <trkpt lat="45.58837" lon="4.56563">
        <ele>740</ele>
        <time>2012-05-12T07:10:13Z</time>
      </trkpt>
      <trkpt lat="45.58824" lon="4.56561">
        <ele>741</ele>
        <time>2012-05-12T07:10:19Z</time>
      </trkpt>
      <trkpt lat="45.58816" lon="4.56562">
        <ele>742</ele>
        <time>2012-05-12T07:10:22Z</time>
      </trkpt>
      <trkpt lat="45.58811" lon="4.56562">
        <ele>742</ele>
        <time>2012-05-12T07:10:24Z</time>
      </trkpt>
      <trkpt lat="45.58808" lon="4.56561">
        <ele>742</ele>
        <time>2012-05-12T07:10:25Z</time>
      </trkpt>
      <trkpt lat="45.58804" lon="4.5656">
        <ele>742</ele>
        <time>2012-05-12T07:10:27Z</time>
      </trkpt>
      <trkpt lat="45.58802" lon="4.56561">
        <ele>742</ele>
        <time>2012-05-12T07:10:28Z</time>
      </trkpt>
      <trkpt lat="45.588" lon="4.5656">
        <ele>742</ele>
        <time>2012-05-12T07:10:29Z</time>
      </trkpt>
      <trkpt lat="45.58798" lon="4.5656">
        <ele>742</ele>
        <time>2012-05-12T07:10:30Z</time>
      </trkpt>
      <trkpt lat="45.58795" lon="4.56559">
        <ele>743</ele>
        <time>2012-05-12T07:10:31Z</time>
      </trkpt>
      <trkpt lat="45.58793" lon="4.56558">
        <ele>743</ele>
        <time>2012-05-12T07:10:32Z</time>
      </trkpt>
      <trkpt lat="45.5879" lon="4.56558">
        <ele>743</ele>
        <time>2012-05-12T07:10:33Z</time>
      </trkpt>
      <trkpt lat="45.58787" lon="4.56557">
        <ele>743</ele>
        <time>2012-05-12T07:10:34Z</time>
      </trkpt>
      <trkpt lat="45.58769" lon="4.56555">
        <ele>744</ele>
        <time>2012-05-12T07:10:41Z</time>
      </trkpt>
      <trkpt lat="45.58755" lon="4.56551">
        <ele>745</ele>
        <time>2012-05-12T07:10:46Z</time>
      </trkpt>
      <trkpt lat="45.58753" lon="4.56551">
        <ele>744</ele>
        <time>2012-05-12T07:10:47Z</time>
      </trkpt>
      <trkpt lat="45.5875" lon="4.56551">
        <ele>745</ele>
        <time>2012-05-12T07:10:48Z</time>
      </trkpt>
      <trkpt lat="45.58747" lon="4.5655">
        <ele>745</ele>
        <time>2012-05-12T07:10:49Z</time>
      </trkpt>
      <trkpt lat="45.58745" lon="4.5655">
        <ele>745</ele>
        <time>2012-05-12T07:10:50Z</time>
      </trkpt>
      <trkpt lat="45.58743" lon="4.5655">
        <ele>745</ele>
        <time>2012-05-12T07:10:51Z</time>
      </trkpt>
      <trkpt lat="45.58741" lon="4.5655">
        <ele>746</ele>
        <time>2012-05-12T07:10:52Z</time>
      </trkpt>
      <trkpt lat="45.58739" lon="4.5655">
        <ele>746</ele>
        <time>2012-05-12T07:10:53Z</time>
      </trkpt>
      <trkpt lat="45.58737" lon="4.56549">
        <ele>746</ele>
        <time>2012-05-12T07:10:54Z</time>
      </trkpt>
      <trkpt lat="45.58735" lon="4.56549">
        <ele>746</ele>
        <time>2012-05-12T07:10:55Z</time>
      </trkpt>
      <trkpt lat="45.58733" lon="4.56549">
        <ele>746</ele>
        <time>2012-05-12T07:10:56Z</time>
      </trkpt>
      <trkpt lat="45.5873" lon="4.56549">
        <ele>746</ele>
        <time>2012-05-12T07:10:57Z</time>
      </trkpt>
      <trkpt lat="45.58728" lon="4.56549">
        <ele>746</ele>
        <time>2012-05-12T07:10:58Z</time>
      </trkpt>
      <trkpt lat="45.58726" lon="4.56549">
        <ele>746</ele>
        <time>2012-05-12T07:10:59Z</time>
      </trkpt>
      <trkpt lat="45.58724" lon="4.56549">
        <ele>747</ele>
        <time>2012-05-12T07:11:00Z</time>
      </trkpt>
      <trkpt lat="45.58721" lon="4.56549">
        <ele>747</ele>
        <time>2012-05-12T07:11:01Z</time>
      </trkpt>
      <trkpt lat="45.58719" lon="4.56549">
        <ele>747</ele>
        <time>2012-05-12T07:11:02Z</time>
      </trkpt>
      <trkpt lat="45.58717" lon="4.56549">
        <ele>747</ele>
        <time>2012-05-12T07:11:03Z</time>
      </trkpt>
      <trkpt lat="45.58715" lon="4.56549">
        <ele>747</ele>
        <time>2012-05-12T07:11:04Z</time>
      </trkpt>
      <trkpt lat="45.58712" lon="4.56549">
        <ele>747</ele>
        <time>2012-05-12T07:11:05Z</time>
      </trkpt>
      <trkpt lat="45.58708" lon="4.5655">
        <ele>747</ele>
        <time>2012-05-12T07:11:07Z</time>
      </trkpt>
      <trkpt lat="45.58706" lon="4.5655">
        <ele>747</ele>
        <time>2012-05-12T07:11:08Z</time>
      </trkpt>
      <trkpt lat="45.58703" lon="4.5655">
        <ele>747</ele>
        <time>2012-05-12T07:11:10Z</time>
      </trkpt>
      <trkpt lat="45.587" lon="4.56548">
        <ele>748</ele>
        <time>2012-05-12T07:11:11Z</time>
      </trkpt>
      <trkpt lat="45.58698" lon="4.56547">
        <ele>747</ele>
        <time>2012-05-12T07:11:12Z</time>
      </trkpt>
      <trkpt lat="45.58696" lon="4.56546">
        <ele>748</ele>
        <time>2012-05-12T07:11:13Z</time>
      </trkpt>
      <trkpt lat="45.58694" lon="4.56546">
        <ele>748</ele>
        <time>2012-05-12T07:11:14Z</time>
      </trkpt>
      <trkpt lat="45.58691" lon="4.56545">
        <ele>748</ele>
        <time>2012-05-12T07:11:16Z</time>
      </trkpt>
      <trkpt lat="45.58689" lon="4.56545">
        <ele>748</ele>
        <time>2012-05-12T07:11:17Z</time>
      </trkpt>
      <trkpt lat="45.58681" lon="4.56543">
        <ele>748</ele>
        <time>2012-05-12T07:11:22Z</time>
      </trkpt>
      <trkpt lat="45.58668" lon="4.56537">
        <ele>748</ele>
        <time>2012-05-12T07:11:27Z</time>
      </trkpt>
      <trkpt lat="45.58665" lon="4.56536">
        <ele>749</ele>
        <time>2012-05-12T07:11:28Z</time>
      </trkpt>
      <trkpt lat="45.58655" lon="4.56534">
        <ele>749</ele>
        <time>2012-05-12T07:11:34Z</time>
      </trkpt>
      <trkpt lat="45.58642" lon="4.5653">
        <ele>750</ele>
        <time>2012-05-12T07:11:41Z</time>
      </trkpt>
      <trkpt lat="45.58638" lon="4.56529">
        <ele>750</ele>
        <time>2012-05-12T07:11:43Z</time>
      </trkpt>
      <trkpt lat="45.5863" lon="4.56525">
        <ele>750</ele>
        <time>2012-05-12T07:11:47Z</time>
      </trkpt>
      <trkpt lat="45.58627" lon="4.56524">
        <ele>750</ele>
        <time>2012-05-12T07:11:48Z</time>
      </trkpt>
      <trkpt lat="45.58622" lon="4.56522">
        <ele>752</ele>
        <time>2012-05-12T07:11:50Z</time>
      </trkpt>
      <trkpt lat="45.58617" lon="4.5652">
        <ele>751</ele>
        <time>2012-05-12T07:11:52Z</time>
      </trkpt>
      <trkpt lat="45.58603" lon="4.56511">
        <ele>752</ele>
        <time>2012-05-12T07:11:59Z</time>
      </trkpt>
      <trkpt lat="45.58601" lon="4.5651">
        <ele>752</ele>
        <time>2012-05-12T07:12:00Z</time>
      </trkpt>
      <trkpt lat="45.58598" lon="4.56508">
        <ele>752</ele>
        <time>2012-05-12T07:12:01Z</time>
      </trkpt>
      <trkpt lat="45.58595" lon="4.56506">
        <ele>753</ele>
        <time>2012-05-12T07:12:02Z</time>
      </trkpt>
      <trkpt lat="45.58592" lon="4.56505">
        <ele>753</ele>
        <time>2012-05-12T07:12:03Z</time>
      </trkpt>
      <trkpt lat="45.58589" lon="4.56505">
        <ele>753</ele>
        <time>2012-05-12T07:12:04Z</time>
      </trkpt>
      <trkpt lat="45.58579" lon="4.56501">
        <ele>754</ele>
        <time>2012-05-12T07:12:08Z</time>
      </trkpt>
      <trkpt lat="45.58576" lon="4.565">
        <ele>754</ele>
        <time>2012-05-12T07:12:09Z</time>
      </trkpt>
      <trkpt lat="45.58564" lon="4.56494">
        <ele>755</ele>
        <time>2012-05-12T07:12:14Z</time>
      </trkpt>
      <trkpt lat="45.58552" lon="4.5649">
        <ele>755</ele>
        <time>2012-05-12T07:12:21Z</time>
      </trkpt>
      <trkpt lat="45.5855" lon="4.56489">
        <ele>756</ele>
        <time>2012-05-12T07:12:22Z</time>
      </trkpt>
      <trkpt lat="45.58549" lon="4.56488">
        <ele>756</ele>
        <time>2012-05-12T07:12:23Z</time>
      </trkpt>
      <trkpt lat="45.58542" lon="4.56486">
        <ele>757</ele>
        <time>2012-05-12T07:12:28Z</time>
      </trkpt>
      <trkpt lat="45.58529" lon="4.56479">
        <ele>757</ele>
        <time>2012-05-12T07:12:34Z</time>
      </trkpt>
      <trkpt lat="45.58518" lon="4.56471">
        <ele>758</ele>
        <time>2012-05-12T07:12:39Z</time>
      </trkpt>
      <trkpt lat="45.58516" lon="4.56469">
        <ele>759</ele>
        <time>2012-05-12T07:12:42Z</time>
      </trkpt>
      <trkpt lat="45.58505" lon="4.56457">
        <ele>759</ele>
        <time>2012-05-12T07:12:48Z</time>
      </trkpt>
      <trkpt lat="45.58492" lon="4.56447">
        <ele>760</ele>
        <time>2012-05-12T07:12:54Z</time>
      </trkpt>
      <trkpt lat="45.58479" lon="4.56433">
        <ele>761</ele>
        <time>2012-05-12T07:13:01Z</time>
      </trkpt>
      <trkpt lat="45.58466" lon="4.56417">
        <ele>762</ele>
        <time>2012-05-12T07:13:08Z</time>
      </trkpt>
      <trkpt lat="45.58458" lon="4.56405">
        <ele>763</ele>
        <time>2012-05-12T07:13:14Z</time>
      </trkpt>
      <trkpt lat="45.58452" lon="4.56397">
        <ele>763</ele>
        <time>2012-05-12T07:13:19Z</time>
      </trkpt>
      <trkpt lat="45.58442" lon="4.56382">
        <ele>764</ele>
        <time>2012-05-12T07:13:24Z</time>
      </trkpt>
      <trkpt lat="45.58434" lon="4.56373">
        <ele>765</ele>
        <time>2012-05-12T07:13:29Z</time>
      </trkpt>
      <trkpt lat="45.58422" lon="4.56357">
        <ele>765</ele>
        <time>2012-05-12T07:13:34Z</time>
      </trkpt>
      <trkpt lat="45.58409" lon="4.56342">
        <ele>765</ele>
        <time>2012-05-12T07:13:40Z</time>
      </trkpt>
      <trkpt lat="45.58398" lon="4.56329">
        <ele>766</ele>
        <time>2012-05-12T07:13:45Z</time>
      </trkpt>
      <trkpt lat="45.58388" lon="4.5632">
        <ele>767</ele>
        <time>2012-05-12T07:13:50Z</time>
      </trkpt>
      <trkpt lat="45.58379" lon="4.56313">
        <ele>768</ele>
        <time>2012-05-12T07:13:55Z</time>
      </trkpt>
      <trkpt lat="45.58377" lon="4.56311">
        <ele>768</ele>
        <time>2012-05-12T07:13:56Z</time>
      </trkpt>
      <trkpt lat="45.58375" lon="4.5631">
        <ele>768</ele>
        <time>2012-05-12T07:13:57Z</time>
      </trkpt>
      <trkpt lat="45.58372" lon="4.56307">
        <ele>768</ele>
        <time>2012-05-12T07:13:58Z</time>
      </trkpt>
      <trkpt lat="45.58369" lon="4.56305">
        <ele>768</ele>
        <time>2012-05-12T07:13:59Z</time>
      </trkpt>
      <trkpt lat="45.58367" lon="4.56303">
        <ele>768</ele>
        <time>2012-05-12T07:14:00Z</time>
      </trkpt>
      <trkpt lat="45.58365" lon="4.56302">
        <ele>768</ele>
        <time>2012-05-12T07:14:01Z</time>
      </trkpt>
      <trkpt lat="45.58362" lon="4.563">
        <ele>768</ele>
        <time>2012-05-12T07:14:02Z</time>
      </trkpt>
      <trkpt lat="45.5836" lon="4.56298">
        <ele>768</ele>
        <time>2012-05-12T07:14:03Z</time>
      </trkpt>
      <trkpt lat="45.58346" lon="4.56286">
        <ele>770</ele>
        <time>2012-05-12T07:14:09Z</time>
      </trkpt>
      <trkpt lat="45.5834" lon="4.56282">
        <ele>770</ele>
        <time>2012-05-12T07:14:14Z</time>
      </trkpt>
      <trkpt lat="45.58327" lon="4.5627">
        <ele>771</ele>
        <time>2012-05-12T07:14:21Z</time>
      </trkpt>
      <trkpt lat="45.58325" lon="4.5627">
        <ele>771</ele>
        <time>2012-05-12T07:14:22Z</time>
      </trkpt>
      <trkpt lat="45.58324" lon="4.56268">
        <ele>771</ele>
        <time>2012-05-12T07:14:23Z</time>
      </trkpt>
      <trkpt lat="45.58313" lon="4.56258">
        <ele>772</ele>
        <time>2012-05-12T07:14:31Z</time>
      </trkpt>
      <trkpt lat="45.58307" lon="4.56252">
        <ele>772</ele>
        <time>2012-05-12T07:14:34Z</time>
      </trkpt>
      <trkpt lat="45.58306" lon="4.56249">
        <ele>772</ele>
        <time>2012-05-12T07:14:35Z</time>
      </trkpt>
      <trkpt lat="45.58303" lon="4.56246">
        <ele>772</ele>
        <time>2012-05-12T07:14:36Z</time>
      </trkpt>
      <trkpt lat="45.58301" lon="4.56244">
        <ele>772</ele>
        <time>2012-05-12T07:14:37Z</time>
      </trkpt>
      <trkpt lat="45.583" lon="4.56242">
        <ele>772</ele>
        <time>2012-05-12T07:14:38Z</time>
      </trkpt>
      <trkpt lat="45.58299" lon="4.5624">
        <ele>772</ele>
        <time>2012-05-12T07:14:39Z</time>
      </trkpt>
      <trkpt lat="45.58298" lon="4.56238">
        <ele>772</ele>
        <time>2012-05-12T07:14:40Z</time>
      </trkpt>
      <trkpt lat="45.58295" lon="4.56233">
        <ele>773</ele>
        <time>2012-05-12T07:14:42Z</time>
      </trkpt>
      <trkpt lat="45.58293" lon="4.5623">
        <ele>773</ele>
        <time>2012-05-12T07:14:43Z</time>
      </trkpt>
      <trkpt lat="45.5828" lon="4.56214">
        <ele>773</ele>
        <time>2012-05-12T07:14:51Z</time>
      </trkpt>
      <trkpt lat="45.58272" lon="4.56203">
        <ele>774</ele>
        <time>2012-05-12T07:14:55Z</time>
      </trkpt>
      <trkpt lat="45.5827" lon="4.56198">
        <ele>774</ele>
        <time>2012-05-12T07:14:58Z</time>
      </trkpt>
      <trkpt lat="45.58263" lon="4.56188">
        <ele>774</ele>
        <time>2012-05-12T07:15:03Z</time>
      </trkpt>
      <trkpt lat="45.58261" lon="4.56186">
        <ele>774</ele>
        <time>2012-05-12T07:15:04Z</time>
      </trkpt>
      <trkpt lat="45.58259" lon="4.56183">
        <ele>775</ele>
        <time>2012-05-12T07:15:05Z</time>
      </trkpt>
      <trkpt lat="45.58256" lon="4.56182">
        <ele>774</ele>
        <time>2012-05-12T07:15:07Z</time>
      </trkpt>
      <trkpt lat="45.58254" lon="4.56181">
        <ele>775</ele>
        <time>2012-05-12T07:15:08Z</time>
      </trkpt>
      <trkpt lat="45.58252" lon="4.5618">
        <ele>776</ele>
        <time>2012-05-12T07:15:09Z</time>
      </trkpt>
      <trkpt lat="45.5825" lon="4.56178">
        <ele>776</ele>
        <time>2012-05-12T07:15:10Z</time>
      </trkpt>
      <trkpt lat="45.58247" lon="4.56175">
        <ele>776</ele>
        <time>2012-05-12T07:15:11Z</time>
      </trkpt>
      <trkpt lat="45.58247" lon="4.56173">
        <ele>776</ele>
        <time>2012-05-12T07:15:12Z</time>
      </trkpt>
      <trkpt lat="45.58247" lon="4.5617">
        <ele>776</ele>
        <time>2012-05-12T07:15:13Z</time>
      </trkpt>
      <trkpt lat="45.58247" lon="4.56167">
        <ele>775</ele>
        <time>2012-05-12T07:15:14Z</time>
      </trkpt>
      <trkpt lat="45.58246" lon="4.56164">
        <ele>776</ele>
        <time>2012-05-12T07:15:15Z</time>
      </trkpt>
      <trkpt lat="45.58244" lon="4.56162">
        <ele>776</ele>
        <time>2012-05-12T07:15:16Z</time>
      </trkpt>
      <trkpt lat="45.58242" lon="4.5616">
        <ele>776</ele>
        <time>2012-05-12T07:15:17Z</time>
      </trkpt>
      <trkpt lat="45.58234" lon="4.56148">
        <ele>776</ele>
        <time>2012-05-12T07:15:22Z</time>
      </trkpt>
      <trkpt lat="45.58228" lon="4.56133">
        <ele>777</ele>
        <time>2012-05-12T07:15:29Z</time>
      </trkpt>
      <trkpt lat="45.58228" lon="4.56131">
        <ele>777</ele>
        <time>2012-05-12T07:15:30Z</time>
      </trkpt>
      <trkpt lat="45.58227" lon="4.56127">
        <ele>778</ele>
        <time>2012-05-12T07:15:31Z</time>
      </trkpt>
      <trkpt lat="45.58226" lon="4.56125">
        <ele>778</ele>
        <time>2012-05-12T07:15:32Z</time>
      </trkpt>
      <trkpt lat="45.58225" lon="4.56122">
        <ele>777</ele>
        <time>2012-05-12T07:15:33Z</time>
      </trkpt>
      <trkpt lat="45.58223" lon="4.56119">
        <ele>778</ele>
        <time>2012-05-12T07:15:34Z</time>
      </trkpt>
      <trkpt lat="45.58222" lon="4.56116">
        <ele>778</ele>
        <time>2012-05-12T07:15:35Z</time>
      </trkpt>
      <trkpt lat="45.58221" lon="4.56113">
        <ele>778</ele>
        <time>2012-05-12T07:15:36Z</time>
      </trkpt>
      <trkpt lat="45.5822" lon="4.56109">
        <ele>778</ele>
        <time>2012-05-12T07:15:37Z</time>
      </trkpt>
      <trkpt lat="45.58219" lon="4.56106">
        <ele>778</ele>
        <time>2012-05-12T07:15:38Z</time>
      </trkpt>
      <trkpt lat="45.58218" lon="4.56102">
        <ele>778</ele>
        <time>2012-05-12T07:15:39Z</time>
      </trkpt>
      <trkpt lat="45.58216" lon="4.561">
        <ele>779</ele>
        <time>2012-05-12T07:15:40Z</time>
      </trkpt>
      <trkpt lat="45.58215" lon="4.56097">
        <ele>778</ele>
        <time>2012-05-12T07:15:41Z</time>
      </trkpt>
      <trkpt lat="45.58214" lon="4.56095">
        <ele>779</ele>
        <time>2012-05-12T07:15:42Z</time>
      </trkpt>
      <trkpt lat="45.58213" lon="4.56092">
        <ele>779</ele>
        <time>2012-05-12T07:15:43Z</time>
      </trkpt>
      <trkpt lat="45.58211" lon="4.5609">
        <ele>779</ele>
        <time>2012-05-12T07:15:44Z</time>
      </trkpt>
      <trkpt lat="45.5821" lon="4.56088">
        <ele>779</ele>
        <time>2012-05-12T07:15:45Z</time>
      </trkpt>
      <trkpt lat="45.58209" lon="4.56085">
        <ele>779</ele>
        <time>2012-05-12T07:15:46Z</time>
      </trkpt>
      <trkpt lat="45.58207" lon="4.56082">
        <ele>779</ele>
        <time>2012-05-12T07:15:47Z</time>
      </trkpt>
      <trkpt lat="45.58205" lon="4.56078">
        <ele>779</ele>
        <time>2012-05-12T07:15:48Z</time>
      </trkpt>
      <trkpt lat="45.58203" lon="4.56075">
        <ele>779</ele>
        <time>2012-05-12T07:15:49Z</time>
      </trkpt>
      <trkpt lat="45.58201" lon="4.56072">
        <ele>780</ele>
        <time>2012-05-12T07:15:50Z</time>
      </trkpt>
      <trkpt lat="45.582" lon="4.56069">
        <ele>780</ele>
        <time>2012-05-12T07:15:51Z</time>
      </trkpt>
      <trkpt lat="45.58198" lon="4.56066">
        <ele>780</ele>
        <time>2012-05-12T07:15:52Z</time>
      </trkpt>
      <trkpt lat="45.58197" lon="4.56062">
        <ele>780</ele>
        <time>2012-05-12T07:15:53Z</time>
      </trkpt>
      <trkpt lat="45.5819" lon="4.5605">
        <ele>780</ele>
        <time>2012-05-12T07:15:57Z</time>
      </trkpt>
      <trkpt lat="45.58189" lon="4.56047">
        <ele>780</ele>
        <time>2012-05-12T07:15:58Z</time>
      </trkpt>
      <trkpt lat="45.5818" lon="4.56034">
        <ele>781</ele>
        <time>2012-05-12T07:16:04Z</time>
      </trkpt>
      <trkpt lat="45.58172" lon="4.56017">
        <ele>781</ele>
        <time>2012-05-12T07:16:10Z</time>
      </trkpt>
      <trkpt lat="45.58162" lon="4.56001">
        <ele>782</ele>
        <time>2012-05-12T07:16:16Z</time>
      </trkpt>
      <trkpt lat="45.58161" lon="4.55998">
        <ele>782</ele>
        <time>2012-05-12T07:16:17Z</time>
      </trkpt>
      <trkpt lat="45.5816" lon="4.55995">
        <ele>783</ele>
        <time>2012-05-12T07:16:18Z</time>
      </trkpt>
      <trkpt lat="45.58153" lon="4.55981">
        <ele>783</ele>
        <time>2012-05-12T07:16:23Z</time>
      </trkpt>
      <trkpt lat="45.58146" lon="4.55967">
        <ele>784</ele>
        <time>2012-05-12T07:16:29Z</time>
      </trkpt>
      <trkpt lat="45.58145" lon="4.55964">
        <ele>784</ele>
        <time>2012-05-12T07:16:30Z</time>
      </trkpt>
      <trkpt lat="45.58138" lon="4.55947">
        <ele>784</ele>
        <time>2012-05-12T07:16:36Z</time>
      </trkpt>
      <trkpt lat="45.58125" lon="4.55925">
        <ele>786</ele>
        <time>2012-05-12T07:16:44Z</time>
      </trkpt>
      <trkpt lat="45.58118" lon="4.5591">
        <ele>786</ele>
        <time>2012-05-12T07:16:50Z</time>
      </trkpt>
      <trkpt lat="45.58108" lon="4.55894">
        <ele>787</ele>
        <time>2012-05-12T07:16:56Z</time>
      </trkpt>
      <trkpt lat="45.58106" lon="4.55888">
        <ele>787</ele>
        <time>2012-05-12T07:16:58Z</time>
      </trkpt>
      <trkpt lat="45.58105" lon="4.55886">
        <ele>787</ele>
        <time>2012-05-12T07:16:59Z</time>
      </trkpt>
      <trkpt lat="45.58104" lon="4.55884">
        <ele>788</ele>
        <time>2012-05-12T07:17:00Z</time>
      </trkpt>
      <trkpt lat="45.58094" lon="4.55858">
        <ele>789</ele>
        <time>2012-05-12T07:17:08Z</time>
      </trkpt>
      <trkpt lat="45.58086" lon="4.55844">
        <ele>789</ele>
        <time>2012-05-12T07:17:13Z</time>
      </trkpt>
      <trkpt lat="45.58085" lon="4.55842">
        <ele>789</ele>
        <time>2012-05-12T07:17:14Z</time>
      </trkpt>
      <trkpt lat="45.58084" lon="4.55839">
        <ele>790</ele>
        <time>2012-05-12T07:17:15Z</time>
      </trkpt>
      <trkpt lat="45.58082" lon="4.55834">
        <ele>790</ele>
        <time>2012-05-12T07:17:17Z</time>
      </trkpt>
      <trkpt lat="45.58081" lon="4.55831">
        <ele>790</ele>
        <time>2012-05-12T07:17:18Z</time>
      </trkpt>
      <trkpt lat="45.58073" lon="4.5581">
        <ele>791</ele>
        <time>2012-05-12T07:17:25Z</time>
      </trkpt>
      <trkpt lat="45.58066" lon="4.55798">
        <ele>791</ele>
        <time>2012-05-12T07:17:30Z</time>
      </trkpt>
      <trkpt lat="45.58055" lon="4.55783">
        <ele>792</ele>
        <time>2012-05-12T07:17:37Z</time>
      </trkpt>
      <trkpt lat="45.58049" lon="4.55774">
        <ele>793</ele>
        <time>2012-05-12T07:17:41Z</time>
      </trkpt>
      <trkpt lat="45.58048" lon="4.55772">
        <ele>793</ele>
        <time>2012-05-12T07:17:42Z</time>
      </trkpt>
      <trkpt lat="45.58046" lon="4.55771">
        <ele>793</ele>
        <time>2012-05-12T07:17:43Z</time>
      </trkpt>
      <trkpt lat="45.58045" lon="4.55769">
        <ele>793</ele>
        <time>2012-05-12T07:17:44Z</time>
      </trkpt>
      <trkpt lat="45.58043" lon="4.55767">
        <ele>794</ele>
        <time>2012-05-12T07:17:45Z</time>
      </trkpt>
      <trkpt lat="45.58037" lon="4.5576">
        <ele>795</ele>
        <time>2012-05-12T07:17:49Z</time>
      </trkpt>
      <trkpt lat="45.58035" lon="4.55759">
        <ele>795</ele>
        <time>2012-05-12T07:17:50Z</time>
      </trkpt>
      <trkpt lat="45.58027" lon="4.55754">
        <ele>797</ele>
        <time>2012-05-12T07:17:55Z</time>
      </trkpt>
      <trkpt lat="45.58026" lon="4.55751">
        <ele>797</ele>
        <time>2012-05-12T07:17:56Z</time>
      </trkpt>
      <trkpt lat="45.58024" lon="4.5575">
        <ele>798</ele>
        <time>2012-05-12T07:17:57Z</time>
      </trkpt>
      <trkpt lat="45.58023" lon="4.55749">
        <ele>797</ele>
        <time>2012-05-12T07:17:58Z</time>
      </trkpt>
      <trkpt lat="45.58021" lon="4.55748">
        <ele>797</ele>
        <time>2012-05-12T07:17:59Z</time>
      </trkpt>
      <trkpt lat="45.58014" lon="4.55743">
        <ele>798</ele>
        <time>2012-05-12T07:18:04Z</time>
      </trkpt>
      <trkpt lat="45.58012" lon="4.55742">
        <ele>798</ele>
        <time>2012-05-12T07:18:05Z</time>
      </trkpt>
      <trkpt lat="45.58011" lon="4.55741">
        <ele>799</ele>
        <time>2012-05-12T07:18:06Z</time>
      </trkpt>
      <trkpt lat="45.58009" lon="4.5574">
        <ele>799</ele>
        <time>2012-05-12T07:18:07Z</time>
      </trkpt>
      <trkpt lat="45.58007" lon="4.55739">
        <ele>799</ele>
        <time>2012-05-12T07:18:08Z</time>
      </trkpt>
      <trkpt lat="45.58006" lon="4.55737">
        <ele>799</ele>
        <time>2012-05-12T07:18:09Z</time>
      </trkpt>
      <trkpt lat="45.58004" lon="4.55736">
        <ele>799</ele>
        <time>2012-05-12T07:18:10Z</time>
      </trkpt>
      <trkpt lat="45.57988" lon="4.55726">
        <ele>802</ele>
        <time>2012-05-12T07:18:19Z</time>
      </trkpt>
      <trkpt lat="45.57979" lon="4.55713">
        <ele>804</ele>
        <time>2012-05-12T07:18:26Z</time>
      </trkpt>
      <trkpt lat="45.57977" lon="4.55711">
        <ele>804</ele>
        <time>2012-05-12T07:18:27Z</time>
      </trkpt>
      <trkpt lat="45.57976" lon="4.55709">
        <ele>805</ele>
        <time>2012-05-12T07:18:28Z</time>
      </trkpt>
      <trkpt lat="45.57965" lon="4.55689">
        <ele>805</ele>
        <time>2012-05-12T07:18:36Z</time>
      </trkpt>
      <trkpt lat="45.57952" lon="4.55664">
        <ele>804</ele>
        <time>2012-05-12T07:18:45Z</time>
      </trkpt>
      <trkpt lat="45.5795" lon="4.55659">
        <ele>805</ele>
        <time>2012-05-12T07:18:47Z</time>
      </trkpt>
      <trkpt lat="45.57938" lon="4.55626">
        <ele>803</ele>
        <time>2012-05-12T07:18:56Z</time>
      </trkpt>
      <trkpt lat="45.57925" lon="4.556">
        <ele>803</ele>
        <time>2012-05-12T07:19:04Z</time>
      </trkpt>
      <trkpt lat="45.57924" lon="4.55595">
        <ele>804</ele>
        <time>2012-05-12T07:19:05Z</time>
      </trkpt>
      <trkpt lat="45.57922" lon="4.55591">
        <ele>804</ele>
        <time>2012-05-12T07:19:06Z</time>
      </trkpt>
      <trkpt lat="45.57921" lon="4.55588">
        <ele>803</ele>
        <time>2012-05-12T07:19:07Z</time>
      </trkpt>
      <trkpt lat="45.57919" lon="4.55584">
        <ele>804</ele>
        <time>2012-05-12T07:19:08Z</time>
      </trkpt>
      <trkpt lat="45.57918" lon="4.5558">
        <ele>804</ele>
        <time>2012-05-12T07:19:09Z</time>
      </trkpt>
      <trkpt lat="45.57913" lon="4.55549">
        <ele>805</ele>
        <time>2012-05-12T07:19:16Z</time>
      </trkpt>
      <trkpt lat="45.5791" lon="4.55518">
        <ele>806</ele>
        <time>2012-05-12T07:19:23Z</time>
      </trkpt>
      <trkpt lat="45.57905" lon="4.55492">
        <ele>806</ele>
        <time>2012-05-12T07:19:29Z</time>
      </trkpt>
      <trkpt lat="45.579" lon="4.55458">
        <ele>806</ele>
        <time>2012-05-12T07:19:37Z</time>
      </trkpt>
      <trkpt lat="45.57887" lon="4.55433">
        <ele>806</ele>
        <time>2012-05-12T07:19:44Z</time>
      </trkpt>
      <trkpt lat="45.57871" lon="4.55405">
        <ele>808</ele>
        <time>2012-05-12T07:19:52Z</time>
      </trkpt>
      <trkpt lat="45.57863" lon="4.55377">
        <ele>809</ele>
        <time>2012-05-12T07:19:59Z</time>
      </trkpt>
      <trkpt lat="45.57854" lon="4.55345">
        <ele>809</ele>
        <time>2012-05-12T07:20:07Z</time>
      </trkpt>
      <trkpt lat="45.5785" lon="4.55315">
        <ele>809</ele>
        <time>2012-05-12T07:20:14Z</time>
      </trkpt>
      <trkpt lat="45.57848" lon="4.55285">
        <ele>810</ele>
        <time>2012-05-12T07:20:21Z</time>
      </trkpt>
      <trkpt lat="45.57845" lon="4.55247">
        <ele>811</ele>
        <time>2012-05-12T07:20:30Z</time>
      </trkpt>
      <trkpt lat="45.57847" lon="4.55225">
        <ele>811</ele>
        <time>2012-05-12T07:20:35Z</time>
      </trkpt>
      <trkpt lat="45.57852" lon="4.552">
        <ele>811</ele>
        <time>2012-05-12T07:20:41Z</time>
      </trkpt>
      <trkpt lat="45.57852" lon="4.55195">
        <ele>810</ele>
        <time>2012-05-12T07:20:42Z</time>
      </trkpt>
      <trkpt lat="45.57851" lon="4.55163">
        <ele>810</ele>
        <time>2012-05-12T07:20:49Z</time>
      </trkpt>
      <trkpt lat="45.57853" lon="4.5513">
        <ele>809</ele>
        <time>2012-05-12T07:20:55Z</time>
      </trkpt>
      <trkpt lat="45.57859" lon="4.55099">
        <ele>810</ele>
        <time>2012-05-12T07:21:02Z</time>
      </trkpt>
      <trkpt lat="45.57867" lon="4.55063">
        <ele>811</ele>
        <time>2012-05-12T07:21:10Z</time>
      </trkpt>
      <trkpt lat="45.57873" lon="4.55038">
        <ele>811</ele>
        <time>2012-05-12T07:21:16Z</time>
      </trkpt>
      <trkpt lat="45.57884" lon="4.55001">
        <ele>812</ele>
        <time>2012-05-12T07:21:26Z</time>
      </trkpt>
      <trkpt lat="45.5789" lon="4.54971">
        <ele>813</ele>
        <time>2012-05-12T07:21:34Z</time>
      </trkpt>
      <trkpt lat="45.57892" lon="4.54946">
        <ele>814</ele>
        <time>2012-05-12T07:21:41Z</time>
      </trkpt>
      <trkpt lat="45.57893" lon="4.54919">
        <ele>815</ele>
        <time>2012-05-12T07:21:49Z</time>
      </trkpt>
      <trkpt lat="45.57892" lon="4.54901">
        <ele>816</ele>
        <time>2012-05-12T07:21:56Z</time>
      </trkpt>
      <trkpt lat="45.57894" lon="4.54876">
        <ele>817</ele>
        <time>2012-05-12T07:22:04Z</time>
      </trkpt>
      <trkpt lat="45.57896" lon="4.54857">
        <ele>819</ele>
        <time>2012-05-12T07:22:10Z</time>
      </trkpt>
      <trkpt lat="45.57897" lon="4.5484">
        <ele>819</ele>
        <time>2012-05-12T07:22:16Z</time>
      </trkpt>
      <trkpt lat="45.57896" lon="4.54836">
        <ele>820</ele>
        <time>2012-05-12T07:22:17Z</time>
      </trkpt>
      <trkpt lat="45.57895" lon="4.54832">
        <ele>820</ele>
        <time>2012-05-12T07:22:18Z</time>
      </trkpt>
      <trkpt lat="45.57895" lon="4.54803">
        <ele>821</ele>
        <time>2012-05-12T07:22:26Z</time>
      </trkpt>
      <trkpt lat="45.57896" lon="4.54777">
        <ele>822</ele>
        <time>2012-05-12T07:22:33Z</time>
      </trkpt>
      <trkpt lat="45.57897" lon="4.5475">
        <ele>823</ele>
        <time>2012-05-12T07:22:41Z</time>
      </trkpt>
      <trkpt lat="45.57897" lon="4.54732">
        <ele>823</ele>
        <time>2012-05-12T07:22:47Z</time>
      </trkpt>
      <trkpt lat="45.57897" lon="4.54714">
        <ele>824</ele>
        <time>2012-05-12T07:22:53Z</time>
      </trkpt>
      <trkpt lat="45.57897" lon="4.54711">
        <ele>824</ele>
        <time>2012-05-12T07:22:54Z</time>
      </trkpt>
      <trkpt lat="45.57898" lon="4.54708">
        <ele>824</ele>
        <time>2012-05-12T07:22:55Z</time>
      </trkpt>
      <trkpt lat="45.57902" lon="4.54697">
        <ele>825</ele>
        <time>2012-05-12T07:23:01Z</time>
      </trkpt>
      <trkpt lat="45.57902" lon="4.54694">
        <ele>825</ele>
        <time>2012-05-12T07:23:03Z</time>
      </trkpt>
      <trkpt lat="45.57901" lon="4.54691">
        <ele>825</ele>
        <time>2012-05-12T07:23:04Z</time>
      </trkpt>
      <trkpt lat="45.579" lon="4.54687">
        <ele>825</ele>
        <time>2012-05-12T07:23:05Z</time>
      </trkpt>
      <trkpt lat="45.579" lon="4.54685">
        <ele>825</ele>
        <time>2012-05-12T07:23:06Z</time>
      </trkpt>
      <trkpt lat="45.579" lon="4.54682">
        <ele>825</ele>
        <time>2012-05-12T07:23:07Z</time>
      </trkpt>
      <trkpt lat="45.579" lon="4.54663">
        <ele>826</ele>
        <time>2012-05-12T07:23:13Z</time>
      </trkpt>
      <trkpt lat="45.57905" lon="4.54641">
        <ele>827</ele>
        <time>2012-05-12T07:23:20Z</time>
      </trkpt>
      <trkpt lat="45.57905" lon="4.54631">
        <ele>827</ele>
        <time>2012-05-12T07:23:23Z</time>
      </trkpt>
      <trkpt lat="45.57904" lon="4.54627">
        <ele>826</ele>
        <time>2012-05-12T07:23:24Z</time>
      </trkpt>
      <trkpt lat="45.57905" lon="4.54623">
        <ele>827</ele>
        <time>2012-05-12T07:23:25Z</time>
      </trkpt>
      <trkpt lat="45.57906" lon="4.54618">
        <ele>827</ele>
        <time>2012-05-12T07:23:26Z</time>
      </trkpt>
      <trkpt lat="45.57905" lon="4.54613">
        <ele>827</ele>
        <time>2012-05-12T07:23:27Z</time>
      </trkpt>
      <trkpt lat="45.57905" lon="4.5461">
        <ele>827</ele>
        <time>2012-05-12T07:23:28Z</time>
      </trkpt>
      <trkpt lat="45.57906" lon="4.54606">
        <ele>828</ele>
        <time>2012-05-12T07:23:29Z</time>
      </trkpt>
      <trkpt lat="45.57906" lon="4.54602">
        <ele>828</ele>
        <time>2012-05-12T07:23:30Z</time>
      </trkpt>
      <trkpt lat="45.57906" lon="4.54599">
        <ele>828</ele>
        <time>2012-05-12T07:23:31Z</time>
      </trkpt>
      <trkpt lat="45.57906" lon="4.54595">
        <ele>828</ele>
        <time>2012-05-12T07:23:32Z</time>
      </trkpt>
      <trkpt lat="45.57906" lon="4.54592">
        <ele>828</ele>
        <time>2012-05-12T07:23:33Z</time>
      </trkpt>
      <trkpt lat="45.57904" lon="4.54572">
        <ele>828</ele>
        <time>2012-05-12T07:23:40Z</time>
      </trkpt>
      <trkpt lat="45.579" lon="4.54551">
        <ele>830</ele>
        <time>2012-05-12T07:23:47Z</time>
      </trkpt>
      <trkpt lat="45.57895" lon="4.5453">
        <ele>830</ele>
        <time>2012-05-12T07:23:54Z</time>
      </trkpt>
      <trkpt lat="45.57891" lon="4.54514">
        <ele>831</ele>
        <time>2012-05-12T07:24:01Z</time>
      </trkpt>
      <trkpt lat="45.57887" lon="4.54498">
        <ele>832</ele>
        <time>2012-05-12T07:24:07Z</time>
      </trkpt>
      <trkpt lat="45.57883" lon="4.54492">
        <ele>833</ele>
        <time>2012-05-12T07:24:13Z</time>
      </trkpt>
      <trkpt lat="45.57874" lon="4.54473">
        <ele>834</ele>
        <time>2012-05-12T07:24:20Z</time>
      </trkpt>
      <trkpt lat="45.57869" lon="4.54459">
        <ele>836</ele>
        <time>2012-05-12T07:24:26Z</time>
      </trkpt>
      <trkpt lat="45.57858" lon="4.54442">
        <ele>836</ele>
        <time>2012-05-12T07:24:32Z</time>
      </trkpt>
      <trkpt lat="45.57844" lon="4.54424">
        <ele>837</ele>
        <time>2012-05-12T07:24:40Z</time>
      </trkpt>
      <trkpt lat="45.57831" lon="4.54403">
        <ele>838</ele>
        <time>2012-05-12T07:24:47Z</time>
      </trkpt>
      <trkpt lat="45.57819" lon="4.54387">
        <ele>840</ele>
        <time>2012-05-12T07:24:54Z</time>
      </trkpt>
      <trkpt lat="45.57805" lon="4.5437">
        <ele>841</ele>
        <time>2012-05-12T07:25:02Z</time>
      </trkpt>
      <trkpt lat="45.57793" lon="4.54355">
        <ele>842</ele>
        <time>2012-05-12T07:25:09Z</time>
      </trkpt>
      <trkpt lat="45.57782" lon="4.54344">
        <ele>843</ele>
        <time>2012-05-12T07:25:15Z</time>
      </trkpt>
      <trkpt lat="45.57766" lon="4.54328">
        <ele>844</ele>
        <time>2012-05-12T07:25:23Z</time>
      </trkpt>
      <trkpt lat="45.57748" lon="4.54308">
        <ele>845</ele>
        <time>2012-05-12T07:25:32Z</time>
      </trkpt>
      <trkpt lat="45.57732" lon="4.54291">
        <ele>845</ele>
        <time>2012-05-12T07:25:40Z</time>
      </trkpt>
      <trkpt lat="45.57717" lon="4.54277">
        <ele>847</ele>
        <time>2012-05-12T07:25:47Z</time>
      </trkpt>
      <trkpt lat="45.57702" lon="4.5426">
        <ele>848</ele>
        <time>2012-05-12T07:25:55Z</time>
      </trkpt>
      <trkpt lat="45.57682" lon="4.54239">
        <ele>848</ele>
        <time>2012-05-12T07:26:05Z</time>
      </trkpt>
      <trkpt lat="45.57664" lon="4.54223">
        <ele>849</ele>
        <time>2012-05-12T07:26:13Z</time>
      </trkpt>
      <trkpt lat="45.57645" lon="4.54206">
        <ele>850</ele>
        <time>2012-05-12T07:26:21Z</time>
      </trkpt>
      <trkpt lat="45.57624" lon="4.54185">
        <ele>851</ele>
        <time>2012-05-12T07:26:30Z</time>
      </trkpt>
      <trkpt lat="45.57617" lon="4.54178">
        <ele>851</ele>
        <time>2012-05-12T07:26:33Z</time>
      </trkpt>
      <trkpt lat="45.57615" lon="4.54174">
        <ele>851</ele>
        <time>2012-05-12T07:26:34Z</time>
      </trkpt>
      <trkpt lat="45.57603" lon="4.54154">
        <ele>852</ele>
        <time>2012-05-12T07:26:41Z</time>
      </trkpt>
      <trkpt lat="45.57591" lon="4.54123">
        <ele>851</ele>
        <time>2012-05-12T07:26:48Z</time>
      </trkpt>
      <trkpt lat="45.57584" lon="4.54102">
        <ele>851</ele>
        <time>2012-05-12T07:26:53Z</time>
      </trkpt>
      <trkpt lat="45.57584" lon="4.54098">
        <ele>851</ele>
        <time>2012-05-12T07:26:54Z</time>
      </trkpt>
      <trkpt lat="45.57584" lon="4.54094">
        <ele>851</ele>
        <time>2012-05-12T07:26:55Z</time>
      </trkpt>
      <trkpt lat="45.57584" lon="4.54089">
        <ele>851</ele>
        <time>2012-05-12T07:26:56Z</time>
      </trkpt>
      <trkpt lat="45.57583" lon="4.54084">
        <ele>851</ele>
        <time>2012-05-12T07:26:57Z</time>
      </trkpt>
      <trkpt lat="45.57579" lon="4.54054">
        <ele>851</ele>
        <time>2012-05-12T07:27:03Z</time>
      </trkpt>
      <trkpt lat="45.57578" lon="4.54049">
        <ele>850</ele>
        <time>2012-05-12T07:27:04Z</time>
      </trkpt>
      <trkpt lat="45.57577" lon="4.54045">
        <ele>851</ele>
        <time>2012-05-12T07:27:05Z</time>
      </trkpt>
      <trkpt lat="45.57575" lon="4.54041">
        <ele>851</ele>
        <time>2012-05-12T07:27:06Z</time>
      </trkpt>
      <trkpt lat="45.57573" lon="4.54036">
        <ele>851</ele>
        <time>2012-05-12T07:27:07Z</time>
      </trkpt>
      <trkpt lat="45.57572" lon="4.54031">
        <ele>851</ele>
        <time>2012-05-12T07:27:08Z</time>
      </trkpt>
      <trkpt lat="45.57557" lon="4.53987">
        <ele>851</ele>
        <time>2012-05-12T07:27:17Z</time>
      </trkpt>
      <trkpt lat="45.57548" lon="4.53959">
        <ele>852</ele>
        <time>2012-05-12T07:27:23Z</time>
      </trkpt>
      <trkpt lat="45.5753" lon="4.53925">
        <ele>853</ele>
        <time>2012-05-12T07:27:32Z</time>
      </trkpt>
      <trkpt lat="45.57513" lon="4.53891">
        <ele>855</ele>
        <time>2012-05-12T07:27:41Z</time>
      </trkpt>
      <trkpt lat="45.57497" lon="4.53863">
        <ele>857</ele>
        <time>2012-05-12T07:27:49Z</time>
      </trkpt>
      <trkpt lat="45.57483" lon="4.53837">
        <ele>858</ele>
        <time>2012-05-12T07:27:56Z</time>
      </trkpt>
      <trkpt lat="45.5747" lon="4.53816">
        <ele>859</ele>
        <time>2012-05-12T07:28:02Z</time>
      </trkpt>
      <trkpt lat="45.57449" lon="4.53783">
        <ele>860</ele>
        <time>2012-05-12T07:28:12Z</time>
      </trkpt>
      <trkpt lat="45.57432" lon="4.53757">
        <ele>861</ele>
        <time>2012-05-12T07:28:20Z</time>
      </trkpt>
      <trkpt lat="45.57419" lon="4.53739">
        <ele>861</ele>
        <time>2012-05-12T07:28:26Z</time>
      </trkpt>
      <trkpt lat="45.57397" lon="4.53714">
        <ele>863</ele>
        <time>2012-05-12T07:28:35Z</time>
      </trkpt>
      <trkpt lat="45.57373" lon="4.53683">
        <ele>864</ele>
        <time>2012-05-12T07:28:45Z</time>
      </trkpt>
      <trkpt lat="45.5736" lon="4.53656">
        <ele>864</ele>
        <time>2012-05-12T07:28:52Z</time>
      </trkpt>
      <trkpt lat="45.57347" lon="4.53623">
        <ele>865</ele>
        <time>2012-05-12T07:29:00Z</time>
      </trkpt>
      <trkpt lat="45.57333" lon="4.53594">
        <ele>866</ele>
        <time>2012-05-12T07:29:08Z</time>
      </trkpt>
      <trkpt lat="45.57328" lon="4.53588">
        <ele>866</ele>
        <time>2012-05-12T07:29:13Z</time>
      </trkpt>
      <trkpt lat="45.57328" lon="4.53588">
        <ele>865</ele>
        <time>2012-05-12T07:29:30Z</time>
      </trkpt>
      <trkpt lat="45.57328" lon="4.53589">
        <ele>865</ele>
        <time>2012-05-12T07:29:58Z</time>
      </trkpt>
      <trkpt lat="45.57328" lon="4.53588">
        <ele>865</ele>
        <time>2012-05-12T07:30:25Z</time>
      </trkpt>
      <trkpt lat="45.57328" lon="4.53589">
        <ele>864</ele>
        <time>2012-05-12T07:30:54Z</time>
      </trkpt>
      <trkpt lat="45.57328" lon="4.53589">
        <ele>865</ele>
        <time>2012-05-12T07:31:20Z</time>
      </trkpt>
      <trkpt lat="45.57328" lon="4.53588">
        <ele>864</ele>
        <time>2012-05-12T07:31:47Z</time>
      </trkpt>
      <trkpt lat="45.57327" lon="4.53588">
        <ele>865</ele>
        <time>2012-05-12T07:32:14Z</time>
      </trkpt>
      <trkpt lat="45.57327" lon="4.53588">
        <ele>865</ele>
        <time>2012-05-12T07:32:40Z</time>
      </trkpt>
      <trkpt lat="45.57328" lon="4.53587">
        <ele>865</ele>
        <time>2012-05-12T07:32:57Z</time>
      </trkpt>
      <trkpt lat="45.57328" lon="4.53587">
        <ele>865</ele>
        <time>2012-05-12T07:33:11Z</time>
      </trkpt>
      <trkpt lat="45.57326" lon="4.53588">
        <ele>866</ele>
        <time>2012-05-12T07:33:17Z</time>
      </trkpt>
      <trkpt lat="45.57326" lon="4.53588">
        <ele>865</ele>
        <time>2012-05-12T07:33:19Z</time>
      </trkpt>
      <trkpt lat="45.57326" lon="4.5359">
        <ele>865</ele>
        <time>2012-05-12T07:33:20Z</time>
      </trkpt>
      <trkpt lat="45.57325" lon="4.53592">
        <ele>865</ele>
        <time>2012-05-12T07:33:21Z</time>
      </trkpt>
      <trkpt lat="45.57324" lon="4.53595">
        <ele>865</ele>
        <time>2012-05-12T07:33:22Z</time>
      </trkpt>
      <trkpt lat="45.57323" lon="4.53599">
        <ele>866</ele>
        <time>2012-05-12T07:33:23Z</time>
      </trkpt>
      <trkpt lat="45.57323" lon="4.53603">
        <ele>865</ele>
        <time>2012-05-12T07:33:24Z</time>
      </trkpt>
      <trkpt lat="45.57323" lon="4.53607">
        <ele>866</ele>
        <time>2012-05-12T07:33:25Z</time>
      </trkpt>
      <trkpt lat="45.57317" lon="4.53629">
        <ele>866</ele>
        <time>2012-05-12T07:33:31Z</time>
      </trkpt>
      <trkpt lat="45.57305" lon="4.53662">
        <ele>867</ele>
        <time>2012-05-12T07:33:41Z</time>
      </trkpt>
      <trkpt lat="45.57305" lon="4.53663">
        <ele>867</ele>
        <time>2012-05-12T07:33:46Z</time>
      </trkpt>
      <trkpt lat="45.57305" lon="4.53662">
        <ele>867</ele>
        <time>2012-05-12T07:33:56Z</time>
      </trkpt>
      <trkpt lat="45.57298" lon="4.53678">
        <ele>867</ele>
        <time>2012-05-12T07:34:04Z</time>
      </trkpt>
      <trkpt lat="45.57295" lon="4.53686">
        <ele>867</ele>
        <time>2012-05-12T07:34:08Z</time>
      </trkpt>
      <trkpt lat="45.57277" lon="4.53721">
        <ele>865</ele>
        <time>2012-05-12T07:34:16Z</time>
      </trkpt>
      <trkpt lat="45.57276" lon="4.53728">
        <ele>864</ele>
        <time>2012-05-12T07:34:17Z</time>
      </trkpt>
      <trkpt lat="45.57274" lon="4.53735">
        <ele>864</ele>
        <time>2012-05-12T07:34:18Z</time>
      </trkpt>
      <trkpt lat="45.57272" lon="4.53742">
        <ele>864</ele>
        <time>2012-05-12T07:34:19Z</time>
      </trkpt>
      <trkpt lat="45.5727" lon="4.53748">
        <ele>863</ele>
        <time>2012-05-12T07:34:20Z</time>
      </trkpt>
      <trkpt lat="45.57268" lon="4.53756">
        <ele>863</ele>
        <time>2012-05-12T07:34:21Z</time>
      </trkpt>
      <trkpt lat="45.57268" lon="4.53764">
        <ele>862</ele>
        <time>2012-05-12T07:34:22Z</time>
      </trkpt>
      <trkpt lat="45.57269" lon="4.53772">
        <ele>862</ele>
        <time>2012-05-12T07:34:23Z</time>
      </trkpt>
      <trkpt lat="45.5727" lon="4.53778">
        <ele>862</ele>
        <time>2012-05-12T07:34:24Z</time>
      </trkpt>
      <trkpt lat="45.57271" lon="4.53783">
        <ele>862</ele>
        <time>2012-05-12T07:34:25Z</time>
      </trkpt>
      <trkpt lat="45.5727" lon="4.53789">
        <ele>862</ele>
        <time>2012-05-12T07:34:26Z</time>
      </trkpt>
      <trkpt lat="45.5727" lon="4.53795">
        <ele>861</ele>
        <time>2012-05-12T07:34:27Z</time>
      </trkpt>
      <trkpt lat="45.5727" lon="4.53802">
        <ele>861</ele>
        <time>2012-05-12T07:34:28Z</time>
      </trkpt>
      <trkpt lat="45.57267" lon="4.53856">
        <ele>858</ele>
        <time>2012-05-12T07:34:36Z</time>
      </trkpt>
      <trkpt lat="45.57266" lon="4.53862">
        <ele>859</ele>
        <time>2012-05-12T07:34:37Z</time>
      </trkpt>
      <trkpt lat="45.57264" lon="4.53869">
        <ele>857</ele>
        <time>2012-05-12T07:34:38Z</time>
      </trkpt>
      <trkpt lat="45.57261" lon="4.53874">
        <ele>856</ele>
        <time>2012-05-12T07:34:39Z</time>
      </trkpt>
      <trkpt lat="45.57258" lon="4.5388">
        <ele>855</ele>
        <time>2012-05-12T07:34:40Z</time>
      </trkpt>
      <trkpt lat="45.57254" lon="4.53884">
        <ele>854</ele>
        <time>2012-05-12T07:34:41Z</time>
      </trkpt>
      <trkpt lat="45.5725" lon="4.53886">
        <ele>853</ele>
        <time>2012-05-12T07:34:42Z</time>
      </trkpt>
      <trkpt lat="45.57245" lon="4.53888">
        <ele>853</ele>
        <time>2012-05-12T07:34:43Z</time>
      </trkpt>
      <trkpt lat="45.57241" lon="4.53891">
        <ele>851</ele>
        <time>2012-05-12T07:34:44Z</time>
      </trkpt>
      <trkpt lat="45.57238" lon="4.53894">
        <ele>850</ele>
        <time>2012-05-12T07:34:45Z</time>
      </trkpt>
      <trkpt lat="45.57235" lon="4.53898">
        <ele>849</ele>
        <time>2012-05-12T07:34:46Z</time>
      </trkpt>
      <trkpt lat="45.57232" lon="4.53903">
        <ele>848</ele>
        <time>2012-05-12T07:34:47Z</time>
      </trkpt>
      <trkpt lat="45.57229" lon="4.53909">
        <ele>847</ele>
        <time>2012-05-12T07:34:48Z</time>
      </trkpt>
      <trkpt lat="45.57226" lon="4.53914">
        <ele>846</ele>
        <time>2012-05-12T07:34:49Z</time>
      </trkpt>
      <trkpt lat="45.57222" lon="4.53919">
        <ele>845</ele>
        <time>2012-05-12T07:34:50Z</time>
      </trkpt>
      <trkpt lat="45.5721" lon="4.53939">
        <ele>840</ele>
        <time>2012-05-12T07:34:53Z</time>
      </trkpt>
      <trkpt lat="45.57197" lon="4.53961">
        <ele>838</ele>
        <time>2012-05-12T07:34:56Z</time>
      </trkpt>
      <trkpt lat="45.57188" lon="4.53981">
        <ele>835</ele>
        <time>2012-05-12T07:34:58Z</time>
      </trkpt>
      <trkpt lat="45.57185" lon="4.53992">
        <ele>834</ele>
        <time>2012-05-12T07:34:59Z</time>
      </trkpt>
      <trkpt lat="45.57173" lon="4.54036">
        <ele>830</ele>
        <time>2012-05-12T07:35:03Z</time>
      </trkpt>
      <trkpt lat="45.5717" lon="4.54047">
        <ele>829</ele>
        <time>2012-05-12T07:35:04Z</time>
      </trkpt>
      <trkpt lat="45.57167" lon="4.54057">
        <ele>829</ele>
        <time>2012-05-12T07:35:05Z</time>
      </trkpt>
      <trkpt lat="45.57158" lon="4.54088">
        <ele>826</ele>
        <time>2012-05-12T07:35:08Z</time>
      </trkpt>
      <trkpt lat="45.57147" lon="4.54112">
        <ele>824</ele>
        <time>2012-05-12T07:35:11Z</time>
      </trkpt>
      <trkpt lat="45.57146" lon="4.5412">
        <ele>823</ele>
        <time>2012-05-12T07:35:12Z</time>
      </trkpt>
      <trkpt lat="45.57139" lon="4.54147">
        <ele>821</ele>
        <time>2012-05-12T07:35:15Z</time>
      </trkpt>
      <trkpt lat="45.57137" lon="4.54155">
        <ele>819</ele>
        <time>2012-05-12T07:35:16Z</time>
      </trkpt>
      <trkpt lat="45.57135" lon="4.54164">
        <ele>818</ele>
        <time>2012-05-12T07:35:17Z</time>
      </trkpt>
      <trkpt lat="45.57133" lon="4.54174">
        <ele>817</ele>
        <time>2012-05-12T07:35:18Z</time>
      </trkpt>
      <trkpt lat="45.5713" lon="4.54193">
        <ele>816</ele>
        <time>2012-05-12T07:35:20Z</time>
      </trkpt>
      <trkpt lat="45.5712" lon="4.54236">
        <ele>812</ele>
        <time>2012-05-12T07:35:24Z</time>
      </trkpt>
      <trkpt lat="45.57111" lon="4.54276">
        <ele>809</ele>
        <time>2012-05-12T07:35:28Z</time>
      </trkpt>
      <trkpt lat="45.57109" lon="4.54284">
        <ele>808</ele>
        <time>2012-05-12T07:35:29Z</time>
      </trkpt>
      <trkpt lat="45.57106" lon="4.54292">
        <ele>807</ele>
        <time>2012-05-12T07:35:30Z</time>
      </trkpt>
      <trkpt lat="45.57106" lon="4.54298">
        <ele>807</ele>
        <time>2012-05-12T07:35:31Z</time>
      </trkpt>
      <trkpt lat="45.57106" lon="4.54305">
        <ele>806</ele>
        <time>2012-05-12T07:35:32Z</time>
      </trkpt>
      <trkpt lat="45.57106" lon="4.54311">
        <ele>805</ele>
        <time>2012-05-12T07:35:33Z</time>
      </trkpt>
      <trkpt lat="45.57105" lon="4.54318">
        <ele>805</ele>
        <time>2012-05-12T07:35:34Z</time>
      </trkpt>
      <trkpt lat="45.57105" lon="4.54324">
        <ele>804</ele>
        <time>2012-05-12T07:35:35Z</time>
      </trkpt>
      <trkpt lat="45.57104" lon="4.54332">
        <ele>803</ele>
        <time>2012-05-12T07:35:36Z</time>
      </trkpt>
      <trkpt lat="45.57104" lon="4.54339">
        <ele>802</ele>
        <time>2012-05-12T07:35:37Z</time>
      </trkpt>
      <trkpt lat="45.57103" lon="4.54351">
        <ele>800</ele>
        <time>2012-05-12T07:35:39Z</time>
      </trkpt>
      <trkpt lat="45.57102" lon="4.54357">
        <ele>799</ele>
        <time>2012-05-12T07:35:40Z</time>
      </trkpt>
      <trkpt lat="45.57097" lon="4.54384">
        <ele>796</ele>
        <time>2012-05-12T07:35:44Z</time>
      </trkpt>
      <trkpt lat="45.57095" lon="4.5439">
        <ele>795</ele>
        <time>2012-05-12T07:35:45Z</time>
      </trkpt>
      <trkpt lat="45.57094" lon="4.54397">
        <ele>795</ele>
        <time>2012-05-12T07:35:46Z</time>
      </trkpt>
      <trkpt lat="45.57093" lon="4.54403">
        <ele>793</ele>
        <time>2012-05-12T07:35:47Z</time>
      </trkpt>
      <trkpt lat="45.57091" lon="4.54409">
        <ele>792</ele>
        <time>2012-05-12T07:35:48Z</time>
      </trkpt>
      <trkpt lat="45.57088" lon="4.54416">
        <ele>790</ele>
        <time>2012-05-12T07:35:49Z</time>
      </trkpt>
      <trkpt lat="45.57086" lon="4.54423">
        <ele>789</ele>
        <time>2012-05-12T07:35:50Z</time>
      </trkpt>
      <trkpt lat="45.57085" lon="4.54431">
        <ele>788</ele>
        <time>2012-05-12T07:35:51Z</time>
      </trkpt>
      <trkpt lat="45.57084" lon="4.5444">
        <ele>787</ele>
        <time>2012-05-12T07:35:52Z</time>
      </trkpt>
      <trkpt lat="45.57083" lon="4.54449">
        <ele>786</ele>
        <time>2012-05-12T07:35:53Z</time>
      </trkpt>
      <trkpt lat="45.57082" lon="4.5446">
        <ele>787</ele>
        <time>2012-05-12T07:35:54Z</time>
      </trkpt>
      <trkpt lat="45.57079" lon="4.54507">
        <ele>785</ele>
        <time>2012-05-12T07:35:59Z</time>
      </trkpt>
      <trkpt lat="45.57078" lon="4.54516">
        <ele>784</ele>
        <time>2012-05-12T07:36:00Z</time>
      </trkpt>
      <trkpt lat="45.57076" lon="4.54525">
        <ele>783</ele>
        <time>2012-05-12T07:36:01Z</time>
      </trkpt>
      <trkpt lat="45.57074" lon="4.54533">
        <ele>782</ele>
        <time>2012-05-12T07:36:02Z</time>
      </trkpt>
      <trkpt lat="45.57073" lon="4.54541">
        <ele>782</ele>
        <time>2012-05-12T07:36:03Z</time>
      </trkpt>
      <trkpt lat="45.57072" lon="4.54548">
        <ele>781</ele>
        <time>2012-05-12T07:36:04Z</time>
      </trkpt>
      <trkpt lat="45.57072" lon="4.54555">
        <ele>780</ele>
        <time>2012-05-12T07:36:05Z</time>
      </trkpt>
      <trkpt lat="45.57072" lon="4.54562">
        <ele>780</ele>
        <time>2012-05-12T07:36:06Z</time>
      </trkpt>
      <trkpt lat="45.5707" lon="4.54568">
        <ele>780</ele>
        <time>2012-05-12T07:36:07Z</time>
      </trkpt>
      <trkpt lat="45.57068" lon="4.54574">
        <ele>778</ele>
        <time>2012-05-12T07:36:08Z</time>
      </trkpt>
      <trkpt lat="45.57067" lon="4.54579">
        <ele>778</ele>
        <time>2012-05-12T07:36:09Z</time>
      </trkpt>
      <trkpt lat="45.57066" lon="4.54582">
        <ele>778</ele>
        <time>2012-05-12T07:36:10Z</time>
      </trkpt>
      <trkpt lat="45.57064" lon="4.54584">
        <ele>777</ele>
        <time>2012-05-12T07:36:11Z</time>
      </trkpt>
      <trkpt lat="45.57061" lon="4.54586">
        <ele>777</ele>
        <time>2012-05-12T07:36:12Z</time>
      </trkpt>
      <trkpt lat="45.57058" lon="4.54587">
        <ele>776</ele>
        <time>2012-05-12T07:36:13Z</time>
      </trkpt>
      <trkpt lat="45.57055" lon="4.54588">
        <ele>775</ele>
        <time>2012-05-12T07:36:14Z</time>
      </trkpt>
      <trkpt lat="45.57038" lon="4.54601">
        <ele>774</ele>
        <time>2012-05-12T07:36:19Z</time>
      </trkpt>
      <trkpt lat="45.57019" lon="4.54615">
        <ele>772</ele>
        <time>2012-05-12T07:36:25Z</time>
      </trkpt>
      <trkpt lat="45.57012" lon="4.54618">
        <ele>770</ele>
        <time>2012-05-12T07:36:27Z</time>
      </trkpt>
      <trkpt lat="45.57005" lon="4.54621">
        <ele>768</ele>
        <time>2012-05-12T07:36:29Z</time>
      </trkpt>
      <trkpt lat="45.57002" lon="4.54624">
        <ele>768</ele>
        <time>2012-05-12T07:36:30Z</time>
      </trkpt>
      <trkpt lat="45.56996" lon="4.5463">
        <ele>767</ele>
        <time>2012-05-12T07:36:32Z</time>
      </trkpt>
      <trkpt lat="45.56983" lon="4.5464">
        <ele>764</ele>
        <time>2012-05-12T07:36:36Z</time>
      </trkpt>
      <trkpt lat="45.56975" lon="4.54644">
        <ele>763</ele>
        <time>2012-05-12T07:36:38Z</time>
      </trkpt>
      <trkpt lat="45.56968" lon="4.54648">
        <ele>761</ele>
        <time>2012-05-12T07:36:40Z</time>
      </trkpt>
      <trkpt lat="45.5696" lon="4.54655">
        <ele>760</ele>
        <time>2012-05-12T07:36:42Z</time>
      </trkpt>
      <trkpt lat="45.56956" lon="4.54659">
        <ele>760</ele>
        <time>2012-05-12T07:36:43Z</time>
      </trkpt>
      <trkpt lat="45.56952" lon="4.54662">
        <ele>760</ele>
        <time>2012-05-12T07:36:44Z</time>
      </trkpt>
      <trkpt lat="45.56931" lon="4.54678">
        <ele>755</ele>
        <time>2012-05-12T07:36:49Z</time>
      </trkpt>
      <trkpt lat="45.56915" lon="4.54695">
        <ele>752</ele>
        <time>2012-05-12T07:36:54Z</time>
      </trkpt>
      <trkpt lat="45.56911" lon="4.547">
        <ele>752</ele>
        <time>2012-05-12T07:36:55Z</time>
      </trkpt>
      <trkpt lat="45.56904" lon="4.54708">
        <ele>750</ele>
        <time>2012-05-12T07:36:57Z</time>
      </trkpt>
      <trkpt lat="45.56896" lon="4.54718">
        <ele>749</ele>
        <time>2012-05-12T07:36:59Z</time>
      </trkpt>
      <trkpt lat="45.56883" lon="4.5474">
        <ele>747</ele>
        <time>2012-05-12T07:37:04Z</time>
      </trkpt>
      <trkpt lat="45.5687" lon="4.54751">
        <ele>743</ele>
        <time>2012-05-12T07:37:08Z</time>
      </trkpt>
      <trkpt lat="45.56865" lon="4.54755">
        <ele>743</ele>
        <time>2012-05-12T07:37:09Z</time>
      </trkpt>
      <trkpt lat="45.56861" lon="4.54759">
        <ele>743</ele>
        <time>2012-05-12T07:37:10Z</time>
      </trkpt>
      <trkpt lat="45.56851" lon="4.54772">
        <ele>741</ele>
        <time>2012-05-12T07:37:13Z</time>
      </trkpt>
      <trkpt lat="45.56834" lon="4.54787">
        <ele>738</ele>
        <time>2012-05-12T07:37:18Z</time>
      </trkpt>
      <trkpt lat="45.56818" lon="4.54799">
        <ele>735</ele>
        <time>2012-05-12T07:37:23Z</time>
      </trkpt>
      <trkpt lat="45.56799" lon="4.54815">
        <ele>732</ele>
        <time>2012-05-12T07:37:29Z</time>
      </trkpt>
      <trkpt lat="45.56785" lon="4.54829">
        <ele>730</ele>
        <time>2012-05-12T07:37:33Z</time>
      </trkpt>
      <trkpt lat="45.56774" lon="4.5484">
        <ele>727</ele>
        <time>2012-05-12T07:37:36Z</time>
      </trkpt>
      <trkpt lat="45.56769" lon="4.54844">
        <ele>726</ele>
        <time>2012-05-12T07:37:37Z</time>
      </trkpt>
      <trkpt lat="45.56766" lon="4.54848">
        <ele>725</ele>
        <time>2012-05-12T07:37:38Z</time>
      </trkpt>
      <trkpt lat="45.56762" lon="4.54852">
        <ele>725</ele>
        <time>2012-05-12T07:37:39Z</time>
      </trkpt>
      <trkpt lat="45.56752" lon="4.54864">
        <ele>724</ele>
        <time>2012-05-12T07:37:42Z</time>
      </trkpt>
      <trkpt lat="45.56737" lon="4.54879">
        <ele>721</ele>
        <time>2012-05-12T07:37:47Z</time>
      </trkpt>
      <trkpt lat="45.56722" lon="4.5489">
        <ele>719</ele>
        <time>2012-05-12T07:37:51Z</time>
      </trkpt>
      <trkpt lat="45.56708" lon="4.54905">
        <ele>715</ele>
        <time>2012-05-12T07:37:56Z</time>
      </trkpt>
      <trkpt lat="45.56702" lon="4.54913">
        <ele>714</ele>
        <time>2012-05-12T07:37:58Z</time>
      </trkpt>
      <trkpt lat="45.56698" lon="4.54915">
        <ele>713</ele>
        <time>2012-05-12T07:37:59Z</time>
      </trkpt>
      <trkpt lat="45.56694" lon="4.54916">
        <ele>712</ele>
        <time>2012-05-12T07:38:00Z</time>
      </trkpt>
      <trkpt lat="45.56678" lon="4.54922">
        <ele>709</ele>
        <time>2012-05-12T07:38:04Z</time>
      </trkpt>
      <trkpt lat="45.56659" lon="4.54922">
        <ele>706</ele>
        <time>2012-05-12T07:38:08Z</time>
      </trkpt>
      <trkpt lat="45.56654" lon="4.54922">
        <ele>705</ele>
        <time>2012-05-12T07:38:09Z</time>
      </trkpt>
      <trkpt lat="45.56649" lon="4.54921">
        <ele>704</ele>
        <time>2012-05-12T07:38:10Z</time>
      </trkpt>
      <trkpt lat="45.56641" lon="4.54924">
        <ele>702</ele>
        <time>2012-05-12T07:38:12Z</time>
      </trkpt>
      <trkpt lat="45.56637" lon="4.54927">
        <ele>701</ele>
        <time>2012-05-12T07:38:13Z</time>
      </trkpt>
      <trkpt lat="45.56634" lon="4.54929">
        <ele>700</ele>
        <time>2012-05-12T07:38:14Z</time>
      </trkpt>
      <trkpt lat="45.5663" lon="4.5493">
        <ele>699</ele>
        <time>2012-05-12T07:38:15Z</time>
      </trkpt>
      <trkpt lat="45.56626" lon="4.5493">
        <ele>699</ele>
        <time>2012-05-12T07:38:16Z</time>
      </trkpt>
      <trkpt lat="45.56621" lon="4.54931">
        <ele>699</ele>
        <time>2012-05-12T07:38:17Z</time>
      </trkpt>
      <trkpt lat="45.56616" lon="4.54932">
        <ele>699</ele>
        <time>2012-05-12T07:38:18Z</time>
      </trkpt>
      <trkpt lat="45.56601" lon="4.54933">
        <ele>697</ele>
        <time>2012-05-12T07:38:21Z</time>
      </trkpt>
      <trkpt lat="45.56595" lon="4.54934">
        <ele>696</ele>
        <time>2012-05-12T07:38:22Z</time>
      </trkpt>
      <trkpt lat="45.56589" lon="4.54935">
        <ele>696</ele>
        <time>2012-05-12T07:38:23Z</time>
      </trkpt>
      <trkpt lat="45.56583" lon="4.54937">
        <ele>695</ele>
        <time>2012-05-12T07:38:24Z</time>
      </trkpt>
      <trkpt lat="45.56577" lon="4.54937">
        <ele>694</ele>
        <time>2012-05-12T07:38:25Z</time>
      </trkpt>
      <trkpt lat="45.5657" lon="4.54935">
        <ele>694</ele>
        <time>2012-05-12T07:38:26Z</time>
      </trkpt>
      <trkpt lat="45.56563" lon="4.54935">
        <ele>692</ele>
        <time>2012-05-12T07:38:27Z</time>
      </trkpt>
      <trkpt lat="45.56556" lon="4.54937">
        <ele>691</ele>
        <time>2012-05-12T07:38:28Z</time>
      </trkpt>
      <trkpt lat="45.5655" lon="4.54939">
        <ele>690</ele>
        <time>2012-05-12T07:38:29Z</time>
      </trkpt>
      <trkpt lat="45.56545" lon="4.54942">
        <ele>690</ele>
        <time>2012-05-12T07:38:30Z</time>
      </trkpt>
      <trkpt lat="45.56533" lon="4.5495">
        <ele>689</ele>
        <time>2012-05-12T07:38:32Z</time>
      </trkpt>
      <trkpt lat="45.56521" lon="4.54958">
        <ele>687</ele>
        <time>2012-05-12T07:38:34Z</time>
      </trkpt>
      <trkpt lat="45.56517" lon="4.54962">
        <ele>687</ele>
        <time>2012-05-12T07:38:35Z</time>
      </trkpt>
      <trkpt lat="45.56515" lon="4.54966">
        <ele>687</ele>
        <time>2012-05-12T07:38:38Z</time>
      </trkpt>
      <trkpt lat="45.56514" lon="4.54968">
        <ele>687</ele>
        <time>2012-05-12T07:38:48Z</time>
      </trkpt>
      <trkpt lat="45.56514" lon="4.54968">
        <ele>687</ele>
        <time>2012-05-12T07:38:58Z</time>
      </trkpt>
      <trkpt lat="45.56514" lon="4.54969">
        <ele>687</ele>
        <time>2012-05-12T07:39:06Z</time>
      </trkpt>
      <trkpt lat="45.56513" lon="4.54969">
        <ele>687</ele>
        <time>2012-05-12T07:39:17Z</time>
      </trkpt>
      <trkpt lat="45.56513" lon="4.5497">
        <ele>687</ele>
        <time>2012-05-12T07:39:30Z</time>
      </trkpt>
      <trkpt lat="45.56512" lon="4.5497">
        <ele>687</ele>
        <time>2012-05-12T07:39:46Z</time>
      </trkpt>
      <trkpt lat="45.56511" lon="4.5497">
        <ele>687</ele>
        <time>2012-05-12T07:39:57Z</time>
      </trkpt>
      <trkpt lat="45.56511" lon="4.54971">
        <ele>687</ele>
        <time>2012-05-12T07:40:07Z</time>
      </trkpt>
      <trkpt lat="45.56511" lon="4.5497">
        <ele>686</ele>
        <time>2012-05-12T07:40:18Z</time>
      </trkpt>
      <trkpt lat="45.56511" lon="4.54971">
        <ele>687</ele>
        <time>2012-05-12T07:40:27Z</time>
      </trkpt>
      <trkpt lat="45.56511" lon="4.54971">
        <ele>687</ele>
        <time>2012-05-12T07:40:35Z</time>
      </trkpt>
      <trkpt lat="45.56511" lon="4.54971">
        <ele>687</ele>
        <time>2012-05-12T07:40:46Z</time>
      </trkpt>
      <trkpt lat="45.5651" lon="4.54971">
        <ele>687</ele>
        <time>2012-05-12T07:40:57Z</time>
      </trkpt>
      <trkpt lat="45.56509" lon="4.54973">
        <ele>687</ele>
        <time>2012-05-12T07:41:03Z</time>
      </trkpt>
      <trkpt lat="45.56509" lon="4.54973">
        <ele>687</ele>
        <time>2012-05-12T07:41:04Z</time>
      </trkpt>
      <trkpt lat="45.56507" lon="4.54972">
        <ele>687</ele>
        <time>2012-05-12T07:41:05Z</time>
      </trkpt>
      <trkpt lat="45.56505" lon="4.54972">
        <ele>687</ele>
        <time>2012-05-12T07:41:06Z</time>
      </trkpt>
      <trkpt lat="45.56503" lon="4.54972">
        <ele>687</ele>
        <time>2012-05-12T07:41:07Z</time>
      </trkpt>
      <trkpt lat="45.56501" lon="4.54972">
        <ele>687</ele>
        <time>2012-05-12T07:41:08Z</time>
      </trkpt>
      <trkpt lat="45.565" lon="4.54971">
        <ele>686</ele>
        <time>2012-05-12T07:41:09Z</time>
      </trkpt>
      <trkpt lat="45.56498" lon="4.54971">
        <ele>687</ele>
        <time>2012-05-12T07:41:10Z</time>
      </trkpt>
      <trkpt lat="45.5649" lon="4.54972">
        <ele>687</ele>
        <time>2012-05-12T07:41:17Z</time>
      </trkpt>
      <trkpt lat="45.56474" lon="4.54974">
        <ele>687</ele>
        <time>2012-05-12T07:41:24Z</time>
      </trkpt>
      <trkpt lat="45.56465" lon="4.54974">
        <ele>687</ele>
        <time>2012-05-12T07:41:26Z</time>
      </trkpt>
      <trkpt lat="45.56461" lon="4.54973">
        <ele>686</ele>
        <time>2012-05-12T07:41:27Z</time>
      </trkpt>
      <trkpt lat="45.56457" lon="4.54973">
        <ele>686</ele>
        <time>2012-05-12T07:41:28Z</time>
      </trkpt>
      <trkpt lat="45.56451" lon="4.54974">
        <ele>685</ele>
        <time>2012-05-12T07:41:29Z</time>
      </trkpt>
      <trkpt lat="45.56446" lon="4.54977">
        <ele>684</ele>
        <time>2012-05-12T07:41:30Z</time>
      </trkpt>
      <trkpt lat="45.56439" lon="4.54979">
        <ele>683</ele>
        <time>2012-05-12T07:41:31Z</time>
      </trkpt>
      <trkpt lat="45.56433" lon="4.54982">
        <ele>683</ele>
        <time>2012-05-12T07:41:32Z</time>
      </trkpt>
      <trkpt lat="45.56427" lon="4.54985">
        <ele>683</ele>
        <time>2012-05-12T07:41:33Z</time>
      </trkpt>
      <trkpt lat="45.56422" lon="4.54989">
        <ele>682</ele>
        <time>2012-05-12T07:41:34Z</time>
      </trkpt>
      <trkpt lat="45.56417" lon="4.54993">
        <ele>682</ele>
        <time>2012-05-12T07:41:35Z</time>
      </trkpt>
      <trkpt lat="45.56413" lon="4.54997">
        <ele>681</ele>
        <time>2012-05-12T07:41:36Z</time>
      </trkpt>
      <trkpt lat="45.56408" lon="4.55001">
        <ele>681</ele>
        <time>2012-05-12T07:41:37Z</time>
      </trkpt>
      <trkpt lat="45.56403" lon="4.55005">
        <ele>680</ele>
        <time>2012-05-12T07:41:38Z</time>
      </trkpt>
      <trkpt lat="45.564" lon="4.55008">
        <ele>679</ele>
        <time>2012-05-12T07:41:39Z</time>
      </trkpt>
      <trkpt lat="45.56397" lon="4.55011">
        <ele>679</ele>
        <time>2012-05-12T07:41:40Z</time>
      </trkpt>
      <trkpt lat="45.56393" lon="4.55013">
        <ele>678</ele>
        <time>2012-05-12T07:41:41Z</time>
      </trkpt>
      <trkpt lat="45.5639" lon="4.55016">
        <ele>677</ele>
        <time>2012-05-12T07:41:42Z</time>
      </trkpt>
      <trkpt lat="45.56387" lon="4.55019">
        <ele>677</ele>
        <time>2012-05-12T07:41:43Z</time>
      </trkpt>
      <trkpt lat="45.56383" lon="4.55021">
        <ele>677</ele>
        <time>2012-05-12T07:41:44Z</time>
      </trkpt>
      <trkpt lat="45.56379" lon="4.55024">
        <ele>675</ele>
        <time>2012-05-12T07:41:45Z</time>
      </trkpt>
      <trkpt lat="45.56375" lon="4.55027">
        <ele>674</ele>
        <time>2012-05-12T07:41:46Z</time>
      </trkpt>
      <trkpt lat="45.56368" lon="4.55033">
        <ele>673</ele>
        <time>2012-05-12T07:41:48Z</time>
      </trkpt>
      <trkpt lat="45.56365" lon="4.55037">
        <ele>672</ele>
        <time>2012-05-12T07:41:49Z</time>
      </trkpt>
      <trkpt lat="45.56361" lon="4.55041">
        <ele>672</ele>
        <time>2012-05-12T07:41:50Z</time>
      </trkpt>
      <trkpt lat="45.56358" lon="4.55044">
        <ele>671</ele>
        <time>2012-05-12T07:41:51Z</time>
      </trkpt>
      <trkpt lat="45.56355" lon="4.55047">
        <ele>669</ele>
        <time>2012-05-12T07:41:52Z</time>
      </trkpt>
      <trkpt lat="45.56351" lon="4.55048">
        <ele>669</ele>
        <time>2012-05-12T07:41:53Z</time>
      </trkpt>
      <trkpt lat="45.56341" lon="4.55063">
        <ele>665</ele>
        <time>2012-05-12T07:41:57Z</time>
      </trkpt>
      <trkpt lat="45.56336" lon="4.55066">
        <ele>664</ele>
        <time>2012-05-12T07:41:58Z</time>
      </trkpt>
      <trkpt lat="45.56327" lon="4.55071">
        <ele>663</ele>
        <time>2012-05-12T07:42:00Z</time>
      </trkpt>
      <trkpt lat="45.56323" lon="4.55074">
        <ele>662</ele>
        <time>2012-05-12T07:42:01Z</time>
      </trkpt>
      <trkpt lat="45.56319" lon="4.55076">
        <ele>662</ele>
        <time>2012-05-12T07:42:02Z</time>
      </trkpt>
      <trkpt lat="45.56314" lon="4.55077">
        <ele>661</ele>
        <time>2012-05-12T07:42:03Z</time>
      </trkpt>
      <trkpt lat="45.5631" lon="4.55078">
        <ele>660</ele>
        <time>2012-05-12T07:42:04Z</time>
      </trkpt>
      <trkpt lat="45.56306" lon="4.55079">
        <ele>659</ele>
        <time>2012-05-12T07:42:05Z</time>
      </trkpt>
      <trkpt lat="45.56303" lon="4.5508">
        <ele>659</ele>
        <time>2012-05-12T07:42:06Z</time>
      </trkpt>
      <trkpt lat="45.563" lon="4.55081">
        <ele>659</ele>
        <time>2012-05-12T07:42:07Z</time>
      </trkpt>
      <trkpt lat="45.56297" lon="4.55084">
        <ele>658</ele>
        <time>2012-05-12T07:42:08Z</time>
      </trkpt>
      <trkpt lat="45.56295" lon="4.55089">
        <ele>657</ele>
        <time>2012-05-12T07:42:09Z</time>
      </trkpt>
      <trkpt lat="45.56293" lon="4.55094">
        <ele>657</ele>
        <time>2012-05-12T07:42:10Z</time>
      </trkpt>
      <trkpt lat="45.56292" lon="4.55098">
        <ele>657</ele>
        <time>2012-05-12T07:42:11Z</time>
      </trkpt>
      <trkpt lat="45.56289" lon="4.55101">
        <ele>656</ele>
        <time>2012-05-12T07:42:12Z</time>
      </trkpt>
      <trkpt lat="45.56286" lon="4.55104">
        <ele>655</ele>
        <time>2012-05-12T07:42:13Z</time>
      </trkpt>
      <trkpt lat="45.56278" lon="4.55108">
        <ele>654</ele>
        <time>2012-05-12T07:42:16Z</time>
      </trkpt>
      <trkpt lat="45.56264" lon="4.55112">
        <ele>651</ele>
        <time>2012-05-12T07:42:21Z</time>
      </trkpt>
      <trkpt lat="45.56258" lon="4.55115">
        <ele>650</ele>
        <time>2012-05-12T07:42:23Z</time>
      </trkpt>
      <trkpt lat="45.56257" lon="4.55118">
        <ele>649</ele>
        <time>2012-05-12T07:42:24Z</time>
      </trkpt>
      <trkpt lat="45.56255" lon="4.5512">
        <ele>649</ele>
        <time>2012-05-12T07:42:25Z</time>
      </trkpt>
      <trkpt lat="45.56253" lon="4.55121">
        <ele>648</ele>
        <time>2012-05-12T07:42:26Z</time>
      </trkpt>
      <trkpt lat="45.56251" lon="4.55123">
        <ele>647</ele>
        <time>2012-05-12T07:42:27Z</time>
      </trkpt>
      <trkpt lat="45.56249" lon="4.55124">
        <ele>647</ele>
        <time>2012-05-12T07:42:28Z</time>
      </trkpt>
      <trkpt lat="45.56246" lon="4.55125">
        <ele>646</ele>
        <time>2012-05-12T07:42:29Z</time>
      </trkpt>
      <trkpt lat="45.56243" lon="4.55127">
        <ele>645</ele>
        <time>2012-05-12T07:42:30Z</time>
      </trkpt>
      <trkpt lat="45.5624" lon="4.55129">
        <ele>644</ele>
        <time>2012-05-12T07:42:31Z</time>
      </trkpt>
      <trkpt lat="45.56238" lon="4.5513">
        <ele>644</ele>
        <time>2012-05-12T07:42:32Z</time>
      </trkpt>
      <trkpt lat="45.56222" lon="4.55138">
        <ele>641</ele>
        <time>2012-05-12T07:42:37Z</time>
      </trkpt>
      <trkpt lat="45.56219" lon="4.5514">
        <ele>641</ele>
        <time>2012-05-12T07:42:38Z</time>
      </trkpt>
      <trkpt lat="45.56216" lon="4.5514">
        <ele>640</ele>
        <time>2012-05-12T07:42:39Z</time>
      </trkpt>
      <trkpt lat="45.56213" lon="4.55141">
        <ele>639</ele>
        <time>2012-05-12T07:42:40Z</time>
      </trkpt>
      <trkpt lat="45.56208" lon="4.55145">
        <ele>638</ele>
        <time>2012-05-12T07:42:43Z</time>
      </trkpt>
      <trkpt lat="45.56206" lon="4.55147">
        <ele>637</ele>
        <time>2012-05-12T07:42:46Z</time>
      </trkpt>
      <trkpt lat="45.56201" lon="4.5515">
        <ele>637</ele>
        <time>2012-05-12T07:42:56Z</time>
      </trkpt>
      <trkpt lat="45.562" lon="4.55152">
        <ele>637</ele>
        <time>2012-05-12T07:43:08Z</time>
      </trkpt>
      <trkpt lat="45.56198" lon="4.55156">
        <ele>637</ele>
        <time>2012-05-12T07:43:21Z</time>
      </trkpt>
      <trkpt lat="45.56199" lon="4.55162">
        <ele>637</ele>
        <time>2012-05-12T07:43:26Z</time>
      </trkpt>
      <trkpt lat="45.56201" lon="4.5517">
        <ele>637</ele>
        <time>2012-05-12T07:43:32Z</time>
      </trkpt>
      <trkpt lat="45.56201" lon="4.55171">
        <ele>637</ele>
        <time>2012-05-12T07:43:42Z</time>
      </trkpt>
      <trkpt lat="45.56201" lon="4.55171">
        <ele>636</ele>
        <time>2012-05-12T07:43:52Z</time>
      </trkpt>
      <trkpt lat="45.56201" lon="4.55171">
        <ele>637</ele>
        <time>2012-05-12T07:43:56Z</time>
      </trkpt>
      <trkpt lat="45.562" lon="4.55173">
        <ele>636</ele>
        <time>2012-05-12T07:43:57Z</time>
      </trkpt>
      <trkpt lat="45.56199" lon="4.55174">
        <ele>636</ele>
        <time>2012-05-12T07:43:58Z</time>
      </trkpt>
      <trkpt lat="45.56198" lon="4.55176">
        <ele>635</ele>
        <time>2012-05-12T07:43:59Z</time>
      </trkpt>
      <trkpt lat="45.56196" lon="4.55178">
        <ele>635</ele>
        <time>2012-05-12T07:44:00Z</time>
      </trkpt>
      <trkpt lat="45.56185" lon="4.5519">
        <ele>631</ele>
        <time>2012-05-12T07:44:05Z</time>
      </trkpt>
      <trkpt lat="45.56181" lon="4.55195">
        <ele>630</ele>
        <time>2012-05-12T07:44:07Z</time>
      </trkpt>
      <trkpt lat="45.56179" lon="4.55195">
        <ele>629</ele>
        <time>2012-05-12T07:44:08Z</time>
      </trkpt>
      <trkpt lat="45.56177" lon="4.55195">
        <ele>629</ele>
        <time>2012-05-12T07:44:09Z</time>
      </trkpt>
      <trkpt lat="45.56173" lon="4.55195">
        <ele>629</ele>
        <time>2012-05-12T07:44:12Z</time>
      </trkpt>
      <trkpt lat="45.56171" lon="4.55197">
        <ele>628</ele>
        <time>2012-05-12T07:44:15Z</time>
      </trkpt>
      <trkpt lat="45.56172" lon="4.55199">
        <ele>628</ele>
        <time>2012-05-12T07:44:16Z</time>
      </trkpt>
      <trkpt lat="45.56172" lon="4.55201">
        <ele>628</ele>
        <time>2012-05-12T07:44:17Z</time>
      </trkpt>
      <trkpt lat="45.56173" lon="4.55203">
        <ele>628</ele>
        <time>2012-05-12T07:44:18Z</time>
      </trkpt>
      <trkpt lat="45.56174" lon="4.55205">
        <ele>628</ele>
        <time>2012-05-12T07:44:19Z</time>
      </trkpt>
      <trkpt lat="45.56175" lon="4.55207">
        <ele>628</ele>
        <time>2012-05-12T07:44:20Z</time>
      </trkpt>
      <trkpt lat="45.56177" lon="4.55209">
        <ele>628</ele>
        <time>2012-05-12T07:44:21Z</time>
      </trkpt>
      <trkpt lat="45.56194" lon="4.55235">
        <ele>627</ele>
        <time>2012-05-12T07:44:30Z</time>
      </trkpt>
      <trkpt lat="45.56217" lon="4.55256">
        <ele>625</ele>
        <time>2012-05-12T07:44:37Z</time>
      </trkpt>
      <trkpt lat="45.56232" lon="4.55265">
        <ele>624</ele>
        <time>2012-05-12T07:44:40Z</time>
      </trkpt>
      <trkpt lat="45.5625" lon="4.55269">
        <ele>624</ele>
        <time>2012-05-12T07:44:43Z</time>
      </trkpt>
      <trkpt lat="45.56255" lon="4.55269">
        <ele>623</ele>
        <time>2012-05-12T07:44:44Z</time>
      </trkpt>
      <trkpt lat="45.56264" lon="4.55267">
        <ele>622</ele>
        <time>2012-05-12T07:44:46Z</time>
      </trkpt>
      <trkpt lat="45.5627" lon="4.55266">
        <ele>620</ele>
        <time>2012-05-12T07:44:48Z</time>
      </trkpt>
      <trkpt lat="45.56272" lon="4.55269">
        <ele>620</ele>
        <time>2012-05-12T07:44:49Z</time>
      </trkpt>
      <trkpt lat="45.56272" lon="4.5528">
        <ele>618</ele>
        <time>2012-05-12T07:44:52Z</time>
      </trkpt>
      <trkpt lat="45.56267" lon="4.55287">
        <ele>617</ele>
        <time>2012-05-12T07:44:54Z</time>
      </trkpt>
      <trkpt lat="45.56264" lon="4.55292">
        <ele>617</ele>
        <time>2012-05-12T07:44:55Z</time>
      </trkpt>
      <trkpt lat="45.56258" lon="4.55304">
        <ele>616</ele>
        <time>2012-05-12T07:44:57Z</time>
      </trkpt>
      <trkpt lat="45.56234" lon="4.55345">
        <ele>613</ele>
        <time>2012-05-12T07:45:02Z</time>
      </trkpt>
      <trkpt lat="45.56222" lon="4.55364">
        <ele>609</ele>
        <time>2012-05-12T07:45:04Z</time>
      </trkpt>
      <trkpt lat="45.5621" lon="4.55383">
        <ele>606</ele>
        <time>2012-05-12T07:45:06Z</time>
      </trkpt>
      <trkpt lat="45.56203" lon="4.55393">
        <ele>604</ele>
        <time>2012-05-12T07:45:07Z</time>
      </trkpt>
      <trkpt lat="45.56189" lon="4.55414">
        <ele>600</ele>
        <time>2012-05-12T07:45:09Z</time>
      </trkpt>
      <trkpt lat="45.56182" lon="4.55424">
        <ele>600</ele>
        <time>2012-05-12T07:45:10Z</time>
      </trkpt>
      <trkpt lat="45.56168" lon="4.55444">
        <ele>597</ele>
        <time>2012-05-12T07:45:12Z</time>
      </trkpt>
      <trkpt lat="45.56148" lon="4.55469">
        <ele>593</ele>
        <time>2012-05-12T07:45:15Z</time>
      </trkpt>
      <trkpt lat="45.56133" lon="4.55486">
        <ele>589</ele>
        <time>2012-05-12T07:45:18Z</time>
      </trkpt>
      <trkpt lat="45.56126" lon="4.55495">
        <ele>587</ele>
        <time>2012-05-12T07:45:20Z</time>
      </trkpt>
      <trkpt lat="45.56121" lon="4.555">
        <ele>587</ele>
        <time>2012-05-12T07:45:21Z</time>
      </trkpt>
      <trkpt lat="45.56098" lon="4.55517">
        <ele>585</ele>
        <time>2012-05-12T07:45:25Z</time>
      </trkpt>
      <trkpt lat="45.56094" lon="4.55523">
        <ele>584</ele>
        <time>2012-05-12T07:45:26Z</time>
      </trkpt>
      <trkpt lat="45.56092" lon="4.55531">
        <ele>584</ele>
        <time>2012-05-12T07:45:27Z</time>
      </trkpt>
      <trkpt lat="45.56081" lon="4.55595">
        <ele>582</ele>
        <time>2012-05-12T07:45:34Z</time>
      </trkpt>
      <trkpt lat="45.5608" lon="4.55605">
        <ele>582</ele>
        <time>2012-05-12T07:45:35Z</time>
      </trkpt>
      <trkpt lat="45.5608" lon="4.55614">
        <ele>582</ele>
        <time>2012-05-12T07:45:36Z</time>
      </trkpt>
      <trkpt lat="45.5608" lon="4.55623">
        <ele>582</ele>
        <time>2012-05-12T07:45:37Z</time>
      </trkpt>
      <trkpt lat="45.56074" lon="4.55686">
        <ele>581</ele>
        <time>2012-05-12T07:45:45Z</time>
      </trkpt>
      <trkpt lat="45.56067" lon="4.55758">
        <ele>582</ele>
        <time>2012-05-12T07:45:55Z</time>
      </trkpt>
      <trkpt lat="45.56063" lon="4.55793">
        <ele>582</ele>
        <time>2012-05-12T07:46:00Z</time>
      </trkpt>
      <trkpt lat="45.56062" lon="4.55806">
        <ele>583</ele>
        <time>2012-05-12T07:46:02Z</time>
      </trkpt>
      <trkpt lat="45.56061" lon="4.55813">
        <ele>583</ele>
        <time>2012-05-12T07:46:03Z</time>
      </trkpt>
      <trkpt lat="45.56057" lon="4.55845">
        <ele>584</ele>
        <time>2012-05-12T07:46:08Z</time>
      </trkpt>
      <trkpt lat="45.56057" lon="4.55851">
        <ele>584</ele>
        <time>2012-05-12T07:46:09Z</time>
      </trkpt>
      <trkpt lat="45.56056" lon="4.55857">
        <ele>585</ele>
        <time>2012-05-12T07:46:10Z</time>
      </trkpt>
      <trkpt lat="45.56056" lon="4.55863">
        <ele>584</ele>
        <time>2012-05-12T07:46:11Z</time>
      </trkpt>
      <trkpt lat="45.56055" lon="4.55869">
        <ele>585</ele>
        <time>2012-05-12T07:46:12Z</time>
      </trkpt>
      <trkpt lat="45.56057" lon="4.55903">
        <ele>586</ele>
        <time>2012-05-12T07:46:18Z</time>
      </trkpt>
      <trkpt lat="45.56061" lon="4.55942">
        <ele>587</ele>
        <time>2012-05-12T07:46:25Z</time>
      </trkpt>
      <trkpt lat="45.56063" lon="4.55981">
        <ele>589</ele>
        <time>2012-05-12T07:46:33Z</time>
      </trkpt>
      <trkpt lat="45.56066" lon="4.5601">
        <ele>589</ele>
        <time>2012-05-12T07:46:39Z</time>
      </trkpt>
      <trkpt lat="45.56073" lon="4.56063">
        <ele>591</ele>
        <time>2012-05-12T07:46:50Z</time>
      </trkpt>
      <trkpt lat="45.56083" lon="4.56107">
        <ele>592</ele>
        <time>2012-05-12T07:46:59Z</time>
      </trkpt>
      <trkpt lat="45.56092" lon="4.56145">
        <ele>594</ele>
        <time>2012-05-12T07:47:07Z</time>
      </trkpt>
      <trkpt lat="45.56097" lon="4.56174">
        <ele>595</ele>
        <time>2012-05-12T07:47:13Z</time>
      </trkpt>
      <trkpt lat="45.56102" lon="4.56216">
        <ele>597</ele>
        <time>2012-05-12T07:47:21Z</time>
      </trkpt>
      <trkpt lat="45.5611" lon="4.56257">
        <ele>597</ele>
        <time>2012-05-12T07:47:29Z</time>
      </trkpt>
      <trkpt lat="45.5612" lon="4.56315">
        <ele>596</ele>
        <time>2012-05-12T07:47:39Z</time>
      </trkpt>
      <trkpt lat="45.56124" lon="4.56336">
        <ele>595</ele>
        <time>2012-05-12T07:47:42Z</time>
      </trkpt>
      <trkpt lat="45.56125" lon="4.56362">
        <ele>594</ele>
        <time>2012-05-12T07:47:45Z</time>
      </trkpt>
      <trkpt lat="45.56124" lon="4.56396">
        <ele>591</ele>
        <time>2012-05-12T07:47:48Z</time>
      </trkpt>
      <trkpt lat="45.56122" lon="4.56407">
        <ele>590</ele>
        <time>2012-05-12T07:47:49Z</time>
      </trkpt>
      <trkpt lat="45.56119" lon="4.5642">
        <ele>589</ele>
        <time>2012-05-12T07:47:50Z</time>
      </trkpt>
      <trkpt lat="45.56117" lon="4.56445">
        <ele>588</ele>
        <time>2012-05-12T07:47:52Z</time>
      </trkpt>
      <trkpt lat="45.56117" lon="4.56458">
        <ele>587</ele>
        <time>2012-05-12T07:47:53Z</time>
      </trkpt>
      <trkpt lat="45.56119" lon="4.5647">
        <ele>587</ele>
        <time>2012-05-12T07:47:54Z</time>
      </trkpt>
      <trkpt lat="45.56129" lon="4.56517">
        <ele>587</ele>
        <time>2012-05-12T07:47:59Z</time>
      </trkpt>
      <trkpt lat="45.56131" lon="4.56525">
        <ele>586</ele>
        <time>2012-05-12T07:48:00Z</time>
      </trkpt>
      <trkpt lat="45.5614" lon="4.56589">
        <ele>587</ele>
        <time>2012-05-12T07:48:08Z</time>
      </trkpt>
      <trkpt lat="45.56141" lon="4.56595">
        <ele>588</ele>
        <time>2012-05-12T07:48:09Z</time>
      </trkpt>
      <trkpt lat="45.56142" lon="4.56614">
        <ele>588</ele>
        <time>2012-05-12T07:48:12Z</time>
      </trkpt>
      <trkpt lat="45.56136" lon="4.56667">
        <ele>588</ele>
        <time>2012-05-12T07:48:20Z</time>
      </trkpt>
      <trkpt lat="45.56133" lon="4.56688">
        <ele>588</ele>
        <time>2012-05-12T07:48:23Z</time>
      </trkpt>
      <trkpt lat="45.56132" lon="4.56694">
        <ele>588</ele>
        <time>2012-05-12T07:48:24Z</time>
      </trkpt>
      <trkpt lat="45.56132" lon="4.56701">
        <ele>587</ele>
        <time>2012-05-12T07:48:25Z</time>
      </trkpt>
      <trkpt lat="45.56132" lon="4.56707">
        <ele>588</ele>
        <time>2012-05-12T07:48:26Z</time>
      </trkpt>
      <trkpt lat="45.56132" lon="4.56713">
        <ele>588</ele>
        <time>2012-05-12T07:48:27Z</time>
      </trkpt>
      <trkpt lat="45.56132" lon="4.5672">
        <ele>587</ele>
        <time>2012-05-12T07:48:28Z</time>
      </trkpt>
      <trkpt lat="45.56133" lon="4.56726">
        <ele>587</ele>
        <time>2012-05-12T07:48:29Z</time>
      </trkpt>
      <trkpt lat="45.56134" lon="4.56732">
        <ele>587</ele>
        <time>2012-05-12T07:48:30Z</time>
      </trkpt>
      <trkpt lat="45.56136" lon="4.56738">
        <ele>587</ele>
        <time>2012-05-12T07:48:31Z</time>
      </trkpt>
      <trkpt lat="45.56138" lon="4.56745">
        <ele>587</ele>
        <time>2012-05-12T07:48:32Z</time>
      </trkpt>
      <trkpt lat="45.5614" lon="4.56752">
        <ele>587</ele>
        <time>2012-05-12T07:48:33Z</time>
      </trkpt>
      <trkpt lat="45.56141" lon="4.56759">
        <ele>587</ele>
        <time>2012-05-12T07:48:34Z</time>
      </trkpt>
      <trkpt lat="45.56147" lon="4.5682">
        <ele>585</ele>
        <time>2012-05-12T07:48:41Z</time>
      </trkpt>
      <trkpt lat="45.56146" lon="4.56829">
        <ele>585</ele>
        <time>2012-05-12T07:48:42Z</time>
      </trkpt>
      <trkpt lat="45.56134" lon="4.56912">
        <ele>583</ele>
        <time>2012-05-12T07:48:51Z</time>
      </trkpt>
      <trkpt lat="45.56133" lon="4.56921">
        <ele>583</ele>
        <time>2012-05-12T07:48:52Z</time>
      </trkpt>
      <trkpt lat="45.56134" lon="4.56929">
        <ele>583</ele>
        <time>2012-05-12T07:48:53Z</time>
      </trkpt>
      <trkpt lat="45.56135" lon="4.56946">
        <ele>583</ele>
        <time>2012-05-12T07:48:55Z</time>
      </trkpt>
      <trkpt lat="45.56136" lon="4.56955">
        <ele>583</ele>
        <time>2012-05-12T07:48:56Z</time>
      </trkpt>
      <trkpt lat="45.56139" lon="4.56978">
        <ele>584</ele>
        <time>2012-05-12T07:48:59Z</time>
      </trkpt>
      <trkpt lat="45.5614" lon="4.56985">
        <ele>584</ele>
        <time>2012-05-12T07:49:00Z</time>
      </trkpt>
      <trkpt lat="45.56142" lon="4.56991">
        <ele>585</ele>
        <time>2012-05-12T07:49:01Z</time>
      </trkpt>
      <trkpt lat="45.56144" lon="4.56996">
        <ele>585</ele>
        <time>2012-05-12T07:49:02Z</time>
      </trkpt>
      <trkpt lat="45.56144" lon="4.57003">
        <ele>586</ele>
        <time>2012-05-12T07:49:03Z</time>
      </trkpt>
      <trkpt lat="45.56144" lon="4.57011">
        <ele>586</ele>
        <time>2012-05-12T07:49:04Z</time>
      </trkpt>
      <trkpt lat="45.56145" lon="4.57019">
        <ele>586</ele>
        <time>2012-05-12T07:49:05Z</time>
      </trkpt>
      <trkpt lat="45.56147" lon="4.57044">
        <ele>587</ele>
        <time>2012-05-12T07:49:08Z</time>
      </trkpt>
      <trkpt lat="45.56147" lon="4.57052">
        <ele>587</ele>
        <time>2012-05-12T07:49:09Z</time>
      </trkpt>
      <trkpt lat="45.56148" lon="4.57059">
        <ele>587</ele>
        <time>2012-05-12T07:49:10Z</time>
      </trkpt>
      <trkpt lat="45.56148" lon="4.57066">
        <ele>587</ele>
        <time>2012-05-12T07:49:11Z</time>
      </trkpt>
      <trkpt lat="45.56147" lon="4.57073">
        <ele>587</ele>
        <time>2012-05-12T07:49:12Z</time>
      </trkpt>
      <trkpt lat="45.56141" lon="4.57109">
        <ele>588</ele>
        <time>2012-05-12T07:49:18Z</time>
      </trkpt>
      <trkpt lat="45.5614" lon="4.57115">
        <ele>588</ele>
        <time>2012-05-12T07:49:19Z</time>
      </trkpt>
      <trkpt lat="45.56139" lon="4.5712">
        <ele>588</ele>
        <time>2012-05-12T07:49:20Z</time>
      </trkpt>
      <trkpt lat="45.56138" lon="4.57126">
        <ele>589</ele>
        <time>2012-05-12T07:49:21Z</time>
      </trkpt>
      <trkpt lat="45.56137" lon="4.57131">
        <ele>589</ele>
        <time>2012-05-12T07:49:22Z</time>
      </trkpt>
      <trkpt lat="45.56136" lon="4.57137">
        <ele>589</ele>
        <time>2012-05-12T07:49:23Z</time>
      </trkpt>
      <trkpt lat="45.56135" lon="4.57143">
        <ele>589</ele>
        <time>2012-05-12T07:49:24Z</time>
      </trkpt>
      <trkpt lat="45.56131" lon="4.57173">
        <ele>589</ele>
        <time>2012-05-12T07:49:29Z</time>
      </trkpt>
      <trkpt lat="45.5613" lon="4.57185">
        <ele>589</ele>
        <time>2012-05-12T07:49:31Z</time>
      </trkpt>
      <trkpt lat="45.56128" lon="4.57197">
        <ele>589</ele>
        <time>2012-05-12T07:49:33Z</time>
      </trkpt>
      <trkpt lat="45.56125" lon="4.57203">
        <ele>589</ele>
        <time>2012-05-12T07:49:34Z</time>
      </trkpt>
      <trkpt lat="45.56123" lon="4.57209">
        <ele>589</ele>
        <time>2012-05-12T07:49:35Z</time>
      </trkpt>
      <trkpt lat="45.5611" lon="4.57231">
        <ele>588</ele>
        <time>2012-05-12T07:49:39Z</time>
      </trkpt>
      <trkpt lat="45.5609" lon="4.57257">
        <ele>587</ele>
        <time>2012-05-12T07:49:44Z</time>
      </trkpt>
      <trkpt lat="45.56087" lon="4.57262">
        <ele>587</ele>
        <time>2012-05-12T07:49:45Z</time>
      </trkpt>
      <trkpt lat="45.56084" lon="4.57268">
        <ele>587</ele>
        <time>2012-05-12T07:49:46Z</time>
      </trkpt>
      <trkpt lat="45.56081" lon="4.57274">
        <ele>587</ele>
        <time>2012-05-12T07:49:47Z</time>
      </trkpt>
      <trkpt lat="45.56078" lon="4.57281">
        <ele>587</ele>
        <time>2012-05-12T07:49:48Z</time>
      </trkpt>
      <trkpt lat="45.56076" lon="4.57287">
        <ele>586</ele>
        <time>2012-05-12T07:49:49Z</time>
      </trkpt>
      <trkpt lat="45.56073" lon="4.573">
        <ele>586</ele>
        <time>2012-05-12T07:49:51Z</time>
      </trkpt>
      <trkpt lat="45.56071" lon="4.57306">
        <ele>586</ele>
        <time>2012-05-12T07:49:52Z</time>
      </trkpt>
      <trkpt lat="45.5607" lon="4.57312">
        <ele>586</ele>
        <time>2012-05-12T07:49:53Z</time>
      </trkpt>
      <trkpt lat="45.56066" lon="4.57338">
        <ele>586</ele>
        <time>2012-05-12T07:49:57Z</time>
      </trkpt>
      <trkpt lat="45.56065" lon="4.57344">
        <ele>587</ele>
        <time>2012-05-12T07:49:58Z</time>
      </trkpt>
      <trkpt lat="45.56063" lon="4.57348">
        <ele>586</ele>
        <time>2012-05-12T07:49:59Z</time>
      </trkpt>
      <trkpt lat="45.5606" lon="4.57351">
        <ele>586</ele>
        <time>2012-05-12T07:50:00Z</time>
      </trkpt>
      <trkpt lat="45.56057" lon="4.5735">
        <ele>586</ele>
        <time>2012-05-12T07:50:01Z</time>
      </trkpt>
      <trkpt lat="45.56053" lon="4.57349">
        <ele>587</ele>
        <time>2012-05-12T07:50:02Z</time>
      </trkpt>
      <trkpt lat="45.5605" lon="4.57347">
        <ele>587</ele>
        <time>2012-05-12T07:50:03Z</time>
      </trkpt>
      <trkpt lat="45.56047" lon="4.57346">
        <ele>587</ele>
        <time>2012-05-12T07:50:04Z</time>
      </trkpt>
      <trkpt lat="45.5604" lon="4.57343">
        <ele>588</ele>
        <time>2012-05-12T07:50:07Z</time>
      </trkpt>
      <trkpt lat="45.56021" lon="4.57333">
        <ele>590</ele>
        <time>2012-05-12T07:50:15Z</time>
      </trkpt>
      <trkpt lat="45.55998" lon="4.57325">
        <ele>591</ele>
        <time>2012-05-12T07:50:24Z</time>
      </trkpt>
      <trkpt lat="45.55979" lon="4.57321">
        <ele>592</ele>
        <time>2012-05-12T07:50:32Z</time>
      </trkpt>
      <trkpt lat="45.55957" lon="4.57314">
        <ele>590</ele>
        <time>2012-05-12T07:50:39Z</time>
      </trkpt>
      <trkpt lat="45.55953" lon="4.5731">
        <ele>590</ele>
        <time>2012-05-12T07:50:40Z</time>
      </trkpt>
      <trkpt lat="45.55947" lon="4.57306">
        <ele>590</ele>
        <time>2012-05-12T07:50:41Z</time>
      </trkpt>
      <trkpt lat="45.55942" lon="4.57302">
        <ele>590</ele>
        <time>2012-05-12T07:50:42Z</time>
      </trkpt>
      <trkpt lat="45.55936" lon="4.573">
        <ele>588</ele>
        <time>2012-05-12T07:50:43Z</time>
      </trkpt>
      <trkpt lat="45.55929" lon="4.57298">
        <ele>588</ele>
        <time>2012-05-12T07:50:44Z</time>
      </trkpt>
      <trkpt lat="45.55907" lon="4.57289">
        <ele>586</ele>
        <time>2012-05-12T07:50:47Z</time>
      </trkpt>
      <trkpt lat="45.55884" lon="4.5728">
        <ele>584</ele>
        <time>2012-05-12T07:50:50Z</time>
      </trkpt>
      <trkpt lat="45.55876" lon="4.57276">
        <ele>583</ele>
        <time>2012-05-12T07:50:51Z</time>
      </trkpt>
      <trkpt lat="45.55828" lon="4.57253">
        <ele>580</ele>
        <time>2012-05-12T07:50:57Z</time>
      </trkpt>
      <trkpt lat="45.55793" lon="4.57234">
        <ele>579</ele>
        <time>2012-05-12T07:51:02Z</time>
      </trkpt>
      <trkpt lat="45.55785" lon="4.5723">
        <ele>578</ele>
        <time>2012-05-12T07:51:03Z</time>
      </trkpt>
      <trkpt lat="45.55777" lon="4.57226">
        <ele>577</ele>
        <time>2012-05-12T07:51:04Z</time>
      </trkpt>
      <trkpt lat="45.55768" lon="4.57223">
        <ele>577</ele>
        <time>2012-05-12T07:51:05Z</time>
      </trkpt>
      <trkpt lat="45.5576" lon="4.57223">
        <ele>576</ele>
        <time>2012-05-12T07:51:06Z</time>
      </trkpt>
      <trkpt lat="45.55752" lon="4.57223">
        <ele>575</ele>
        <time>2012-05-12T07:51:07Z</time>
      </trkpt>
      <trkpt lat="45.55745" lon="4.57224">
        <ele>575</ele>
        <time>2012-05-12T07:51:08Z</time>
      </trkpt>
      <trkpt lat="45.55721" lon="4.57226">
        <ele>574</ele>
        <time>2012-05-12T07:51:11Z</time>
      </trkpt>
      <trkpt lat="45.55705" lon="4.57224">
        <ele>573</ele>
        <time>2012-05-12T07:51:13Z</time>
      </trkpt>
      <trkpt lat="45.55697" lon="4.57222">
        <ele>573</ele>
        <time>2012-05-12T07:51:14Z</time>
      </trkpt>
      <trkpt lat="45.55668" lon="4.57214">
        <ele>571</ele>
        <time>2012-05-12T07:51:18Z</time>
      </trkpt>
      <trkpt lat="45.55645" lon="4.57206">
        <ele>570</ele>
        <time>2012-05-12T07:51:21Z</time>
      </trkpt>
      <trkpt lat="45.55622" lon="4.57198">
        <ele>570</ele>
        <time>2012-05-12T07:51:24Z</time>
      </trkpt>
      <trkpt lat="45.55609" lon="4.57193">
        <ele>569</ele>
        <time>2012-05-12T07:51:26Z</time>
      </trkpt>
      <trkpt lat="45.55573" lon="4.57186">
        <ele>568</ele>
        <time>2012-05-12T07:51:32Z</time>
      </trkpt>
      <trkpt lat="45.55563" lon="4.57184">
        <ele>568</ele>
        <time>2012-05-12T07:51:34Z</time>
      </trkpt>
      <trkpt lat="45.55559" lon="4.57185">
        <ele>568</ele>
        <time>2012-05-12T07:51:35Z</time>
      </trkpt>
      <trkpt lat="45.55554" lon="4.57185">
        <ele>568</ele>
        <time>2012-05-12T07:51:36Z</time>
      </trkpt>
      <trkpt lat="45.55524" lon="4.57183">
        <ele>571</ele>
        <time>2012-05-12T07:51:43Z</time>
      </trkpt>
      <trkpt lat="45.55503" lon="4.57184">
        <ele>572</ele>
        <time>2012-05-12T07:51:49Z</time>
      </trkpt>
      <trkpt lat="45.55492" lon="4.57187">
        <ele>572</ele>
        <time>2012-05-12T07:51:53Z</time>
      </trkpt>
      <trkpt lat="45.55489" lon="4.57188">
        <ele>573</ele>
        <time>2012-05-12T07:51:54Z</time>
      </trkpt>
      <trkpt lat="45.55486" lon="4.57189">
        <ele>573</ele>
        <time>2012-05-12T07:51:55Z</time>
      </trkpt>
      <trkpt lat="45.55483" lon="4.5719">
        <ele>573</ele>
        <time>2012-05-12T07:51:56Z</time>
      </trkpt>
      <trkpt lat="45.5548" lon="4.57191">
        <ele>573</ele>
        <time>2012-05-12T07:51:57Z</time>
      </trkpt>
      <trkpt lat="45.55466" lon="4.57199">
        <ele>573</ele>
        <time>2012-05-12T07:52:02Z</time>
      </trkpt>
      <trkpt lat="45.55451" lon="4.57214">
        <ele>572</ele>
        <time>2012-05-12T07:52:08Z</time>
      </trkpt>
      <trkpt lat="45.55448" lon="4.57218">
        <ele>572</ele>
        <time>2012-05-12T07:52:09Z</time>
      </trkpt>
      <trkpt lat="45.55445" lon="4.57223">
        <ele>572</ele>
        <time>2012-05-12T07:52:10Z</time>
      </trkpt>
      <trkpt lat="45.55431" lon="4.57252">
        <ele>571</ele>
        <time>2012-05-12T07:52:16Z</time>
      </trkpt>
      <trkpt lat="45.5542" lon="4.57274">
        <ele>570</ele>
        <time>2012-05-12T07:52:21Z</time>
      </trkpt>
      <trkpt lat="45.55414" lon="4.57285">
        <ele>568</ele>
        <time>2012-05-12T07:52:23Z</time>
      </trkpt>
      <trkpt lat="45.55412" lon="4.57292">
        <ele>568</ele>
        <time>2012-05-12T07:52:24Z</time>
      </trkpt>
      <trkpt lat="45.55405" lon="4.57311">
        <ele>566</ele>
        <time>2012-05-12T07:52:28Z</time>
      </trkpt>
      <trkpt lat="45.55396" lon="4.57339">
        <ele>563</ele>
        <time>2012-05-12T07:52:34Z</time>
      </trkpt>
      <trkpt lat="45.55389" lon="4.57363">
        <ele>560</ele>
        <time>2012-05-12T07:52:39Z</time>
      </trkpt>
      <trkpt lat="45.55385" lon="4.57371">
        <ele>559</ele>
        <time>2012-05-12T07:52:41Z</time>
      </trkpt>
      <trkpt lat="45.55373" lon="4.57389">
        <ele>556</ele>
        <time>2012-05-12T07:52:46Z</time>
      </trkpt>
      <trkpt lat="45.55362" lon="4.57399">
        <ele>553</ele>
        <time>2012-05-12T07:52:49Z</time>
      </trkpt>
      <trkpt lat="45.55347" lon="4.57417">
        <ele>550</ele>
        <time>2012-05-12T07:52:54Z</time>
      </trkpt>
      <trkpt lat="45.55343" lon="4.57419">
        <ele>549</ele>
        <time>2012-05-12T07:52:55Z</time>
      </trkpt>
      <trkpt lat="45.55339" lon="4.57419">
        <ele>549</ele>
        <time>2012-05-12T07:52:56Z</time>
      </trkpt>
      <trkpt lat="45.55336" lon="4.57418">
        <ele>548</ele>
        <time>2012-05-12T07:52:57Z</time>
      </trkpt>
      <trkpt lat="45.55333" lon="4.57418">
        <ele>547</ele>
        <time>2012-05-12T07:52:58Z</time>
      </trkpt>
      <trkpt lat="45.5533" lon="4.57419">
        <ele>546</ele>
        <time>2012-05-12T07:52:59Z</time>
      </trkpt>
      <trkpt lat="45.55319" lon="4.57426">
        <ele>544</ele>
        <time>2012-05-12T07:53:03Z</time>
      </trkpt>
      <trkpt lat="45.55314" lon="4.57425">
        <ele>543</ele>
        <time>2012-05-12T07:53:04Z</time>
      </trkpt>
      <trkpt lat="45.5531" lon="4.57424">
        <ele>542</ele>
        <time>2012-05-12T07:53:05Z</time>
      </trkpt>
      <trkpt lat="45.55307" lon="4.57424">
        <ele>541</ele>
        <time>2012-05-12T07:53:06Z</time>
      </trkpt>
      <trkpt lat="45.55304" lon="4.57426">
        <ele>540</ele>
        <time>2012-05-12T07:53:07Z</time>
      </trkpt>
      <trkpt lat="45.55302" lon="4.57428">
        <ele>540</ele>
        <time>2012-05-12T07:53:08Z</time>
      </trkpt>
      <trkpt lat="45.55301" lon="4.5743">
        <ele>539</ele>
        <time>2012-05-12T07:53:09Z</time>
      </trkpt>
      <trkpt lat="45.55299" lon="4.57433">
        <ele>538</ele>
        <time>2012-05-12T07:53:10Z</time>
      </trkpt>
      <trkpt lat="45.55297" lon="4.57435">
        <ele>537</ele>
        <time>2012-05-12T07:53:11Z</time>
      </trkpt>
      <trkpt lat="45.55294" lon="4.57434">
        <ele>538</ele>
        <time>2012-05-12T07:53:12Z</time>
      </trkpt>
      <trkpt lat="45.55292" lon="4.57432">
        <ele>537</ele>
        <time>2012-05-12T07:53:13Z</time>
      </trkpt>
      <trkpt lat="45.55289" lon="4.57431">
        <ele>537</ele>
        <time>2012-05-12T07:53:14Z</time>
      </trkpt>
      <trkpt lat="45.55287" lon="4.57429">
        <ele>537</ele>
        <time>2012-05-12T07:53:15Z</time>
      </trkpt>
      <trkpt lat="45.55285" lon="4.5743">
        <ele>536</ele>
        <time>2012-05-12T07:53:16Z</time>
      </trkpt>
      <trkpt lat="45.55283" lon="4.57431">
        <ele>535</ele>
        <time>2012-05-12T07:53:17Z</time>
      </trkpt>
      <trkpt lat="45.55278" lon="4.57438">
        <ele>535</ele>
        <time>2012-05-12T07:53:19Z</time>
      </trkpt>
      <trkpt lat="45.55277" lon="4.57444">
        <ele>534</ele>
        <time>2012-05-12T07:53:20Z</time>
      </trkpt>
      <trkpt lat="45.55275" lon="4.57476">
        <ele>531</ele>
        <time>2012-05-12T07:53:25Z</time>
      </trkpt>
      <trkpt lat="45.55274" lon="4.57481">
        <ele>530</ele>
        <time>2012-05-12T07:53:26Z</time>
      </trkpt>
      <trkpt lat="45.55269" lon="4.5749">
        <ele>529</ele>
        <time>2012-05-12T07:53:28Z</time>
      </trkpt>
      <trkpt lat="45.55266" lon="4.57497">
        <ele>529</ele>
        <time>2012-05-12T07:53:29Z</time>
      </trkpt>
      <trkpt lat="45.55262" lon="4.57503">
        <ele>528</ele>
        <time>2012-05-12T07:53:30Z</time>
      </trkpt>
      <trkpt lat="45.55249" lon="4.57524">
        <ele>525</ele>
        <time>2012-05-12T07:53:33Z</time>
      </trkpt>
      <trkpt lat="45.55238" lon="4.57537">
        <ele>524</ele>
        <time>2012-05-12T07:53:35Z</time>
      </trkpt>
      <trkpt lat="45.55226" lon="4.5755">
        <ele>523</ele>
        <time>2012-05-12T07:53:37Z</time>
      </trkpt>
      <trkpt lat="45.55206" lon="4.57572">
        <ele>520</ele>
        <time>2012-05-12T07:53:40Z</time>
      </trkpt>
      <trkpt lat="45.55186" lon="4.57592">
        <ele>517</ele>
        <time>2012-05-12T07:53:43Z</time>
      </trkpt>
      <trkpt lat="45.55178" lon="4.57597">
        <ele>516</ele>
        <time>2012-05-12T07:53:44Z</time>
      </trkpt>
      <trkpt lat="45.55171" lon="4.576">
        <ele>515</ele>
        <time>2012-05-12T07:53:45Z</time>
      </trkpt>
      <trkpt lat="45.55164" lon="4.57601">
        <ele>514</ele>
        <time>2012-05-12T07:53:46Z</time>
      </trkpt>
      <trkpt lat="45.55157" lon="4.57605">
        <ele>514</ele>
        <time>2012-05-12T07:53:47Z</time>
      </trkpt>
      <trkpt lat="45.55152" lon="4.57612">
        <ele>514</ele>
        <time>2012-05-12T07:53:48Z</time>
      </trkpt>
      <trkpt lat="45.55148" lon="4.5762">
        <ele>514</ele>
        <time>2012-05-12T07:53:49Z</time>
      </trkpt>
      <trkpt lat="45.55142" lon="4.57627">
        <ele>513</ele>
        <time>2012-05-12T07:53:50Z</time>
      </trkpt>
      <trkpt lat="45.55136" lon="4.57633">
        <ele>512</ele>
        <time>2012-05-12T07:53:51Z</time>
      </trkpt>
      <trkpt lat="45.5513" lon="4.57639">
        <ele>512</ele>
        <time>2012-05-12T07:53:52Z</time>
      </trkpt>
      <trkpt lat="45.55106" lon="4.57658">
        <ele>510</ele>
        <time>2012-05-12T07:53:56Z</time>
      </trkpt>
      <trkpt lat="45.55094" lon="4.57669">
        <ele>508</ele>
        <time>2012-05-12T07:53:58Z</time>
      </trkpt>
      <trkpt lat="45.55088" lon="4.57673">
        <ele>508</ele>
        <time>2012-05-12T07:53:59Z</time>
      </trkpt>
      <trkpt lat="45.55082" lon="4.57678">
        <ele>508</ele>
        <time>2012-05-12T07:54:00Z</time>
      </trkpt>
      <trkpt lat="45.55077" lon="4.57683">
        <ele>508</ele>
        <time>2012-05-12T07:54:01Z</time>
      </trkpt>
      <trkpt lat="45.55071" lon="4.57689">
        <ele>507</ele>
        <time>2012-05-12T07:54:02Z</time>
      </trkpt>
      <trkpt lat="45.55064" lon="4.57692">
        <ele>506</ele>
        <time>2012-05-12T07:54:03Z</time>
      </trkpt>
      <trkpt lat="45.55057" lon="4.57694">
        <ele>505</ele>
        <time>2012-05-12T07:54:04Z</time>
      </trkpt>
      <trkpt lat="45.55049" lon="4.57694">
        <ele>504</ele>
        <time>2012-05-12T07:54:05Z</time>
      </trkpt>
      <trkpt lat="45.55035" lon="4.57696">
        <ele>503</ele>
        <time>2012-05-12T07:54:07Z</time>
      </trkpt>
      <trkpt lat="45.55028" lon="4.57698">
        <ele>503</ele>
        <time>2012-05-12T07:54:08Z</time>
      </trkpt>
      <trkpt lat="45.54994" lon="4.57708">
        <ele>499</ele>
        <time>2012-05-12T07:54:13Z</time>
      </trkpt>
      <trkpt lat="45.5499" lon="4.57716">
        <ele>499</ele>
        <time>2012-05-12T07:54:14Z</time>
      </trkpt>
      <trkpt lat="45.54987" lon="4.57725">
        <ele>498</ele>
        <time>2012-05-12T07:54:15Z</time>
      </trkpt>
      <trkpt lat="45.54986" lon="4.57735">
        <ele>498</ele>
        <time>2012-05-12T07:54:16Z</time>
      </trkpt>
      <trkpt lat="45.54984" lon="4.57745">
        <ele>497</ele>
        <time>2012-05-12T07:54:17Z</time>
      </trkpt>
      <trkpt lat="45.54982" lon="4.57754">
        <ele>497</ele>
        <time>2012-05-12T07:54:18Z</time>
      </trkpt>
      <trkpt lat="45.54978" lon="4.57762">
        <ele>496</ele>
        <time>2012-05-12T07:54:19Z</time>
      </trkpt>
      <trkpt lat="45.54975" lon="4.57771">
        <ele>496</ele>
        <time>2012-05-12T07:54:20Z</time>
      </trkpt>
      <trkpt lat="45.54961" lon="4.57803">
        <ele>495</ele>
        <time>2012-05-12T07:54:24Z</time>
      </trkpt>
      <trkpt lat="45.54958" lon="4.5781">
        <ele>494</ele>
        <time>2012-05-12T07:54:25Z</time>
      </trkpt>
      <trkpt lat="45.54937" lon="4.57858">
        <ele>493</ele>
        <time>2012-05-12T07:54:32Z</time>
      </trkpt>
      <trkpt lat="45.54934" lon="4.57865">
        <ele>493</ele>
        <time>2012-05-12T07:54:33Z</time>
      </trkpt>
      <trkpt lat="45.5491" lon="4.57916">
        <ele>492</ele>
        <time>2012-05-12T07:54:41Z</time>
      </trkpt>
      <trkpt lat="45.54906" lon="4.57921">
        <ele>492</ele>
        <time>2012-05-12T07:54:42Z</time>
      </trkpt>
      <trkpt lat="45.54894" lon="4.57935">
        <ele>491</ele>
        <time>2012-05-12T07:54:45Z</time>
      </trkpt>
      <trkpt lat="45.54869" lon="4.57963">
        <ele>488</ele>
        <time>2012-05-12T07:54:52Z</time>
      </trkpt>
      <trkpt lat="45.54869" lon="4.57966">
        <ele>488</ele>
        <time>2012-05-12T07:54:53Z</time>
      </trkpt>
      <trkpt lat="45.54871" lon="4.57968">
        <ele>488</ele>
        <time>2012-05-12T07:54:54Z</time>
      </trkpt>
      <trkpt lat="45.54872" lon="4.57968">
        <ele>488</ele>
        <time>2012-05-12T07:54:55Z</time>
      </trkpt>
      <trkpt lat="45.54874" lon="4.57968">
        <ele>487</ele>
        <time>2012-05-12T07:54:56Z</time>
      </trkpt>
      <trkpt lat="45.54876" lon="4.57969">
        <ele>487</ele>
        <time>2012-05-12T07:54:57Z</time>
      </trkpt>
      <trkpt lat="45.54878" lon="4.57969">
        <ele>488</ele>
        <time>2012-05-12T07:54:58Z</time>
      </trkpt>
      <trkpt lat="45.54881" lon="4.5797">
        <ele>488</ele>
        <time>2012-05-12T07:54:59Z</time>
      </trkpt>
      <trkpt lat="45.54884" lon="4.57971">
        <ele>488</ele>
        <time>2012-05-12T07:55:00Z</time>
      </trkpt>
      <trkpt lat="45.54906" lon="4.57971">
        <ele>488</ele>
        <time>2012-05-12T07:55:06Z</time>
      </trkpt>
      <trkpt lat="45.54918" lon="4.57971">
        <ele>488</ele>
        <time>2012-05-12T07:55:09Z</time>
      </trkpt>
      <trkpt lat="45.54953" lon="4.57965">
        <ele>488</ele>
        <time>2012-05-12T07:55:17Z</time>
      </trkpt>
      <trkpt lat="45.54958" lon="4.57964">
        <ele>488</ele>
        <time>2012-05-12T07:55:18Z</time>
      </trkpt>
      <trkpt lat="45.54971" lon="4.57959">
        <ele>487</ele>
        <time>2012-05-12T07:55:21Z</time>
      </trkpt>
      <trkpt lat="45.54975" lon="4.57957">
        <ele>487</ele>
        <time>2012-05-12T07:55:22Z</time>
      </trkpt>
      <trkpt lat="45.54979" lon="4.57954">
        <ele>488</ele>
        <time>2012-05-12T07:55:23Z</time>
      </trkpt>
      <trkpt lat="45.54997" lon="4.57946">
        <ele>488</ele>
        <time>2012-05-12T07:55:27Z</time>
      </trkpt>
      <trkpt lat="45.55001" lon="4.57944">
        <ele>488</ele>
        <time>2012-05-12T07:55:28Z</time>
      </trkpt>
      <trkpt lat="45.55039" lon="4.57936">
        <ele>487</ele>
        <time>2012-05-12T07:55:36Z</time>
      </trkpt>
      <trkpt lat="45.55048" lon="4.57935">
        <ele>488</ele>
        <time>2012-05-12T07:55:38Z</time>
      </trkpt>
      <trkpt lat="45.55053" lon="4.57934">
        <ele>487</ele>
        <time>2012-05-12T07:55:39Z</time>
      </trkpt>
      <trkpt lat="45.55079" lon="4.57934">
        <ele>486</ele>
        <time>2012-05-12T07:55:44Z</time>
      </trkpt>
      <trkpt lat="45.551" lon="4.57934">
        <ele>485</ele>
        <time>2012-05-12T07:55:49Z</time>
      </trkpt>
      <trkpt lat="45.55116" lon="4.5794">
        <ele>484</ele>
        <time>2012-05-12T07:55:53Z</time>
      </trkpt>
      <trkpt lat="45.5512" lon="4.57941">
        <ele>483</ele>
        <time>2012-05-12T07:55:54Z</time>
      </trkpt>
      <trkpt lat="45.55122" lon="4.57942">
        <ele>483</ele>
        <time>2012-05-12T07:55:55Z</time>
      </trkpt>
      <trkpt lat="45.55122" lon="4.57944">
        <ele>483</ele>
        <time>2012-05-12T07:56:00Z</time>
      </trkpt>
      <trkpt lat="45.55122" lon="4.57944">
        <ele>483</ele>
        <time>2012-05-12T07:56:12Z</time>
      </trkpt>
      <trkpt lat="45.55122" lon="4.57944">
        <ele>482</ele>
        <time>2012-05-12T07:56:31Z</time>
      </trkpt>
      <trkpt lat="45.55122" lon="4.57944">
        <ele>483</ele>
        <time>2012-05-12T07:56:40Z</time>
      </trkpt>
      <trkpt lat="45.55122" lon="4.57945">
        <ele>483</ele>
        <time>2012-05-12T07:56:54Z</time>
      </trkpt>
      <trkpt lat="45.55123" lon="4.57943">
        <ele>482</ele>
        <time>2012-05-12T07:57:02Z</time>
      </trkpt>
      <trkpt lat="45.5512" lon="4.57942">
        <ele>483</ele>
        <time>2012-05-12T07:57:05Z</time>
      </trkpt>
      <trkpt lat="45.55119" lon="4.57942">
        <ele>483</ele>
        <time>2012-05-12T07:57:06Z</time>
      </trkpt>
      <trkpt lat="45.55118" lon="4.57942">
        <ele>484</ele>
        <time>2012-05-12T07:57:11Z</time>
      </trkpt>
      <trkpt lat="45.55119" lon="4.57942">
        <ele>483</ele>
        <time>2012-05-12T07:57:24Z</time>
      </trkpt>
      <trkpt lat="45.55119" lon="4.57943">
        <ele>483</ele>
        <time>2012-05-12T07:57:44Z</time>
      </trkpt>
      <trkpt lat="45.55118" lon="4.57943">
        <ele>483</ele>
        <time>2012-05-12T07:58:01Z</time>
      </trkpt>
      <trkpt lat="45.55118" lon="4.57944">
        <ele>483</ele>
        <time>2012-05-12T07:58:21Z</time>
      </trkpt>
      <trkpt lat="45.55118" lon="4.57943">
        <ele>483</ele>
        <time>2012-05-12T07:58:39Z</time>
      </trkpt>
      <trkpt lat="45.55117" lon="4.57943">
        <ele>483</ele>
        <time>2012-05-12T07:59:01Z</time>
      </trkpt>
      <trkpt lat="45.55118" lon="4.57941">
        <ele>483</ele>
        <time>2012-05-12T07:59:24Z</time>
      </trkpt>
      <trkpt lat="45.55118" lon="4.5794">
        <ele>483</ele>
        <time>2012-05-12T07:59:45Z</time>
      </trkpt>
      <trkpt lat="45.55118" lon="4.5794">
        <ele>482</ele>
        <time>2012-05-12T08:00:06Z</time>
      </trkpt>
      <trkpt lat="45.55119" lon="4.5794">
        <ele>482</ele>
        <time>2012-05-12T08:00:31Z</time>
      </trkpt>
      <trkpt lat="45.55119" lon="4.57941">
        <ele>482</ele>
        <time>2012-05-12T08:00:53Z</time>
      </trkpt>
      <trkpt lat="45.55118" lon="4.57942">
        <ele>482</ele>
        <time>2012-05-12T08:01:15Z</time>
      </trkpt>
      <trkpt lat="45.55118" lon="4.57943">
        <ele>482</ele>
        <time>2012-05-12T08:01:37Z</time>
      </trkpt>
      <trkpt lat="45.55118" lon="4.57942">
        <ele>482</ele>
        <time>2012-05-12T08:02:00Z</time>
      </trkpt>
      <trkpt lat="45.55118" lon="4.57942">
        <ele>481</ele>
        <time>2012-05-12T08:02:23Z</time>
      </trkpt>
      <trkpt lat="45.55118" lon="4.57942">
        <ele>482</ele>
        <time>2012-05-12T08:02:47Z</time>
      </trkpt>
      <trkpt lat="45.55119" lon="4.57942">
        <ele>481</ele>
        <time>2012-05-12T08:03:07Z</time>
      </trkpt>
      <trkpt lat="45.5512" lon="4.57943">
        <ele>481</ele>
        <time>2012-05-12T08:03:31Z</time>
      </trkpt>
      <trkpt lat="45.5512" lon="4.57943">
        <ele>481</ele>
        <time>2012-05-12T08:03:58Z</time>
      </trkpt>
      <trkpt lat="45.5512" lon="4.57944">
        <ele>481</ele>
        <time>2012-05-12T08:04:20Z</time>
      </trkpt>
      <trkpt lat="45.5512" lon="4.57943">
        <ele>481</ele>
        <time>2012-05-12T08:04:46Z</time>
      </trkpt>
      <trkpt lat="45.5512" lon="4.57943">
        <ele>481</ele>
        <time>2012-05-12T08:05:09Z</time>
      </trkpt>
      <trkpt lat="45.5512" lon="4.57943">
        <ele>481</ele>
        <time>2012-05-12T08:05:30Z</time>
      </trkpt>
      <trkpt lat="45.55119" lon="4.57944">
        <ele>481</ele>
        <time>2012-05-12T08:05:54Z</time>
      </trkpt>
      <trkpt lat="45.55119" lon="4.57944">
        <ele>481</ele>
        <time>2012-05-12T08:06:18Z</time>
      </trkpt>
      <trkpt lat="45.55119" lon="4.57945">
        <ele>481</ele>
        <time>2012-05-12T08:06:42Z</time>
      </trkpt>
      <trkpt lat="45.5512" lon="4.57944">
        <ele>481</ele>
        <time>2012-05-12T08:07:07Z</time>
      </trkpt>
      <trkpt lat="45.5512" lon="4.57944">
        <ele>482</ele>
        <time>2012-05-12T08:07:27Z</time>
      </trkpt>
      <trkpt lat="45.5512" lon="4.57943">
        <ele>482</ele>
        <time>2012-05-12T08:07:42Z</time>
      </trkpt>
      <trkpt lat="45.55119" lon="4.57944">
        <ele>482</ele>
        <time>2012-05-12T08:07:51Z</time>
      </trkpt>
      <trkpt lat="45.55118" lon="4.57943">
        <ele>481</ele>
        <time>2012-05-12T08:08:00Z</time>
      </trkpt>
      <trkpt lat="45.55118" lon="4.57943">
        <ele>482</ele>
        <time>2012-05-12T08:08:18Z</time>
      </trkpt>
      <trkpt lat="45.55118" lon="4.57943">
        <ele>482</ele>
        <time>2012-05-12T08:08:38Z</time>
      </trkpt>
      <trkpt lat="45.55118" lon="4.57943">
        <ele>482</ele>
        <time>2012-05-12T08:08:58Z</time>
      </trkpt>
      <trkpt lat="45.55118" lon="4.57943">
        <ele>483</ele>
        <time>2012-05-12T08:09:19Z</time>
      </trkpt>
      <trkpt lat="45.55118" lon="4.57942">
        <ele>483</ele>
        <time>2012-05-12T08:09:44Z</time>
      </trkpt>
      <trkpt lat="45.55118" lon="4.57942">
        <ele>483</ele>
        <time>2012-05-12T08:10:03Z</time>
      </trkpt>
      <trkpt lat="45.55118" lon="4.57943">
        <ele>483</ele>
        <time>2012-05-12T08:10:24Z</time>
      </trkpt>
      <trkpt lat="45.55119" lon="4.57944">
        <ele>483</ele>
        <time>2012-05-12T08:10:45Z</time>
      </trkpt>
      <trkpt lat="45.55119" lon="4.57944">
        <ele>483</ele>
        <time>2012-05-12T08:11:07Z</time>
      </trkpt>
      <trkpt lat="45.55119" lon="4.57943">
        <ele>484</ele>
        <time>2012-05-12T08:11:32Z</time>
      </trkpt>
      <trkpt lat="45.55118" lon="4.57941">
        <ele>484</ele>
        <time>2012-05-12T08:11:58Z</time>
      </trkpt>
      <trkpt lat="45.55118" lon="4.57941">
        <ele>484</ele>
        <time>2012-05-12T08:12:21Z</time>
      </trkpt>
      <trkpt lat="45.55118" lon="4.5794">
        <ele>484</ele>
        <time>2012-05-12T08:12:44Z</time>
      </trkpt>
      <trkpt lat="45.55118" lon="4.57941">
        <ele>484</ele>
        <time>2012-05-12T08:13:01Z</time>
      </trkpt>
      <trkpt lat="45.55118" lon="4.57942">
        <ele>484</ele>
        <time>2012-05-12T08:13:22Z</time>
      </trkpt>
      <trkpt lat="45.55118" lon="4.57941">
        <ele>484</ele>
        <time>2012-05-12T08:13:47Z</time>
      </trkpt>
      <trkpt lat="45.55119" lon="4.57941">
        <ele>485</ele>
        <time>2012-05-12T08:14:09Z</time>
      </trkpt>
      <trkpt lat="45.5512" lon="4.57941">
        <ele>484</ele>
        <time>2012-05-12T08:14:32Z</time>
      </trkpt>
      <trkpt lat="45.55119" lon="4.57941">
        <ele>485</ele>
        <time>2012-05-12T08:14:54Z</time>
      </trkpt>
      <trkpt lat="45.55119" lon="4.57942">
        <ele>484</ele>
        <time>2012-05-12T08:15:14Z</time>
      </trkpt>
      <trkpt lat="45.55119" lon="4.57943">
        <ele>485</ele>
        <time>2012-05-12T08:15:33Z</time>
      </trkpt>
      <trkpt lat="45.55119" lon="4.57942">
        <ele>485</ele>
        <time>2012-05-12T08:15:57Z</time>
      </trkpt>
      <trkpt lat="45.55118" lon="4.57941">
        <ele>484</ele>
        <time>2012-05-12T08:16:19Z</time>
      </trkpt>
      <trkpt lat="45.55118" lon="4.57941">
        <ele>484</ele>
        <time>2012-05-12T08:16:44Z</time>
      </trkpt>
      <trkpt lat="45.55119" lon="4.57942">
        <ele>484</ele>
        <time>2012-05-12T08:17:06Z</time>
      </trkpt>
      <trkpt lat="45.55118" lon="4.5794">
        <ele>483</ele>
        <time>2012-05-12T08:17:30Z</time>
      </trkpt>
      <trkpt lat="45.55119" lon="4.57941">
        <ele>483</ele>
        <time>2012-05-12T08:17:54Z</time>
      </trkpt>
      <trkpt lat="45.55118" lon="4.57942">
        <ele>482</ele>
        <time>2012-05-12T08:18:17Z</time>
      </trkpt>
      <trkpt lat="45.55118" lon="4.57942">
        <ele>482</ele>
        <time>2012-05-12T08:18:39Z</time>
      </trkpt>
      <trkpt lat="45.55119" lon="4.57942">
        <ele>481</ele>
        <time>2012-05-12T08:19:03Z</time>
      </trkpt>
      <trkpt lat="45.55118" lon="4.57942">
        <ele>481</ele>
        <time>2012-05-12T08:19:26Z</time>
      </trkpt>
      <trkpt lat="45.55118" lon="4.57942">
        <ele>481</ele>
        <time>2012-05-12T08:19:52Z</time>
      </trkpt>
      <trkpt lat="45.55118" lon="4.57942">
        <ele>481</ele>
        <time>2012-05-12T08:20:15Z</time>
      </trkpt>
      <trkpt lat="45.55118" lon="4.57942">
        <ele>481</ele>
        <time>2012-05-12T08:20:36Z</time>
      </trkpt>
      <trkpt lat="45.55118" lon="4.57942">
        <ele>481</ele>
        <time>2012-05-12T08:20:57Z</time>
      </trkpt>
      <trkpt lat="45.55118" lon="4.57942">
        <ele>481</ele>
        <time>2012-05-12T08:21:16Z</time>
      </trkpt>
      <trkpt lat="45.55119" lon="4.57941">
        <ele>481</ele>
        <time>2012-05-12T08:21:40Z</time>
      </trkpt>
      <trkpt lat="45.5512" lon="4.57941">
        <ele>481</ele>
        <time>2012-05-12T08:22:03Z</time>
      </trkpt>
      <trkpt lat="45.55119" lon="4.57941">
        <ele>481</ele>
        <time>2012-05-12T08:22:27Z</time>
      </trkpt>
      <trkpt lat="45.55119" lon="4.57941">
        <ele>481</ele>
        <time>2012-05-12T08:22:50Z</time>
      </trkpt>
      <trkpt lat="45.55118" lon="4.5794">
        <ele>481</ele>
        <time>2012-05-12T08:23:15Z</time>
      </trkpt>
      <trkpt lat="45.55119" lon="4.57941">
        <ele>481</ele>
        <time>2012-05-12T08:23:36Z</time>
      </trkpt>
      <trkpt lat="45.55119" lon="4.57941">
        <ele>481</ele>
        <time>2012-05-12T08:24:00Z</time>
      </trkpt>
      <trkpt lat="45.55119" lon="4.5794">
        <ele>480</ele>
        <time>2012-05-12T08:24:19Z</time>
      </trkpt>
      <trkpt lat="45.55119" lon="4.5794">
        <ele>481</ele>
        <time>2012-05-12T08:24:37Z</time>
      </trkpt>
      <trkpt lat="45.55119" lon="4.5794">
        <ele>480</ele>
        <time>2012-05-12T08:24:55Z</time>
      </trkpt>
      <trkpt lat="45.5512" lon="4.57939">
        <ele>479</ele>
        <time>2012-05-12T08:25:10Z</time>
      </trkpt>
      <trkpt lat="45.55121" lon="4.5794">
        <ele>480</ele>
        <time>2012-05-12T08:25:17Z</time>
      </trkpt>
      <trkpt lat="45.55121" lon="4.5794">
        <ele>479</ele>
        <time>2012-05-12T08:25:29Z</time>
      </trkpt>
      <trkpt lat="45.55122" lon="4.5794">
        <ele>479</ele>
        <time>2012-05-12T08:25:39Z</time>
      </trkpt>
      <trkpt lat="45.55123" lon="4.5794">
        <ele>479</ele>
        <time>2012-05-12T08:25:46Z</time>
      </trkpt>
      <trkpt lat="45.55125" lon="4.5794">
        <ele>479</ele>
        <time>2012-05-12T08:25:47Z</time>
      </trkpt>
      <trkpt lat="45.55127" lon="4.57941">
        <ele>479</ele>
        <time>2012-05-12T08:25:48Z</time>
      </trkpt>
      <trkpt lat="45.55147" lon="4.57949">
        <ele>477</ele>
        <time>2012-05-12T08:25:54Z</time>
      </trkpt>
      <trkpt lat="45.55153" lon="4.57951">
        <ele>477</ele>
        <time>2012-05-12T08:25:55Z</time>
      </trkpt>
      <trkpt lat="45.55196" lon="4.57968">
        <ele>475</ele>
        <time>2012-05-12T08:26:02Z</time>
      </trkpt>
      <trkpt lat="45.5524" lon="4.57986">
        <ele>473</ele>
        <time>2012-05-12T08:26:09Z</time>
      </trkpt>
      <trkpt lat="45.55263" lon="4.57995">
        <ele>472</ele>
        <time>2012-05-12T08:26:13Z</time>
      </trkpt>
      <trkpt lat="45.55269" lon="4.57997">
        <ele>472</ele>
        <time>2012-05-12T08:26:14Z</time>
      </trkpt>
      <trkpt lat="45.55274" lon="4.58">
        <ele>472</ele>
        <time>2012-05-12T08:26:15Z</time>
      </trkpt>
      <trkpt lat="45.55312" lon="4.58015">
        <ele>470</ele>
        <time>2012-05-12T08:26:22Z</time>
      </trkpt>
      <trkpt lat="45.55353" lon="4.58031">
        <ele>470</ele>
        <time>2012-05-12T08:26:30Z</time>
      </trkpt>
      <trkpt lat="45.55362" lon="4.58037">
        <ele>470</ele>
        <time>2012-05-12T08:26:32Z</time>
      </trkpt>
      <trkpt lat="45.55369" lon="4.58045">
        <ele>471</ele>
        <time>2012-05-12T08:26:34Z</time>
      </trkpt>
      <trkpt lat="45.55371" lon="4.58049">
        <ele>471</ele>
        <time>2012-05-12T08:26:35Z</time>
      </trkpt>
      <trkpt lat="45.55373" lon="4.58053">
        <ele>472</ele>
        <time>2012-05-12T08:26:36Z</time>
      </trkpt>
      <trkpt lat="45.55375" lon="4.58058">
        <ele>472</ele>
        <time>2012-05-12T08:26:37Z</time>
      </trkpt>
      <trkpt lat="45.55377" lon="4.58063">
        <ele>472</ele>
        <time>2012-05-12T08:26:38Z</time>
      </trkpt>
      <trkpt lat="45.55377" lon="4.58068">
        <ele>472</ele>
        <time>2012-05-12T08:26:39Z</time>
      </trkpt>
      <trkpt lat="45.55377" lon="4.58074">
        <ele>472</ele>
        <time>2012-05-12T08:26:40Z</time>
      </trkpt>
      <trkpt lat="45.55376" lon="4.58088">
        <ele>471</ele>
        <time>2012-05-12T08:26:42Z</time>
      </trkpt>
      <trkpt lat="45.55374" lon="4.58094">
        <ele>471</ele>
        <time>2012-05-12T08:26:43Z</time>
      </trkpt>
      <trkpt lat="45.55372" lon="4.581">
        <ele>471</ele>
        <time>2012-05-12T08:26:44Z</time>
      </trkpt>
      <trkpt lat="45.55369" lon="4.58105">
        <ele>471</ele>
        <time>2012-05-12T08:26:45Z</time>
      </trkpt>
      <trkpt lat="45.55366" lon="4.58109">
        <ele>471</ele>
        <time>2012-05-12T08:26:46Z</time>
      </trkpt>
      <trkpt lat="45.55362" lon="4.58112">
        <ele>471</ele>
        <time>2012-05-12T08:26:47Z</time>
      </trkpt>
      <trkpt lat="45.55358" lon="4.58114">
        <ele>471</ele>
        <time>2012-05-12T08:26:48Z</time>
      </trkpt>
      <trkpt lat="45.55355" lon="4.58116">
        <ele>471</ele>
        <time>2012-05-12T08:26:49Z</time>
      </trkpt>
      <trkpt lat="45.55329" lon="4.58133">
        <ele>472</ele>
        <time>2012-05-12T08:26:56Z</time>
      </trkpt>
      <trkpt lat="45.55301" lon="4.58149">
        <ele>473</ele>
        <time>2012-05-12T08:27:03Z</time>
      </trkpt>
      <trkpt lat="45.55298" lon="4.58152">
        <ele>473</ele>
        <time>2012-05-12T08:27:04Z</time>
      </trkpt>
      <trkpt lat="45.55269" lon="4.58175">
        <ele>472</ele>
        <time>2012-05-12T08:27:12Z</time>
      </trkpt>
      <trkpt lat="45.55242" lon="4.58197">
        <ele>471</ele>
        <time>2012-05-12T08:27:20Z</time>
      </trkpt>
      <trkpt lat="45.55233" lon="4.58203">
        <ele>472</ele>
        <time>2012-05-12T08:27:24Z</time>
      </trkpt>
      <trkpt lat="45.55231" lon="4.58207">
        <ele>472</ele>
        <time>2012-05-12T08:27:25Z</time>
      </trkpt>
      <trkpt lat="45.5523" lon="4.58211">
        <ele>471</ele>
        <time>2012-05-12T08:27:26Z</time>
      </trkpt>
      <trkpt lat="45.55228" lon="4.58216">
        <ele>472</ele>
        <time>2012-05-12T08:27:27Z</time>
      </trkpt>
      <trkpt lat="45.55227" lon="4.58221">
        <ele>472</ele>
        <time>2012-05-12T08:27:28Z</time>
      </trkpt>
      <trkpt lat="45.55226" lon="4.58226">
        <ele>472</ele>
        <time>2012-05-12T08:27:29Z</time>
      </trkpt>
      <trkpt lat="45.55221" lon="4.58256">
        <ele>473</ele>
        <time>2012-05-12T08:27:36Z</time>
      </trkpt>
      <trkpt lat="45.55216" lon="4.58284">
        <ele>475</ele>
        <time>2012-05-12T08:27:44Z</time>
      </trkpt>
      <trkpt lat="45.55213" lon="4.58306">
        <ele>477</ele>
        <time>2012-05-12T08:27:51Z</time>
      </trkpt>
      <trkpt lat="45.55213" lon="4.58327">
        <ele>478</ele>
        <time>2012-05-12T08:27:57Z</time>
      </trkpt>
      <trkpt lat="45.55213" lon="4.5835">
        <ele>480</ele>
        <time>2012-05-12T08:28:04Z</time>
      </trkpt>
      <trkpt lat="45.55219" lon="4.58373">
        <ele>481</ele>
        <time>2012-05-12T08:28:11Z</time>
      </trkpt>
      <trkpt lat="45.55229" lon="4.58395">
        <ele>482</ele>
        <time>2012-05-12T08:28:18Z</time>
      </trkpt>
      <trkpt lat="45.55243" lon="4.58418">
        <ele>483</ele>
        <time>2012-05-12T08:28:26Z</time>
      </trkpt>
      <trkpt lat="45.55263" lon="4.58451">
        <ele>484</ele>
        <time>2012-05-12T08:28:36Z</time>
      </trkpt>
      <trkpt lat="45.55282" lon="4.58477">
        <ele>484</ele>
        <time>2012-05-12T08:28:44Z</time>
      </trkpt>
      <trkpt lat="45.55302" lon="4.58504">
        <ele>484</ele>
        <time>2012-05-12T08:28:52Z</time>
      </trkpt>
      <trkpt lat="45.55332" lon="4.58545">
        <ele>484</ele>
        <time>2012-05-12T08:29:03Z</time>
      </trkpt>
      <trkpt lat="45.55349" lon="4.58579">
        <ele>485</ele>
        <time>2012-05-12T08:29:11Z</time>
      </trkpt>
      <trkpt lat="45.55369" lon="4.58614">
        <ele>487</ele>
        <time>2012-05-12T08:29:20Z</time>
      </trkpt>
      <trkpt lat="45.55379" lon="4.58652">
        <ele>488</ele>
        <time>2012-05-12T08:29:28Z</time>
      </trkpt>
      <trkpt lat="45.55377" lon="4.58704">
        <ele>488</ele>
        <time>2012-05-12T08:29:38Z</time>
      </trkpt>
      <trkpt lat="45.55375" lon="4.58743">
        <ele>489</ele>
        <time>2012-05-12T08:29:46Z</time>
      </trkpt>
      <trkpt lat="45.5537" lon="4.58779">
        <ele>489</ele>
        <time>2012-05-12T08:29:53Z</time>
      </trkpt>
      <trkpt lat="45.55365" lon="4.58812">
        <ele>491</ele>
        <time>2012-05-12T08:30:00Z</time>
      </trkpt>
      <trkpt lat="45.55354" lon="4.58846">
        <ele>492</ele>
        <time>2012-05-12T08:30:08Z</time>
      </trkpt>
      <trkpt lat="45.55351" lon="4.58859">
        <ele>492</ele>
        <time>2012-05-12T08:30:12Z</time>
      </trkpt>
      <trkpt lat="45.55352" lon="4.58861">
        <ele>492</ele>
        <time>2012-05-12T08:30:16Z</time>
      </trkpt>
      <trkpt lat="45.55353" lon="4.58861">
        <ele>492</ele>
        <time>2012-05-12T08:30:32Z</time>
      </trkpt>
      <trkpt lat="45.55353" lon="4.58861">
        <ele>492</ele>
        <time>2012-05-12T08:30:50Z</time>
      </trkpt>
      <trkpt lat="45.55353" lon="4.58861">
        <ele>492</ele>
        <time>2012-05-12T08:31:06Z</time>
      </trkpt>
      <trkpt lat="45.55352" lon="4.58861">
        <ele>491</ele>
        <time>2012-05-12T08:31:14Z</time>
      </trkpt>
      <trkpt lat="45.55352" lon="4.58861">
        <ele>490</ele>
        <time>2012-05-12T08:31:24Z</time>
      </trkpt>
      <trkpt lat="45.55352" lon="4.58861">
        <ele>492</ele>
        <time>2012-05-12T08:31:34Z</time>
      </trkpt>
      <trkpt lat="45.55352" lon="4.58861">
        <ele>489</ele>
        <time>2012-05-12T08:31:47Z</time>
      </trkpt>
      <trkpt lat="45.55352" lon="4.58861">
        <ele>497</ele>
        <time>2012-05-12T08:31:48Z</time>
      </trkpt>
      <trkpt lat="45.55352" lon="4.58861">
        <ele>492</ele>
        <time>2012-05-12T08:31:49Z</time>
      </trkpt>
      <trkpt lat="45.55352" lon="4.58862">
        <ele>492</ele>
        <time>2012-05-12T08:32:06Z</time>
      </trkpt>
      <trkpt lat="45.55353" lon="4.58863">
        <ele>492</ele>
        <time>2012-05-12T08:32:10Z</time>
      </trkpt>
      <trkpt lat="45.55354" lon="4.58863">
        <ele>492</ele>
        <time>2012-05-12T08:32:11Z</time>
      </trkpt>
      <trkpt lat="45.55355" lon="4.58863">
        <ele>492</ele>
        <time>2012-05-12T08:32:12Z</time>
      </trkpt>
      <trkpt lat="45.55356" lon="4.58862">
        <ele>491</ele>
        <time>2012-05-12T08:32:13Z</time>
      </trkpt>
      <trkpt lat="45.55357" lon="4.58861">
        <ele>493</ele>
        <time>2012-05-12T08:32:14Z</time>
      </trkpt>
      <trkpt lat="45.55359" lon="4.58859">
        <ele>493</ele>
        <time>2012-05-12T08:32:15Z</time>
      </trkpt>
      <trkpt lat="45.55374" lon="4.58848">
        <ele>494</ele>
        <time>2012-05-12T08:32:22Z</time>
      </trkpt>
      <trkpt lat="45.55393" lon="4.58831">
        <ele>495</ele>
        <time>2012-05-12T08:32:30Z</time>
      </trkpt>
      <trkpt lat="45.55419" lon="4.58814">
        <ele>496</ele>
        <time>2012-05-12T08:32:40Z</time>
      </trkpt>
      <trkpt lat="45.55441" lon="4.58807">
        <ele>497</ele>
        <time>2012-05-12T08:32:48Z</time>
      </trkpt>
      <trkpt lat="45.55465" lon="4.58803">
        <ele>499</ele>
        <time>2012-05-12T08:32:56Z</time>
      </trkpt>
      <trkpt lat="45.5549" lon="4.588">
        <ele>500</ele>
        <time>2012-05-12T08:33:04Z</time>
      </trkpt>
      <trkpt lat="45.55513" lon="4.58794">
        <ele>502</ele>
        <time>2012-05-12T08:33:12Z</time>
      </trkpt>
      <trkpt lat="45.55532" lon="4.58787">
        <ele>503</ele>
        <time>2012-05-12T08:33:20Z</time>
      </trkpt>
      <trkpt lat="45.55546" lon="4.58782">
        <ele>505</ele>
        <time>2012-05-12T08:33:26Z</time>
      </trkpt>
      <trkpt lat="45.55561" lon="4.58776">
        <ele>506</ele>
        <time>2012-05-12T08:33:34Z</time>
      </trkpt>
      <trkpt lat="45.55575" lon="4.58763">
        <ele>507</ele>
        <time>2012-05-12T08:33:42Z</time>
      </trkpt>
      <trkpt lat="45.55585" lon="4.58755">
        <ele>508</ele>
        <time>2012-05-12T08:33:48Z</time>
      </trkpt>
      <trkpt lat="45.55596" lon="4.58743">
        <ele>510</ele>
        <time>2012-05-12T08:33:56Z</time>
      </trkpt>
      <trkpt lat="45.55611" lon="4.58726">
        <ele>512</ele>
        <time>2012-05-12T08:34:06Z</time>
      </trkpt>
      <trkpt lat="45.55624" lon="4.58714">
        <ele>513</ele>
        <time>2012-05-12T08:34:15Z</time>
      </trkpt>
      <trkpt lat="45.55639" lon="4.58704">
        <ele>515</ele>
        <time>2012-05-12T08:34:24Z</time>
      </trkpt>
      <trkpt lat="45.55658" lon="4.58694">
        <ele>516</ele>
        <time>2012-05-12T08:34:33Z</time>
      </trkpt>
      <trkpt lat="45.55679" lon="4.58687">
        <ele>517</ele>
        <time>2012-05-12T08:34:42Z</time>
      </trkpt>
      <trkpt lat="45.55704" lon="4.58681">
        <ele>519</ele>
        <time>2012-05-12T08:34:52Z</time>
      </trkpt>
      <trkpt lat="45.55723" lon="4.58675">
        <ele>521</ele>
        <time>2012-05-12T08:35:01Z</time>
      </trkpt>
      <trkpt lat="45.55736" lon="4.5867">
        <ele>522</ele>
        <time>2012-05-12T08:35:08Z</time>
      </trkpt>
      <trkpt lat="45.55749" lon="4.58667">
        <ele>523</ele>
        <time>2012-05-12T08:35:15Z</time>
      </trkpt>
      <trkpt lat="45.55765" lon="4.58665">
        <ele>524</ele>
        <time>2012-05-12T08:35:23Z</time>
      </trkpt>
      <trkpt lat="45.55781" lon="4.58663">
        <ele>524</ele>
        <time>2012-05-12T08:35:30Z</time>
      </trkpt>
      <trkpt lat="45.55795" lon="4.58663">
        <ele>525</ele>
        <time>2012-05-12T08:35:37Z</time>
      </trkpt>
      <trkpt lat="45.55809" lon="4.58665">
        <ele>526</ele>
        <time>2012-05-12T08:35:44Z</time>
      </trkpt>
      <trkpt lat="45.55822" lon="4.58666">
        <ele>528</ele>
        <time>2012-05-12T08:35:51Z</time>
      </trkpt>
      <trkpt lat="45.5584" lon="4.58666">
        <ele>529</ele>
        <time>2012-05-12T08:36:00Z</time>
      </trkpt>
      <trkpt lat="45.55853" lon="4.58667">
        <ele>530</ele>
        <time>2012-05-12T08:36:07Z</time>
      </trkpt>
      <trkpt lat="45.55865" lon="4.58668">
        <ele>531</ele>
        <time>2012-05-12T08:36:16Z</time>
      </trkpt>
      <trkpt lat="45.55873" lon="4.58668">
        <ele>531</ele>
        <time>2012-05-12T08:36:23Z</time>
      </trkpt>
      <trkpt lat="45.55885" lon="4.58667">
        <ele>533</ele>
        <time>2012-05-12T08:36:30Z</time>
      </trkpt>
      <trkpt lat="45.55891" lon="4.58665">
        <ele>534</ele>
        <time>2012-05-12T08:36:34Z</time>
      </trkpt>
      <trkpt lat="45.55892" lon="4.58665">
        <ele>534</ele>
        <time>2012-05-12T08:36:35Z</time>
      </trkpt>
      <trkpt lat="45.55894" lon="4.58665">
        <ele>534</ele>
        <time>2012-05-12T08:36:36Z</time>
      </trkpt>
      <trkpt lat="45.55895" lon="4.58665">
        <ele>535</ele>
        <time>2012-05-12T08:36:37Z</time>
      </trkpt>
      <trkpt lat="45.55897" lon="4.58664">
        <ele>535</ele>
        <time>2012-05-12T08:36:38Z</time>
      </trkpt>
      <trkpt lat="45.55898" lon="4.58664">
        <ele>536</ele>
        <time>2012-05-12T08:36:39Z</time>
      </trkpt>
      <trkpt lat="45.55899" lon="4.58663">
        <ele>536</ele>
        <time>2012-05-12T08:36:40Z</time>
      </trkpt>
      <trkpt lat="45.55906" lon="4.58661">
        <ele>536</ele>
        <time>2012-05-12T08:36:45Z</time>
      </trkpt>
      <trkpt lat="45.55915" lon="4.58661">
        <ele>537</ele>
        <time>2012-05-12T08:36:52Z</time>
      </trkpt>
      <trkpt lat="45.55927" lon="4.58664">
        <ele>538</ele>
        <time>2012-05-12T08:37:00Z</time>
      </trkpt>
      <trkpt lat="45.55942" lon="4.5867">
        <ele>540</ele>
        <time>2012-05-12T08:37:09Z</time>
      </trkpt>
      <trkpt lat="45.55955" lon="4.58674">
        <ele>541</ele>
        <time>2012-05-12T08:37:17Z</time>
      </trkpt>
      <trkpt lat="45.55967" lon="4.58676">
        <ele>542</ele>
        <time>2012-05-12T08:37:24Z</time>
      </trkpt>
      <trkpt lat="45.5597" lon="4.58676">
        <ele>542</ele>
        <time>2012-05-12T08:37:26Z</time>
      </trkpt>
      <trkpt lat="45.55971" lon="4.58677">
        <ele>543</ele>
        <time>2012-05-12T08:37:27Z</time>
      </trkpt>
      <trkpt lat="45.55983" lon="4.58681">
        <ele>544</ele>
        <time>2012-05-12T08:37:35Z</time>
      </trkpt>
      <trkpt lat="45.55994" lon="4.58683">
        <ele>545</ele>
        <time>2012-05-12T08:37:42Z</time>
      </trkpt>
      <trkpt lat="45.56005" lon="4.58681">
        <ele>547</ele>
        <time>2012-05-12T08:37:49Z</time>
      </trkpt>
      <trkpt lat="45.56014" lon="4.58681">
        <ele>548</ele>
        <time>2012-05-12T08:37:55Z</time>
      </trkpt>
      <trkpt lat="45.56021" lon="4.5868">
        <ele>549</ele>
        <time>2012-05-12T08:38:00Z</time>
      </trkpt>
      <trkpt lat="45.56023" lon="4.58679">
        <ele>549</ele>
        <time>2012-05-12T08:38:01Z</time>
      </trkpt>
      <trkpt lat="45.56029" lon="4.58676">
        <ele>550</ele>
        <time>2012-05-12T08:38:05Z</time>
      </trkpt>
      <trkpt lat="45.56036" lon="4.58674">
        <ele>551</ele>
        <time>2012-05-12T08:38:11Z</time>
      </trkpt>
      <trkpt lat="45.56047" lon="4.58671">
        <ele>552</ele>
        <time>2012-05-12T08:38:19Z</time>
      </trkpt>
      <trkpt lat="45.56058" lon="4.58664">
        <ele>553</ele>
        <time>2012-05-12T08:38:27Z</time>
      </trkpt>
      <trkpt lat="45.56061" lon="4.58663">
        <ele>553</ele>
        <time>2012-05-12T08:38:29Z</time>
      </trkpt>
      <trkpt lat="45.56063" lon="4.58662">
        <ele>553</ele>
        <time>2012-05-12T08:38:30Z</time>
      </trkpt>
      <trkpt lat="45.56075" lon="4.58658">
        <ele>555</ele>
        <time>2012-05-12T08:38:38Z</time>
      </trkpt>
      <trkpt lat="45.56087" lon="4.58653">
        <ele>556</ele>
        <time>2012-05-12T08:38:46Z</time>
      </trkpt>
      <trkpt lat="45.56098" lon="4.58648">
        <ele>557</ele>
        <time>2012-05-12T08:38:54Z</time>
      </trkpt>
      <trkpt lat="45.5611" lon="4.58642">
        <ele>559</ele>
        <time>2012-05-12T08:39:03Z</time>
      </trkpt>
      <trkpt lat="45.56122" lon="4.58637">
        <ele>560</ele>
        <time>2012-05-12T08:39:11Z</time>
      </trkpt>
      <trkpt lat="45.56132" lon="4.58631">
        <ele>561</ele>
        <time>2012-05-12T08:39:18Z</time>
      </trkpt>
      <trkpt lat="45.56144" lon="4.58623">
        <ele>562</ele>
        <time>2012-05-12T08:39:27Z</time>
      </trkpt>
      <trkpt lat="45.56155" lon="4.58616">
        <ele>564</ele>
        <time>2012-05-12T08:39:36Z</time>
      </trkpt>
      <trkpt lat="45.56164" lon="4.58612">
        <ele>564</ele>
        <time>2012-05-12T08:39:43Z</time>
      </trkpt>
      <trkpt lat="45.5617" lon="4.58605">
        <ele>564</ele>
        <time>2012-05-12T08:39:49Z</time>
      </trkpt>
      <trkpt lat="45.56171" lon="4.58604">
        <ele>565</ele>
        <time>2012-05-12T08:39:50Z</time>
      </trkpt>
      <trkpt lat="45.56185" lon="4.58595">
        <ele>566</ele>
        <time>2012-05-12T08:39:59Z</time>
      </trkpt>
      <trkpt lat="45.56199" lon="4.58583">
        <ele>568</ele>
        <time>2012-05-12T08:40:09Z</time>
      </trkpt>
      <trkpt lat="45.56205" lon="4.58578">
        <ele>568</ele>
        <time>2012-05-12T08:40:14Z</time>
      </trkpt>
      <trkpt lat="45.56207" lon="4.58577">
        <ele>569</ele>
        <time>2012-05-12T08:40:16Z</time>
      </trkpt>
      <trkpt lat="45.56208" lon="4.58577">
        <ele>569</ele>
        <time>2012-05-12T08:40:17Z</time>
      </trkpt>
      <trkpt lat="45.5621" lon="4.58576">
        <ele>569</ele>
        <time>2012-05-12T08:40:19Z</time>
      </trkpt>
      <trkpt lat="45.56211" lon="4.58574">
        <ele>570</ele>
        <time>2012-05-12T08:40:23Z</time>
      </trkpt>
      <trkpt lat="45.56211" lon="4.58574">
        <ele>569</ele>
        <time>2012-05-12T08:40:28Z</time>
      </trkpt>
      <trkpt lat="45.56212" lon="4.58574">
        <ele>570</ele>
        <time>2012-05-12T08:40:46Z</time>
      </trkpt>
      <trkpt lat="45.56212" lon="4.58574">
        <ele>570</ele>
        <time>2012-05-12T08:41:05Z</time>
      </trkpt>
      <trkpt lat="45.56212" lon="4.58574">
        <ele>570</ele>
        <time>2012-05-12T08:41:22Z</time>
      </trkpt>
      <trkpt lat="45.56212" lon="4.58574">
        <ele>570</ele>
        <time>2012-05-12T08:41:43Z</time>
      </trkpt>
      <trkpt lat="45.56212" lon="4.58574">
        <ele>571</ele>
        <time>2012-05-12T08:42:02Z</time>
      </trkpt>
      <trkpt lat="45.56211" lon="4.58574">
        <ele>571</ele>
        <time>2012-05-12T08:42:10Z</time>
      </trkpt>
      <trkpt lat="45.56209" lon="4.58576">
        <ele>571</ele>
        <time>2012-05-12T08:42:15Z</time>
      </trkpt>
      <trkpt lat="45.56208" lon="4.58579">
        <ele>570</ele>
        <time>2012-05-12T08:42:16Z</time>
      </trkpt>
      <trkpt lat="45.56207" lon="4.58582">
        <ele>570</ele>
        <time>2012-05-12T08:42:17Z</time>
      </trkpt>
      <trkpt lat="45.56207" lon="4.58585">
        <ele>570</ele>
        <time>2012-05-12T08:42:18Z</time>
      </trkpt>
      <trkpt lat="45.56207" lon="4.5859">
        <ele>570</ele>
        <time>2012-05-12T08:42:19Z</time>
      </trkpt>
      <trkpt lat="45.56203" lon="4.58604">
        <ele>567</ele>
        <time>2012-05-12T08:42:22Z</time>
      </trkpt>
      <trkpt lat="45.56199" lon="4.58614">
        <ele>566</ele>
        <time>2012-05-12T08:42:24Z</time>
      </trkpt>
      <trkpt lat="45.56195" lon="4.58626">
        <ele>564</ele>
        <time>2012-05-12T08:42:26Z</time>
      </trkpt>
      <trkpt lat="45.56193" lon="4.58632">
        <ele>563</ele>
        <time>2012-05-12T08:42:27Z</time>
      </trkpt>
      <trkpt lat="45.56191" lon="4.58638">
        <ele>563</ele>
        <time>2012-05-12T08:42:28Z</time>
      </trkpt>
      <trkpt lat="45.5619" lon="4.58643">
        <ele>562</ele>
        <time>2012-05-12T08:42:29Z</time>
      </trkpt>
      <trkpt lat="45.56189" lon="4.58647">
        <ele>562</ele>
        <time>2012-05-12T08:42:30Z</time>
      </trkpt>
      <trkpt lat="45.56188" lon="4.58651">
        <ele>562</ele>
        <time>2012-05-12T08:42:31Z</time>
      </trkpt>
      <trkpt lat="45.56182" lon="4.58665">
        <ele>558</ele>
        <time>2012-05-12T08:42:35Z</time>
      </trkpt>
      <trkpt lat="45.56179" lon="4.58675">
        <ele>556</ele>
        <time>2012-05-12T08:42:37Z</time>
      </trkpt>
      <trkpt lat="45.56177" lon="4.58681">
        <ele>556</ele>
        <time>2012-05-12T08:42:38Z</time>
      </trkpt>
      <trkpt lat="45.56174" lon="4.58687">
        <ele>554</ele>
        <time>2012-05-12T08:42:39Z</time>
      </trkpt>
      <trkpt lat="45.56171" lon="4.58693">
        <ele>554</ele>
        <time>2012-05-12T08:42:40Z</time>
      </trkpt>
      <trkpt lat="45.56169" lon="4.587">
        <ele>553</ele>
        <time>2012-05-12T08:42:41Z</time>
      </trkpt>
      <trkpt lat="45.56162" lon="4.58725">
        <ele>550</ele>
        <time>2012-05-12T08:42:45Z</time>
      </trkpt>
      <trkpt lat="45.56159" lon="4.58738">
        <ele>549</ele>
        <time>2012-05-12T08:42:47Z</time>
      </trkpt>
      <trkpt lat="45.56157" lon="4.58744">
        <ele>548</ele>
        <time>2012-05-12T08:42:48Z</time>
      </trkpt>
      <trkpt lat="45.56155" lon="4.5875">
        <ele>548</ele>
        <time>2012-05-12T08:42:49Z</time>
      </trkpt>
      <trkpt lat="45.56152" lon="4.58756">
        <ele>546</ele>
        <time>2012-05-12T08:42:50Z</time>
      </trkpt>
      <trkpt lat="45.5615" lon="4.58761">
        <ele>546</ele>
        <time>2012-05-12T08:42:51Z</time>
      </trkpt>
      <trkpt lat="45.56149" lon="4.58768">
        <ele>544</ele>
        <time>2012-05-12T08:42:52Z</time>
      </trkpt>
      <trkpt lat="45.56148" lon="4.58774">
        <ele>544</ele>
        <time>2012-05-12T08:42:53Z</time>
      </trkpt>
      <trkpt lat="45.56147" lon="4.58781">
        <ele>542</ele>
        <time>2012-05-12T08:42:54Z</time>
      </trkpt>
      <trkpt lat="45.56142" lon="4.58796">
        <ele>541</ele>
        <time>2012-05-12T08:42:56Z</time>
      </trkpt>
      <trkpt lat="45.56136" lon="4.5881">
        <ele>538</ele>
        <time>2012-05-12T08:42:58Z</time>
      </trkpt>
      <trkpt lat="45.5613" lon="4.58832">
        <ele>535</ele>
        <time>2012-05-12T08:43:01Z</time>
      </trkpt>
      <trkpt lat="45.56127" lon="4.58839">
        <ele>535</ele>
        <time>2012-05-12T08:43:02Z</time>
      </trkpt>
      <trkpt lat="45.56124" lon="4.58847">
        <ele>533</ele>
        <time>2012-05-12T08:43:03Z</time>
      </trkpt>
      <trkpt lat="45.56116" lon="4.58873">
        <ele>531</ele>
        <time>2012-05-12T08:43:06Z</time>
      </trkpt>
      <trkpt lat="45.56109" lon="4.58891">
        <ele>527</ele>
        <time>2012-05-12T08:43:08Z</time>
      </trkpt>
      <trkpt lat="45.56103" lon="4.58909">
        <ele>525</ele>
        <time>2012-05-12T08:43:10Z</time>
      </trkpt>
      <trkpt lat="45.56101" lon="4.58917">
        <ele>524</ele>
        <time>2012-05-12T08:43:11Z</time>
      </trkpt>
      <trkpt lat="45.56098" lon="4.58923">
        <ele>523</ele>
        <time>2012-05-12T08:43:12Z</time>
      </trkpt>
      <trkpt lat="45.56096" lon="4.58929">
        <ele>522</ele>
        <time>2012-05-12T08:43:13Z</time>
      </trkpt>
      <trkpt lat="45.56095" lon="4.58934">
        <ele>521</ele>
        <time>2012-05-12T08:43:14Z</time>
      </trkpt>
      <trkpt lat="45.5609" lon="4.5895">
        <ele>517</ele>
        <time>2012-05-12T08:43:18Z</time>
      </trkpt>
      <trkpt lat="45.56088" lon="4.58957">
        <ele>516</ele>
        <time>2012-05-12T08:43:20Z</time>
      </trkpt>
      <trkpt lat="45.56085" lon="4.58964">
        <ele>515</ele>
        <time>2012-05-12T08:43:21Z</time>
      </trkpt>
      <trkpt lat="45.56075" lon="4.58995">
        <ele>512</ele>
        <time>2012-05-12T08:43:25Z</time>
      </trkpt>
      <trkpt lat="45.56073" lon="4.59003">
        <ele>511</ele>
        <time>2012-05-12T08:43:26Z</time>
      </trkpt>
      <trkpt lat="45.56072" lon="4.59016">
        <ele>508</ele>
        <time>2012-05-12T08:43:28Z</time>
      </trkpt>
      <trkpt lat="45.56074" lon="4.59021">
        <ele>507</ele>
        <time>2012-05-12T08:43:29Z</time>
      </trkpt>
      <trkpt lat="45.56078" lon="4.59023">
        <ele>507</ele>
        <time>2012-05-12T08:43:30Z</time>
      </trkpt>
      <trkpt lat="45.56082" lon="4.59023">
        <ele>506</ele>
        <time>2012-05-12T08:43:31Z</time>
      </trkpt>
      <trkpt lat="45.56085" lon="4.59022">
        <ele>506</ele>
        <time>2012-05-12T08:43:32Z</time>
      </trkpt>
      <trkpt lat="45.56089" lon="4.5902">
        <ele>506</ele>
        <time>2012-05-12T08:43:33Z</time>
      </trkpt>
      <trkpt lat="45.56107" lon="4.59011">
        <ele>507</ele>
        <time>2012-05-12T08:43:40Z</time>
      </trkpt>
      <trkpt lat="45.56127" lon="4.59018">
        <ele>507</ele>
        <time>2012-05-12T08:43:47Z</time>
      </trkpt>
      <trkpt lat="45.56146" lon="4.59039">
        <ele>508</ele>
        <time>2012-05-12T08:43:55Z</time>
      </trkpt>
      <trkpt lat="45.56165" lon="4.59064">
        <ele>509</ele>
        <time>2012-05-12T08:44:04Z</time>
      </trkpt>
      <trkpt lat="45.5618" lon="4.59083">
        <ele>510</ele>
        <time>2012-05-12T08:44:11Z</time>
      </trkpt>
      <trkpt lat="45.56206" lon="4.59108">
        <ele>511</ele>
        <time>2012-05-12T08:44:21Z</time>
      </trkpt>
      <trkpt lat="45.56227" lon="4.59126">
        <ele>511</ele>
        <time>2012-05-12T08:44:28Z</time>
      </trkpt>
      <trkpt lat="45.56252" lon="4.59145">
        <ele>511</ele>
        <time>2012-05-12T08:44:36Z</time>
      </trkpt>
      <trkpt lat="45.56273" lon="4.59164">
        <ele>511</ele>
        <time>2012-05-12T08:44:43Z</time>
      </trkpt>
      <trkpt lat="45.56298" lon="4.59186">
        <ele>509</ele>
        <time>2012-05-12T08:44:49Z</time>
      </trkpt>
      <trkpt lat="45.56334" lon="4.59213">
        <ele>507</ele>
        <time>2012-05-12T08:44:57Z</time>
      </trkpt>
      <trkpt lat="45.56377" lon="4.59248">
        <ele>505</ele>
        <time>2012-05-12T08:45:06Z</time>
      </trkpt>
      <trkpt lat="45.56387" lon="4.59255">
        <ele>504</ele>
        <time>2012-05-12T08:45:08Z</time>
      </trkpt>
      <trkpt lat="45.56403" lon="4.59265">
        <ele>503</ele>
        <time>2012-05-12T08:45:11Z</time>
      </trkpt>
      <trkpt lat="45.56435" lon="4.59282">
        <ele>500</ele>
        <time>2012-05-12T08:45:16Z</time>
      </trkpt>
      <trkpt lat="45.5645" lon="4.59289">
        <ele>499</ele>
        <time>2012-05-12T08:45:18Z</time>
      </trkpt>
      <trkpt lat="45.56457" lon="4.59291">
        <ele>499</ele>
        <time>2012-05-12T08:45:19Z</time>
      </trkpt>
      <trkpt lat="45.56472" lon="4.59295">
        <ele>498</ele>
        <time>2012-05-12T08:45:21Z</time>
      </trkpt>
      <trkpt lat="45.56479" lon="4.59295">
        <ele>497</ele>
        <time>2012-05-12T08:45:22Z</time>
      </trkpt>
      <trkpt lat="45.56486" lon="4.59293">
        <ele>496</ele>
        <time>2012-05-12T08:45:23Z</time>
      </trkpt>
      <trkpt lat="45.56494" lon="4.59291">
        <ele>496</ele>
        <time>2012-05-12T08:45:24Z</time>
      </trkpt>
      <trkpt lat="45.56501" lon="4.59287">
        <ele>495</ele>
        <time>2012-05-12T08:45:25Z</time>
      </trkpt>
      <trkpt lat="45.56508" lon="4.59283">
        <ele>495</ele>
        <time>2012-05-12T08:45:26Z</time>
      </trkpt>
      <trkpt lat="45.56516" lon="4.59278">
        <ele>494</ele>
        <time>2012-05-12T08:45:27Z</time>
      </trkpt>
      <trkpt lat="45.56539" lon="4.59261">
        <ele>491</ele>
        <time>2012-05-12T08:45:30Z</time>
      </trkpt>
      <trkpt lat="45.56554" lon="4.59249">
        <ele>488</ele>
        <time>2012-05-12T08:45:32Z</time>
      </trkpt>
      <trkpt lat="45.5656" lon="4.59241">
        <ele>488</ele>
        <time>2012-05-12T08:45:33Z</time>
      </trkpt>
      <trkpt lat="45.56566" lon="4.59232">
        <ele>488</ele>
        <time>2012-05-12T08:45:34Z</time>
      </trkpt>
      <trkpt lat="45.56592" lon="4.59182">
        <ele>486</ele>
        <time>2012-05-12T08:45:40Z</time>
      </trkpt>
      <trkpt lat="45.56594" lon="4.59173">
        <ele>485</ele>
        <time>2012-05-12T08:45:41Z</time>
      </trkpt>
      <trkpt lat="45.56596" lon="4.59163">
        <ele>485</ele>
        <time>2012-05-12T08:45:42Z</time>
      </trkpt>
      <trkpt lat="45.56599" lon="4.59144">
        <ele>483</ele>
        <time>2012-05-12T08:45:44Z</time>
      </trkpt>
      <trkpt lat="45.56601" lon="4.59135">
        <ele>483</ele>
        <time>2012-05-12T08:45:45Z</time>
      </trkpt>
      <trkpt lat="45.56605" lon="4.59128">
        <ele>482</ele>
        <time>2012-05-12T08:45:46Z</time>
      </trkpt>
      <trkpt lat="45.5661" lon="4.59124">
        <ele>482</ele>
        <time>2012-05-12T08:45:47Z</time>
      </trkpt>
      <trkpt lat="45.56616" lon="4.5912">
        <ele>482</ele>
        <time>2012-05-12T08:45:48Z</time>
      </trkpt>
      <trkpt lat="45.56622" lon="4.59118">
        <ele>482</ele>
        <time>2012-05-12T08:45:49Z</time>
      </trkpt>
      <trkpt lat="45.56628" lon="4.59117">
        <ele>481</ele>
        <time>2012-05-12T08:45:50Z</time>
      </trkpt>
      <trkpt lat="45.56656" lon="4.59105">
        <ele>479</ele>
        <time>2012-05-12T08:45:55Z</time>
      </trkpt>
      <trkpt lat="45.56662" lon="4.59103">
        <ele>479</ele>
        <time>2012-05-12T08:45:56Z</time>
      </trkpt>
      <trkpt lat="45.56671" lon="4.59104">
        <ele>480</ele>
        <time>2012-05-12T08:45:58Z</time>
      </trkpt>
      <trkpt lat="45.56675" lon="4.59109">
        <ele>479</ele>
        <time>2012-05-12T08:45:59Z</time>
      </trkpt>
      <trkpt lat="45.56678" lon="4.59113">
        <ele>480</ele>
        <time>2012-05-12T08:46:00Z</time>
      </trkpt>
      <trkpt lat="45.56681" lon="4.59118">
        <ele>479</ele>
        <time>2012-05-12T08:46:01Z</time>
      </trkpt>
      <trkpt lat="45.56685" lon="4.59122">
        <ele>480</ele>
        <time>2012-05-12T08:46:02Z</time>
      </trkpt>
      <trkpt lat="45.56701" lon="4.5915">
        <ele>482</ele>
        <time>2012-05-12T08:46:09Z</time>
      </trkpt>
      <trkpt lat="45.56718" lon="4.59168">
        <ele>483</ele>
        <time>2012-05-12T08:46:16Z</time>
      </trkpt>
      <trkpt lat="45.56727" lon="4.5918">
        <ele>484</ele>
        <time>2012-05-12T08:46:22Z</time>
      </trkpt>
      <trkpt lat="45.5674" lon="4.592">
        <ele>484</ele>
        <time>2012-05-12T08:46:29Z</time>
      </trkpt>
      <trkpt lat="45.56758" lon="4.59231">
        <ele>481</ele>
        <time>2012-05-12T08:46:35Z</time>
      </trkpt>
      <trkpt lat="45.56775" lon="4.5926">
        <ele>479</ele>
        <time>2012-05-12T08:46:39Z</time>
      </trkpt>
      <trkpt lat="45.56784" lon="4.59276">
        <ele>478</ele>
        <time>2012-05-12T08:46:41Z</time>
      </trkpt>
      <trkpt lat="45.56791" lon="4.59283">
        <ele>477</ele>
        <time>2012-05-12T08:46:42Z</time>
      </trkpt>
      <trkpt lat="45.56797" lon="4.59288">
        <ele>476</ele>
        <time>2012-05-12T08:46:43Z</time>
      </trkpt>
      <trkpt lat="45.56804" lon="4.59293">
        <ele>476</ele>
        <time>2012-05-12T08:46:44Z</time>
      </trkpt>
      <trkpt lat="45.56811" lon="4.59297">
        <ele>475</ele>
        <time>2012-05-12T08:46:45Z</time>
      </trkpt>
      <trkpt lat="45.56835" lon="4.59312">
        <ele>471</ele>
        <time>2012-05-12T08:46:49Z</time>
      </trkpt>
      <trkpt lat="45.56841" lon="4.59315">
        <ele>471</ele>
        <time>2012-05-12T08:46:50Z</time>
      </trkpt>
      <trkpt lat="45.56847" lon="4.59318">
        <ele>470</ele>
        <time>2012-05-12T08:46:51Z</time>
      </trkpt>
      <trkpt lat="45.56854" lon="4.5932">
        <ele>469</ele>
        <time>2012-05-12T08:46:52Z</time>
      </trkpt>
      <trkpt lat="45.56861" lon="4.59322">
        <ele>469</ele>
        <time>2012-05-12T08:46:53Z</time>
      </trkpt>
      <trkpt lat="45.56868" lon="4.59323">
        <ele>468</ele>
        <time>2012-05-12T08:46:54Z</time>
      </trkpt>
      <trkpt lat="45.56876" lon="4.59322">
        <ele>467</ele>
        <time>2012-05-12T08:46:55Z</time>
      </trkpt>
      <trkpt lat="45.56884" lon="4.5932">
        <ele>467</ele>
        <time>2012-05-12T08:46:56Z</time>
      </trkpt>
      <trkpt lat="45.56891" lon="4.59318">
        <ele>466</ele>
        <time>2012-05-12T08:46:57Z</time>
      </trkpt>
      <trkpt lat="45.56898" lon="4.59315">
        <ele>465</ele>
        <time>2012-05-12T08:46:58Z</time>
      </trkpt>
      <trkpt lat="45.56905" lon="4.59314">
        <ele>463</ele>
        <time>2012-05-12T08:46:59Z</time>
      </trkpt>
      <trkpt lat="45.56926" lon="4.59312">
        <ele>460</ele>
        <time>2012-05-12T08:47:02Z</time>
      </trkpt>
      <trkpt lat="45.56932" lon="4.59311">
        <ele>460</ele>
        <time>2012-05-12T08:47:03Z</time>
      </trkpt>
      <trkpt lat="45.56939" lon="4.5931">
        <ele>458</ele>
        <time>2012-05-12T08:47:04Z</time>
      </trkpt>
      <trkpt lat="45.56945" lon="4.59309">
        <ele>456</ele>
        <time>2012-05-12T08:47:05Z</time>
      </trkpt>
      <trkpt lat="45.56952" lon="4.59309">
        <ele>455</ele>
        <time>2012-05-12T08:47:06Z</time>
      </trkpt>
      <trkpt lat="45.56958" lon="4.59306">
        <ele>453</ele>
        <time>2012-05-12T08:47:07Z</time>
      </trkpt>
      <trkpt lat="45.56964" lon="4.59302">
        <ele>452</ele>
        <time>2012-05-12T08:47:08Z</time>
      </trkpt>
      <trkpt lat="45.56971" lon="4.59299">
        <ele>451</ele>
        <time>2012-05-12T08:47:09Z</time>
      </trkpt>
      <trkpt lat="45.56986" lon="4.59292">
        <ele>450</ele>
        <time>2012-05-12T08:47:11Z</time>
      </trkpt>
      <trkpt lat="45.57002" lon="4.59285">
        <ele>446</ele>
        <time>2012-05-12T08:47:13Z</time>
      </trkpt>
      <trkpt lat="45.57027" lon="4.59273">
        <ele>441</ele>
        <time>2012-05-12T08:47:16Z</time>
      </trkpt>
      <trkpt lat="45.5704" lon="4.59266">
        <ele>438</ele>
        <time>2012-05-12T08:47:18Z</time>
      </trkpt>
      <trkpt lat="45.57046" lon="4.59262">
        <ele>437</ele>
        <time>2012-05-12T08:47:19Z</time>
      </trkpt>
      <trkpt lat="45.57064" lon="4.59248">
        <ele>434</ele>
        <time>2012-05-12T08:47:22Z</time>
      </trkpt>
      <trkpt lat="45.57069" lon="4.59245">
        <ele>433</ele>
        <time>2012-05-12T08:47:23Z</time>
      </trkpt>
      <trkpt lat="45.57079" lon="4.5924">
        <ele>429</ele>
        <time>2012-05-12T08:47:25Z</time>
      </trkpt>
      <trkpt lat="45.57088" lon="4.59234">
        <ele>426</ele>
        <time>2012-05-12T08:47:28Z</time>
      </trkpt>
      <trkpt lat="45.5709" lon="4.59228">
        <ele>426</ele>
        <time>2012-05-12T08:47:29Z</time>
      </trkpt>
      <trkpt lat="45.57093" lon="4.59223">
        <ele>425</ele>
        <time>2012-05-12T08:47:30Z</time>
      </trkpt>
      <trkpt lat="45.57096" lon="4.59217">
        <ele>424</ele>
        <time>2012-05-12T08:47:31Z</time>
      </trkpt>
      <trkpt lat="45.57099" lon="4.59213">
        <ele>424</ele>
        <time>2012-05-12T08:47:32Z</time>
      </trkpt>
      <trkpt lat="45.57103" lon="4.59209">
        <ele>423</ele>
        <time>2012-05-12T08:47:33Z</time>
      </trkpt>
      <trkpt lat="45.57108" lon="4.59206">
        <ele>423</ele>
        <time>2012-05-12T08:47:34Z</time>
      </trkpt>
      <trkpt lat="45.57113" lon="4.59201">
        <ele>422</ele>
        <time>2012-05-12T08:47:35Z</time>
      </trkpt>
      <trkpt lat="45.57118" lon="4.59195">
        <ele>421</ele>
        <time>2012-05-12T08:47:36Z</time>
      </trkpt>
      <trkpt lat="45.57121" lon="4.59187">
        <ele>421</ele>
        <time>2012-05-12T08:47:37Z</time>
      </trkpt>
      <trkpt lat="45.57124" lon="4.59178">
        <ele>422</ele>
        <time>2012-05-12T08:47:38Z</time>
      </trkpt>
      <trkpt lat="45.57126" lon="4.59169">
        <ele>421</ele>
        <time>2012-05-12T08:47:39Z</time>
      </trkpt>
      <trkpt lat="45.57128" lon="4.59159">
        <ele>419</ele>
        <time>2012-05-12T08:47:40Z</time>
      </trkpt>
      <trkpt lat="45.57129" lon="4.59149">
        <ele>418</ele>
        <time>2012-05-12T08:47:41Z</time>
      </trkpt>
      <trkpt lat="45.5713" lon="4.59139">
        <ele>418</ele>
        <time>2012-05-12T08:47:42Z</time>
      </trkpt>
      <trkpt lat="45.57133" lon="4.59121">
        <ele>416</ele>
        <time>2012-05-12T08:47:44Z</time>
      </trkpt>
      <trkpt lat="45.57135" lon="4.59111">
        <ele>415</ele>
        <time>2012-05-12T08:47:45Z</time>
      </trkpt>
      <trkpt lat="45.57136" lon="4.59101">
        <ele>414</ele>
        <time>2012-05-12T08:47:46Z</time>
      </trkpt>
      <trkpt lat="45.57134" lon="4.59091">
        <ele>413</ele>
        <time>2012-05-12T08:47:47Z</time>
      </trkpt>
      <trkpt lat="45.57133" lon="4.59081">
        <ele>413</ele>
        <time>2012-05-12T08:47:48Z</time>
      </trkpt>
      <trkpt lat="45.57131" lon="4.59072">
        <ele>412</ele>
        <time>2012-05-12T08:47:49Z</time>
      </trkpt>
      <trkpt lat="45.57129" lon="4.59063">
        <ele>411</ele>
        <time>2012-05-12T08:47:50Z</time>
      </trkpt>
      <trkpt lat="45.57127" lon="4.59055">
        <ele>410</ele>
        <time>2012-05-12T08:47:51Z</time>
      </trkpt>
      <trkpt lat="45.57123" lon="4.59038">
        <ele>408</ele>
        <time>2012-05-12T08:47:54Z</time>
      </trkpt>
      <trkpt lat="45.57124" lon="4.59033">
        <ele>407</ele>
        <time>2012-05-12T08:47:55Z</time>
      </trkpt>
      <trkpt lat="45.57124" lon="4.59028">
        <ele>406</ele>
        <time>2012-05-12T08:47:56Z</time>
      </trkpt>
      <trkpt lat="45.57124" lon="4.59024">
        <ele>405</ele>
        <time>2012-05-12T08:47:57Z</time>
      </trkpt>
      <trkpt lat="45.57124" lon="4.5902">
        <ele>405</ele>
        <time>2012-05-12T08:47:58Z</time>
      </trkpt>
      <trkpt lat="45.57124" lon="4.59015">
        <ele>404</ele>
        <time>2012-05-12T08:47:59Z</time>
      </trkpt>
      <trkpt lat="45.57126" lon="4.59006">
        <ele>404</ele>
        <time>2012-05-12T08:48:02Z</time>
      </trkpt>
      <trkpt lat="45.57127" lon="4.59004">
        <ele>404</ele>
        <time>2012-05-12T08:48:03Z</time>
      </trkpt>
      <trkpt lat="45.57129" lon="4.59002">
        <ele>404</ele>
        <time>2012-05-12T08:48:04Z</time>
      </trkpt>
      <trkpt lat="45.57136" lon="4.58994">
        <ele>406</ele>
        <time>2012-05-12T08:48:10Z</time>
      </trkpt>
      <trkpt lat="45.57138" lon="4.58994">
        <ele>406</ele>
        <time>2012-05-12T08:48:11Z</time>
      </trkpt>
      <trkpt lat="45.5714" lon="4.58994">
        <ele>407</ele>
        <time>2012-05-12T08:48:12Z</time>
      </trkpt>
      <trkpt lat="45.57141" lon="4.58994">
        <ele>407</ele>
        <time>2012-05-12T08:48:13Z</time>
      </trkpt>
      <trkpt lat="45.57142" lon="4.58995">
        <ele>406</ele>
        <time>2012-05-12T08:48:14Z</time>
      </trkpt>
      <trkpt lat="45.57143" lon="4.58996">
        <ele>406</ele>
        <time>2012-05-12T08:48:15Z</time>
      </trkpt>
      <trkpt lat="45.57144" lon="4.58997">
        <ele>407</ele>
        <time>2012-05-12T08:48:16Z</time>
      </trkpt>
      <trkpt lat="45.57148" lon="4.59004">
        <ele>407</ele>
        <time>2012-05-12T08:48:20Z</time>
      </trkpt>
      <trkpt lat="45.57149" lon="4.59006">
        <ele>407</ele>
        <time>2012-05-12T08:48:21Z</time>
      </trkpt>
      <trkpt lat="45.57155" lon="4.59012">
        <ele>408</ele>
        <time>2012-05-12T08:48:26Z</time>
      </trkpt>
      <trkpt lat="45.57156" lon="4.59014">
        <ele>408</ele>
        <time>2012-05-12T08:48:27Z</time>
      </trkpt>
      <trkpt lat="45.57158" lon="4.59016">
        <ele>408</ele>
        <time>2012-05-12T08:48:28Z</time>
      </trkpt>
      <trkpt lat="45.57159" lon="4.59019">
        <ele>408</ele>
        <time>2012-05-12T08:48:29Z</time>
      </trkpt>
      <trkpt lat="45.5716" lon="4.59021">
        <ele>408</ele>
        <time>2012-05-12T08:48:30Z</time>
      </trkpt>
      <trkpt lat="45.57161" lon="4.59023">
        <ele>408</ele>
        <time>2012-05-12T08:48:31Z</time>
      </trkpt>
      <trkpt lat="45.57162" lon="4.59025">
        <ele>408</ele>
        <time>2012-05-12T08:48:32Z</time>
      </trkpt>
      <trkpt lat="45.57163" lon="4.59027">
        <ele>408</ele>
        <time>2012-05-12T08:48:33Z</time>
      </trkpt>
      <trkpt lat="45.57163" lon="4.5903">
        <ele>408</ele>
        <time>2012-05-12T08:48:34Z</time>
      </trkpt>
      <trkpt lat="45.57164" lon="4.59032">
        <ele>408</ele>
        <time>2012-05-12T08:48:35Z</time>
      </trkpt>
      <trkpt lat="45.57165" lon="4.59034">
        <ele>408</ele>
        <time>2012-05-12T08:48:36Z</time>
      </trkpt>
      <trkpt lat="45.57166" lon="4.59036">
        <ele>408</ele>
        <time>2012-05-12T08:48:37Z</time>
      </trkpt>
      <trkpt lat="45.57167" lon="4.59037">
        <ele>408</ele>
        <time>2012-05-12T08:48:38Z</time>
      </trkpt>
      <trkpt lat="45.57168" lon="4.5904">
        <ele>408</ele>
        <time>2012-05-12T08:48:39Z</time>
      </trkpt>
      <trkpt lat="45.57169" lon="4.59042">
        <ele>408</ele>
        <time>2012-05-12T08:48:40Z</time>
      </trkpt>
      <trkpt lat="45.57171" lon="4.59045">
        <ele>408</ele>
        <time>2012-05-12T08:48:41Z</time>
      </trkpt>
      <trkpt lat="45.57172" lon="4.59048">
        <ele>408</ele>
        <time>2012-05-12T08:48:42Z</time>
      </trkpt>
      <trkpt lat="45.57173" lon="4.5905">
        <ele>408</ele>
        <time>2012-05-12T08:48:43Z</time>
      </trkpt>
      <trkpt lat="45.57175" lon="4.59052">
        <ele>408</ele>
        <time>2012-05-12T08:48:44Z</time>
      </trkpt>
      <trkpt lat="45.57186" lon="4.59063">
        <ele>408</ele>
        <time>2012-05-12T08:48:49Z</time>
      </trkpt>
      <trkpt lat="45.57187" lon="4.59067">
        <ele>408</ele>
        <time>2012-05-12T08:48:50Z</time>
      </trkpt>
      <trkpt lat="45.57189" lon="4.5907">
        <ele>408</ele>
        <time>2012-05-12T08:48:51Z</time>
      </trkpt>
      <trkpt lat="45.57191" lon="4.59072">
        <ele>408</ele>
        <time>2012-05-12T08:48:52Z</time>
      </trkpt>
      <trkpt lat="45.57204" lon="4.59085">
        <ele>408</ele>
        <time>2012-05-12T08:48:58Z</time>
      </trkpt>
      <trkpt lat="45.57206" lon="4.59087">
        <ele>408</ele>
        <time>2012-05-12T08:48:59Z</time>
      </trkpt>
      <trkpt lat="45.57207" lon="4.5909">
        <ele>408</ele>
        <time>2012-05-12T08:49:00Z</time>
      </trkpt>
      <trkpt lat="45.57211" lon="4.59107">
        <ele>409</ele>
        <time>2012-05-12T08:49:05Z</time>
      </trkpt>
      <trkpt lat="45.57211" lon="4.59113">
        <ele>409</ele>
        <time>2012-05-12T08:49:07Z</time>
      </trkpt>
      <trkpt lat="45.57211" lon="4.59116">
        <ele>409</ele>
        <time>2012-05-12T08:49:08Z</time>
      </trkpt>
      <trkpt lat="45.57211" lon="4.59119">
        <ele>409</ele>
        <time>2012-05-12T08:49:09Z</time>
      </trkpt>
      <trkpt lat="45.57211" lon="4.59131">
        <ele>410</ele>
        <time>2012-05-12T08:49:14Z</time>
      </trkpt>
      <trkpt lat="45.57213" lon="4.59143">
        <ele>411</ele>
        <time>2012-05-12T08:49:20Z</time>
      </trkpt>
      <trkpt lat="45.57213" lon="4.59147">
        <ele>411</ele>
        <time>2012-05-12T08:49:21Z</time>
      </trkpt>
      <trkpt lat="45.57214" lon="4.59152">
        <ele>411</ele>
        <time>2012-05-12T08:49:22Z</time>
      </trkpt>
      <trkpt lat="45.57215" lon="4.59157">
        <ele>412</ele>
        <time>2012-05-12T08:49:23Z</time>
      </trkpt>
      <trkpt lat="45.57215" lon="4.59161">
        <ele>412</ele>
        <time>2012-05-12T08:49:24Z</time>
      </trkpt>
      <trkpt lat="45.57217" lon="4.59165">
        <ele>413</ele>
        <time>2012-05-12T08:49:25Z</time>
      </trkpt>
      <trkpt lat="45.57219" lon="4.59167">
        <ele>413</ele>
        <time>2012-05-12T08:49:26Z</time>
      </trkpt>
      <trkpt lat="45.5722" lon="4.59171">
        <ele>413</ele>
        <time>2012-05-12T08:49:27Z</time>
      </trkpt>
      <trkpt lat="45.57222" lon="4.59175">
        <ele>413</ele>
        <time>2012-05-12T08:49:28Z</time>
      </trkpt>
      <trkpt lat="45.57231" lon="4.59199">
        <ele>415</ele>
        <time>2012-05-12T08:49:35Z</time>
      </trkpt>
      <trkpt lat="45.57243" lon="4.59214">
        <ele>414</ele>
        <time>2012-05-12T08:49:41Z</time>
      </trkpt>
      <trkpt lat="45.57249" lon="4.59224">
        <ele>414</ele>
        <time>2012-05-12T08:49:44Z</time>
      </trkpt>
      <trkpt lat="45.5725" lon="4.59228">
        <ele>414</ele>
        <time>2012-05-12T08:49:45Z</time>
      </trkpt>
      <trkpt lat="45.57251" lon="4.59232">
        <ele>414</ele>
        <time>2012-05-12T08:49:46Z</time>
      </trkpt>
      <trkpt lat="45.57251" lon="4.59236">
        <ele>414</ele>
        <time>2012-05-12T08:49:47Z</time>
      </trkpt>
      <trkpt lat="45.57251" lon="4.5924">
        <ele>414</ele>
        <time>2012-05-12T08:49:48Z</time>
      </trkpt>
      <trkpt lat="45.5725" lon="4.59243">
        <ele>414</ele>
        <time>2012-05-12T08:49:49Z</time>
      </trkpt>
      <trkpt lat="45.57249" lon="4.59244">
        <ele>414</ele>
        <time>2012-05-12T08:49:50Z</time>
      </trkpt>
      <trkpt lat="45.57247" lon="4.59245">
        <ele>414</ele>
        <time>2012-05-12T08:49:51Z</time>
      </trkpt>
      <trkpt lat="45.57245" lon="4.59245">
        <ele>414</ele>
        <time>2012-05-12T08:49:52Z</time>
      </trkpt>
      <trkpt lat="45.57236" lon="4.59249">
        <ele>415</ele>
        <time>2012-05-12T08:49:57Z</time>
      </trkpt>
      <trkpt lat="45.57234" lon="4.5925">
        <ele>415</ele>
        <time>2012-05-12T08:49:58Z</time>
      </trkpt>
      <trkpt lat="45.57231" lon="4.5925">
        <ele>416</ele>
        <time>2012-05-12T08:49:59Z</time>
      </trkpt>
      <trkpt lat="45.57229" lon="4.5925">
        <ele>416</ele>
        <time>2012-05-12T08:50:00Z</time>
      </trkpt>
      <trkpt lat="45.57226" lon="4.59251">
        <ele>417</ele>
        <time>2012-05-12T08:50:01Z</time>
      </trkpt>
      <trkpt lat="45.57224" lon="4.59251">
        <ele>417</ele>
        <time>2012-05-12T08:50:02Z</time>
      </trkpt>
      <trkpt lat="45.57221" lon="4.59252">
        <ele>417</ele>
        <time>2012-05-12T08:50:03Z</time>
      </trkpt>
      <trkpt lat="45.57219" lon="4.59254">
        <ele>418</ele>
        <time>2012-05-12T08:50:04Z</time>
      </trkpt>
      <trkpt lat="45.57217" lon="4.59256">
        <ele>418</ele>
        <time>2012-05-12T08:50:05Z</time>
      </trkpt>
      <trkpt lat="45.57217" lon="4.59259">
        <ele>419</ele>
        <time>2012-05-12T08:50:06Z</time>
      </trkpt>
      <trkpt lat="45.57217" lon="4.59262">
        <ele>419</ele>
        <time>2012-05-12T08:50:07Z</time>
      </trkpt>
      <trkpt lat="45.57217" lon="4.59265">
        <ele>419</ele>
        <time>2012-05-12T08:50:08Z</time>
      </trkpt>
      <trkpt lat="45.57218" lon="4.59268">
        <ele>419</ele>
        <time>2012-05-12T08:50:09Z</time>
      </trkpt>
      <trkpt lat="45.57219" lon="4.59271">
        <ele>419</ele>
        <time>2012-05-12T08:50:10Z</time>
      </trkpt>
      <trkpt lat="45.57219" lon="4.59273">
        <ele>420</ele>
        <time>2012-05-12T08:50:11Z</time>
      </trkpt>
      <trkpt lat="45.5722" lon="4.59276">
        <ele>420</ele>
        <time>2012-05-12T08:50:12Z</time>
      </trkpt>
      <trkpt lat="45.57226" lon="4.59297">
        <ele>422</ele>
        <time>2012-05-12T08:50:20Z</time>
      </trkpt>
      <trkpt lat="45.57233" lon="4.59324">
        <ele>424</ele>
        <time>2012-05-12T08:50:29Z</time>
      </trkpt>
      <trkpt lat="45.57239" lon="4.59352">
        <ele>425</ele>
        <time>2012-05-12T08:50:38Z</time>
      </trkpt>
      <trkpt lat="45.57244" lon="4.59372">
        <ele>426</ele>
        <time>2012-05-12T08:50:45Z</time>
      </trkpt>
      <trkpt lat="45.57247" lon="4.59397">
        <ele>426</ele>
        <time>2012-05-12T08:50:52Z</time>
      </trkpt>
      <trkpt lat="45.5725" lon="4.59433">
        <ele>426</ele>
        <time>2012-05-12T08:51:01Z</time>
      </trkpt>
      <trkpt lat="45.57245" lon="4.59468">
        <ele>427</ele>
        <time>2012-05-12T08:51:10Z</time>
      </trkpt>
      <trkpt lat="45.57245" lon="4.59477">
        <ele>428</ele>
        <time>2012-05-12T08:51:13Z</time>
      </trkpt>
      <trkpt lat="45.57245" lon="4.59479">
        <ele>428</ele>
        <time>2012-05-12T08:51:14Z</time>
      </trkpt>
      <trkpt lat="45.57245" lon="4.59481">
        <ele>428</ele>
        <time>2012-05-12T08:51:15Z</time>
      </trkpt>
      <trkpt lat="45.57246" lon="4.59483">
        <ele>428</ele>
        <time>2012-05-12T08:51:16Z</time>
      </trkpt>
      <trkpt lat="45.57246" lon="4.59485">
        <ele>428</ele>
        <time>2012-05-12T08:51:17Z</time>
      </trkpt>
      <trkpt lat="45.57246" lon="4.59497">
        <ele>430</ele>
        <time>2012-05-12T08:51:24Z</time>
      </trkpt>
      <trkpt lat="45.57248" lon="4.59505">
        <ele>431</ele>
        <time>2012-05-12T08:51:28Z</time>
      </trkpt>
      <trkpt lat="45.57248" lon="4.59507">
        <ele>431</ele>
        <time>2012-05-12T08:51:29Z</time>
      </trkpt>
      <trkpt lat="45.57248" lon="4.59508">
        <ele>431</ele>
        <time>2012-05-12T08:51:30Z</time>
      </trkpt>
      <trkpt lat="45.57253" lon="4.59523">
        <ele>433</ele>
        <time>2012-05-12T08:51:37Z</time>
      </trkpt>
      <trkpt lat="45.57253" lon="4.59525">
        <ele>433</ele>
        <time>2012-05-12T08:51:38Z</time>
      </trkpt>
      <trkpt lat="45.57254" lon="4.59526">
        <ele>433</ele>
        <time>2012-05-12T08:51:39Z</time>
      </trkpt>
      <trkpt lat="45.57257" lon="4.59532">
        <ele>434</ele>
        <time>2012-05-12T08:51:42Z</time>
      </trkpt>
      <trkpt lat="45.57258" lon="4.59534">
        <ele>434</ele>
        <time>2012-05-12T08:51:43Z</time>
      </trkpt>
      <trkpt lat="45.57259" lon="4.59536">
        <ele>434</ele>
        <time>2012-05-12T08:51:44Z</time>
      </trkpt>
      <trkpt lat="45.5726" lon="4.59538">
        <ele>434</ele>
        <time>2012-05-12T08:51:45Z</time>
      </trkpt>
      <trkpt lat="45.57261" lon="4.5954">
        <ele>434</ele>
        <time>2012-05-12T08:51:46Z</time>
      </trkpt>
      <trkpt lat="45.57262" lon="4.59542">
        <ele>434</ele>
        <time>2012-05-12T08:51:47Z</time>
      </trkpt>
      <trkpt lat="45.57265" lon="4.5955">
        <ele>434</ele>
        <time>2012-05-12T08:51:51Z</time>
      </trkpt>
      <trkpt lat="45.57265" lon="4.59552">
        <ele>435</ele>
        <time>2012-05-12T08:51:52Z</time>
      </trkpt>
      <trkpt lat="45.57266" lon="4.59554">
        <ele>435</ele>
        <time>2012-05-12T08:51:53Z</time>
      </trkpt>
      <trkpt lat="45.57267" lon="4.59556">
        <ele>435</ele>
        <time>2012-05-12T08:51:54Z</time>
      </trkpt>
      <trkpt lat="45.57268" lon="4.59558">
        <ele>435</ele>
        <time>2012-05-12T08:51:55Z</time>
      </trkpt>
      <trkpt lat="45.57269" lon="4.59561">
        <ele>435</ele>
        <time>2012-05-12T08:51:56Z</time>
      </trkpt>
      <trkpt lat="45.5727" lon="4.59563">
        <ele>435</ele>
        <time>2012-05-12T08:51:57Z</time>
      </trkpt>
      <trkpt lat="45.57271" lon="4.59566">
        <ele>435</ele>
        <time>2012-05-12T08:51:58Z</time>
      </trkpt>
      <trkpt lat="45.57272" lon="4.59568">
        <ele>436</ele>
        <time>2012-05-12T08:51:59Z</time>
      </trkpt>
      <trkpt lat="45.57273" lon="4.5957">
        <ele>436</ele>
        <time>2012-05-12T08:52:00Z</time>
      </trkpt>
      <trkpt lat="45.57281" lon="4.59589">
        <ele>436</ele>
        <time>2012-05-12T08:52:08Z</time>
      </trkpt>
      <trkpt lat="45.57288" lon="4.59607">
        <ele>437</ele>
        <time>2012-05-12T08:52:14Z</time>
      </trkpt>
      <trkpt lat="45.57301" lon="4.59634">
        <ele>436</ele>
        <time>2012-05-12T08:52:21Z</time>
      </trkpt>
      <trkpt lat="45.57317" lon="4.59672">
        <ele>437</ele>
        <time>2012-05-12T08:52:31Z</time>
      </trkpt>
      <trkpt lat="45.57325" lon="4.59693">
        <ele>438</ele>
        <time>2012-05-12T08:52:37Z</time>
      </trkpt>
      <trkpt lat="45.57321" lon="4.59724">
        <ele>438</ele>
        <time>2012-05-12T08:52:44Z</time>
      </trkpt>
      <trkpt lat="45.57315" lon="4.59743">
        <ele>438</ele>
        <time>2012-05-12T08:52:50Z</time>
      </trkpt>
      <trkpt lat="45.57307" lon="4.59766">
        <ele>439</ele>
        <time>2012-05-12T08:52:57Z</time>
      </trkpt>
      <trkpt lat="45.57298" lon="4.59787">
        <ele>439</ele>
        <time>2012-05-12T08:53:04Z</time>
      </trkpt>
      <trkpt lat="45.57294" lon="4.59796">
        <ele>438</ele>
        <time>2012-05-12T08:53:11Z</time>
      </trkpt>
      <trkpt lat="45.57295" lon="4.59794">
        <ele>439</ele>
        <time>2012-05-12T08:53:17Z</time>
      </trkpt>
      <trkpt lat="45.57293" lon="4.59792">
        <ele>438</ele>
        <time>2012-05-12T08:53:22Z</time>
      </trkpt>
      <trkpt lat="45.57292" lon="4.59792">
        <ele>439</ele>
        <time>2012-05-12T08:53:32Z</time>
      </trkpt>
      <trkpt lat="45.57292" lon="4.59792">
        <ele>439</ele>
        <time>2012-05-12T08:53:39Z</time>
      </trkpt>
      <trkpt lat="45.57292" lon="4.59792">
        <ele>438</ele>
        <time>2012-05-12T08:53:52Z</time>
      </trkpt>
      <trkpt lat="45.57292" lon="4.59792">
        <ele>439</ele>
        <time>2012-05-12T08:54:00Z</time>
      </trkpt>
      <trkpt lat="45.57293" lon="4.59789">
        <ele>439</ele>
        <time>2012-05-12T08:54:09Z</time>
      </trkpt>
      <trkpt lat="45.57294" lon="4.59789">
        <ele>439</ele>
        <time>2012-05-12T08:54:19Z</time>
      </trkpt>
      <trkpt lat="45.57294" lon="4.59788">
        <ele>439</ele>
        <time>2012-05-12T08:54:31Z</time>
      </trkpt>
      <trkpt lat="45.57294" lon="4.59788">
        <ele>439</ele>
        <time>2012-05-12T08:54:47Z</time>
      </trkpt>
      <trkpt lat="45.57295" lon="4.5979">
        <ele>439</ele>
        <time>2012-05-12T08:55:05Z</time>
      </trkpt>
      <trkpt lat="45.57295" lon="4.59789">
        <ele>438</ele>
        <time>2012-05-12T08:55:18Z</time>
      </trkpt>
      <trkpt lat="45.57295" lon="4.59789">
        <ele>438</ele>
        <time>2012-05-12T08:55:35Z</time>
      </trkpt>
      <trkpt lat="45.57295" lon="4.5979">
        <ele>438</ele>
        <time>2012-05-12T08:55:50Z</time>
      </trkpt>
      <trkpt lat="45.57295" lon="4.59789">
        <ele>437</ele>
        <time>2012-05-12T08:56:05Z</time>
      </trkpt>
      <trkpt lat="45.57295" lon="4.59789">
        <ele>437</ele>
        <time>2012-05-12T08:56:24Z</time>
      </trkpt>
      <trkpt lat="45.57295" lon="4.59789">
        <ele>437</ele>
        <time>2012-05-12T08:56:43Z</time>
      </trkpt>
      <trkpt lat="45.57295" lon="4.59789">
        <ele>436</ele>
        <time>2012-05-12T08:57:00Z</time>
      </trkpt>
      <trkpt lat="45.57295" lon="4.59789">
        <ele>435</ele>
        <time>2012-05-12T08:57:16Z</time>
      </trkpt>
      <trkpt lat="45.57295" lon="4.59789">
        <ele>436</ele>
        <time>2012-05-12T08:57:35Z</time>
      </trkpt>
      <trkpt lat="45.57295" lon="4.5979">
        <ele>436</ele>
        <time>2012-05-12T08:57:53Z</time>
      </trkpt>
      <trkpt lat="45.57296" lon="4.5979">
        <ele>436</ele>
        <time>2012-05-12T08:58:11Z</time>
      </trkpt>
      <trkpt lat="45.57296" lon="4.5979">
        <ele>436</ele>
        <time>2012-05-12T08:58:27Z</time>
      </trkpt>
      <trkpt lat="45.57296" lon="4.5979">
        <ele>436</ele>
        <time>2012-05-12T08:58:45Z</time>
      </trkpt>
      <trkpt lat="45.57296" lon="4.5979">
        <ele>438</ele>
        <time>2012-05-12T08:59:04Z</time>
      </trkpt>
      <trkpt lat="45.57296" lon="4.59789">
        <ele>437</ele>
        <time>2012-05-12T08:59:25Z</time>
      </trkpt>
      <trkpt lat="45.57296" lon="4.59788">
        <ele>438</ele>
        <time>2012-05-12T08:59:46Z</time>
      </trkpt>
      <trkpt lat="45.57297" lon="4.59789">
        <ele>438</ele>
        <time>2012-05-12T09:00:06Z</time>
      </trkpt>
      <trkpt lat="45.57297" lon="4.59789">
        <ele>438</ele>
        <time>2012-05-12T09:00:27Z</time>
      </trkpt>
      <trkpt lat="45.57297" lon="4.59789">
        <ele>439</ele>
        <time>2012-05-12T09:00:46Z</time>
      </trkpt>
      <trkpt lat="45.57297" lon="4.59789">
        <ele>438</ele>
        <time>2012-05-12T09:01:10Z</time>
      </trkpt>
      <trkpt lat="45.57297" lon="4.59788">
        <ele>439</ele>
        <time>2012-05-12T09:01:33Z</time>
      </trkpt>
      <trkpt lat="45.57297" lon="4.59788">
        <ele>439</ele>
        <time>2012-05-12T09:01:57Z</time>
      </trkpt>
      <trkpt lat="45.57297" lon="4.59788">
        <ele>439</ele>
        <time>2012-05-12T09:02:10Z</time>
      </trkpt>
      <trkpt lat="45.57297" lon="4.59789">
        <ele>439</ele>
        <time>2012-05-12T09:02:13Z</time>
      </trkpt>
      <trkpt lat="45.57295" lon="4.59793">
        <ele>439</ele>
        <time>2012-05-12T09:02:15Z</time>
      </trkpt>
      <trkpt lat="45.57295" lon="4.59796">
        <ele>439</ele>
        <time>2012-05-12T09:02:16Z</time>
      </trkpt>
      <trkpt lat="45.57294" lon="4.59803">
        <ele>439</ele>
        <time>2012-05-12T09:02:18Z</time>
      </trkpt>
      <trkpt lat="45.57288" lon="4.59822">
        <ele>439</ele>
        <time>2012-05-12T09:02:24Z</time>
      </trkpt>
      <trkpt lat="45.57282" lon="4.59849">
        <ele>438</ele>
        <time>2012-05-12T09:02:31Z</time>
      </trkpt>
      <trkpt lat="45.57276" lon="4.59867">
        <ele>438</ele>
        <time>2012-05-12T09:02:36Z</time>
      </trkpt>
      <trkpt lat="45.57269" lon="4.59891">
        <ele>438</ele>
        <time>2012-05-12T09:02:42Z</time>
      </trkpt>
      <trkpt lat="45.57265" lon="4.59919">
        <ele>438</ele>
        <time>2012-05-12T09:02:49Z</time>
      </trkpt>
      <trkpt lat="45.57272" lon="4.59946">
        <ele>439</ele>
        <time>2012-05-12T09:02:56Z</time>
      </trkpt>
      <trkpt lat="45.57279" lon="4.59972">
        <ele>439</ele>
        <time>2012-05-12T09:03:03Z</time>
      </trkpt>
      <trkpt lat="45.57294" lon="4.59987">
        <ele>439</ele>
        <time>2012-05-12T09:03:08Z</time>
      </trkpt>
      <trkpt lat="45.5732" lon="4.59996">
        <ele>439</ele>
        <time>2012-05-12T09:03:15Z</time>
      </trkpt>
      <trkpt lat="45.57357" lon="4.60007">
        <ele>438</ele>
        <time>2012-05-12T09:03:23Z</time>
      </trkpt>
      <trkpt lat="45.57409" lon="4.60024">
        <ele>438</ele>
        <time>2012-05-12T09:03:33Z</time>
      </trkpt>
      <trkpt lat="45.57443" lon="4.6004">
        <ele>438</ele>
        <time>2012-05-12T09:03:40Z</time>
      </trkpt>
      <trkpt lat="45.57478" lon="4.60061">
        <ele>438</ele>
        <time>2012-05-12T09:03:48Z</time>
      </trkpt>
      <trkpt lat="45.57502" lon="4.6008">
        <ele>440</ele>
        <time>2012-05-12T09:03:55Z</time>
      </trkpt>
      <trkpt lat="45.57525" lon="4.60112">
        <ele>442</ele>
        <time>2012-05-12T09:04:04Z</time>
      </trkpt>
      <trkpt lat="45.57544" lon="4.60135">
        <ele>442</ele>
        <time>2012-05-12T09:04:12Z</time>
      </trkpt>
      <trkpt lat="45.57547" lon="4.60139">
        <ele>442</ele>
        <time>2012-05-12T09:04:13Z</time>
      </trkpt>
      <trkpt lat="45.57547" lon="4.60145">
        <ele>442</ele>
        <time>2012-05-12T09:04:14Z</time>
      </trkpt>
      <trkpt lat="45.57545" lon="4.60151">
        <ele>441</ele>
        <time>2012-05-12T09:04:15Z</time>
      </trkpt>
      <trkpt lat="45.5754" lon="4.60156">
        <ele>441</ele>
        <time>2012-05-12T09:04:16Z</time>
      </trkpt>
      <trkpt lat="45.57535" lon="4.60161">
        <ele>440</ele>
        <time>2012-05-12T09:04:17Z</time>
      </trkpt>
      <trkpt lat="45.57529" lon="4.60168">
        <ele>440</ele>
        <time>2012-05-12T09:04:18Z</time>
      </trkpt>
      <trkpt lat="45.57524" lon="4.60175">
        <ele>439</ele>
        <time>2012-05-12T09:04:19Z</time>
      </trkpt>
      <trkpt lat="45.57502" lon="4.60199">
        <ele>436</ele>
        <time>2012-05-12T09:04:23Z</time>
      </trkpt>
      <trkpt lat="45.57497" lon="4.60204">
        <ele>436</ele>
        <time>2012-05-12T09:04:24Z</time>
      </trkpt>
      <trkpt lat="45.57494" lon="4.6021">
        <ele>435</ele>
        <time>2012-05-12T09:04:25Z</time>
      </trkpt>
      <trkpt lat="45.57492" lon="4.60218">
        <ele>435</ele>
        <time>2012-05-12T09:04:26Z</time>
      </trkpt>
      <trkpt lat="45.57493" lon="4.60225">
        <ele>435</ele>
        <time>2012-05-12T09:04:27Z</time>
      </trkpt>
      <trkpt lat="45.57495" lon="4.6023">
        <ele>435</ele>
        <time>2012-05-12T09:04:28Z</time>
      </trkpt>
      <trkpt lat="45.57498" lon="4.60234">
        <ele>435</ele>
        <time>2012-05-12T09:04:29Z</time>
      </trkpt>
      <trkpt lat="45.57501" lon="4.60238">
        <ele>435</ele>
        <time>2012-05-12T09:04:30Z</time>
      </trkpt>
      <trkpt lat="45.57504" lon="4.60243">
        <ele>435</ele>
        <time>2012-05-12T09:04:31Z</time>
      </trkpt>
      <trkpt lat="45.57506" lon="4.60248">
        <ele>435</ele>
        <time>2012-05-12T09:04:32Z</time>
      </trkpt>
      <trkpt lat="45.57509" lon="4.60254">
        <ele>435</ele>
        <time>2012-05-12T09:04:33Z</time>
      </trkpt>
      <trkpt lat="45.5753" lon="4.60297">
        <ele>435</ele>
        <time>2012-05-12T09:04:41Z</time>
      </trkpt>
      <trkpt lat="45.57533" lon="4.60302">
        <ele>435</ele>
        <time>2012-05-12T09:04:42Z</time>
      </trkpt>
      <trkpt lat="45.57536" lon="4.60307">
        <ele>435</ele>
        <time>2012-05-12T09:04:43Z</time>
      </trkpt>
      <trkpt lat="45.57539" lon="4.60313">
        <ele>434</ele>
        <time>2012-05-12T09:04:44Z</time>
      </trkpt>
      <trkpt lat="45.57541" lon="4.60318">
        <ele>434</ele>
        <time>2012-05-12T09:04:45Z</time>
      </trkpt>
      <trkpt lat="45.57543" lon="4.60324">
        <ele>434</ele>
        <time>2012-05-12T09:04:46Z</time>
      </trkpt>
      <trkpt lat="45.57547" lon="4.60335">
        <ele>434</ele>
        <time>2012-05-12T09:04:48Z</time>
      </trkpt>
      <trkpt lat="45.57548" lon="4.60341">
        <ele>433</ele>
        <time>2012-05-12T09:04:49Z</time>
      </trkpt>
      <trkpt lat="45.57556" lon="4.60396">
        <ele>431</ele>
        <time>2012-05-12T09:04:57Z</time>
      </trkpt>
      <trkpt lat="45.57558" lon="4.60437">
        <ele>429</ele>
        <time>2012-05-12T09:05:02Z</time>
      </trkpt>
      <trkpt lat="45.57558" lon="4.60455">
        <ele>428</ele>
        <time>2012-05-12T09:05:04Z</time>
      </trkpt>
      <trkpt lat="45.57558" lon="4.60464">
        <ele>427</ele>
        <time>2012-05-12T09:05:05Z</time>
      </trkpt>
      <trkpt lat="45.57558" lon="4.60473">
        <ele>428</ele>
        <time>2012-05-12T09:05:06Z</time>
      </trkpt>
      <trkpt lat="45.57559" lon="4.60483">
        <ele>427</ele>
        <time>2012-05-12T09:05:07Z</time>
      </trkpt>
      <trkpt lat="45.5756" lon="4.60492">
        <ele>426</ele>
        <time>2012-05-12T09:05:08Z</time>
      </trkpt>
      <trkpt lat="45.5756" lon="4.60501">
        <ele>426</ele>
        <time>2012-05-12T09:05:09Z</time>
      </trkpt>
      <trkpt lat="45.57563" lon="4.60544">
        <ele>424</ele>
        <time>2012-05-12T09:05:13Z</time>
      </trkpt>
      <trkpt lat="45.57565" lon="4.60561">
        <ele>421</ele>
        <time>2012-05-12T09:05:15Z</time>
      </trkpt>
      <trkpt lat="45.57567" lon="4.60572">
        <ele>419</ele>
        <time>2012-05-12T09:05:18Z</time>
      </trkpt>
      <trkpt lat="45.57567" lon="4.6057">
        <ele>419</ele>
        <time>2012-05-12T09:05:26Z</time>
      </trkpt>
      <trkpt lat="45.57566" lon="4.60572">
        <ele>419</ele>
        <time>2012-05-12T09:05:29Z</time>
      </trkpt>
      <trkpt lat="45.57565" lon="4.60576">
        <ele>418</ele>
        <time>2012-05-12T09:05:30Z</time>
      </trkpt>
      <trkpt lat="45.57565" lon="4.6058">
        <ele>418</ele>
        <time>2012-05-12T09:05:31Z</time>
      </trkpt>
      <trkpt lat="45.57567" lon="4.60615">
        <ele>416</ele>
        <time>2012-05-12T09:05:36Z</time>
      </trkpt>
      <trkpt lat="45.57568" lon="4.60679">
        <ele>414</ele>
        <time>2012-05-12T09:05:42Z</time>
      </trkpt>
      <trkpt lat="45.57568" lon="4.60713">
        <ele>412</ele>
        <time>2012-05-12T09:05:45Z</time>
      </trkpt>
      <trkpt lat="45.57566" lon="4.60736">
        <ele>411</ele>
        <time>2012-05-12T09:05:47Z</time>
      </trkpt>
      <trkpt lat="45.57563" lon="4.60784">
        <ele>407</ele>
        <time>2012-05-12T09:05:51Z</time>
      </trkpt>
      <trkpt lat="45.5756" lon="4.60828">
        <ele>404</ele>
        <time>2012-05-12T09:05:55Z</time>
      </trkpt>
      <trkpt lat="45.57557" lon="4.60873">
        <ele>401</ele>
        <time>2012-05-12T09:05:59Z</time>
      </trkpt>
      <trkpt lat="45.57556" lon="4.60896">
        <ele>400</ele>
        <time>2012-05-12T09:06:01Z</time>
      </trkpt>
      <trkpt lat="45.57554" lon="4.60955">
        <ele>397</ele>
        <time>2012-05-12T09:06:06Z</time>
      </trkpt>
      <trkpt lat="45.57554" lon="4.61015">
        <ele>392</ele>
        <time>2012-05-12T09:06:11Z</time>
      </trkpt>
      <trkpt lat="45.57556" lon="4.61051">
        <ele>389</ele>
        <time>2012-05-12T09:06:14Z</time>
      </trkpt>
      <trkpt lat="45.57555" lon="4.61063">
        <ele>389</ele>
        <time>2012-05-12T09:06:15Z</time>
      </trkpt>
      <trkpt lat="45.57553" lon="4.61075">
        <ele>387</ele>
        <time>2012-05-12T09:06:16Z</time>
      </trkpt>
      <trkpt lat="45.57552" lon="4.61085">
        <ele>385</ele>
        <time>2012-05-12T09:06:17Z</time>
      </trkpt>
      <trkpt lat="45.57553" lon="4.61095">
        <ele>385</ele>
        <time>2012-05-12T09:06:18Z</time>
      </trkpt>
      <trkpt lat="45.57555" lon="4.61104">
        <ele>385</ele>
        <time>2012-05-12T09:06:19Z</time>
      </trkpt>
      <trkpt lat="45.57557" lon="4.61114">
        <ele>383</ele>
        <time>2012-05-12T09:06:20Z</time>
      </trkpt>
      <trkpt lat="45.57558" lon="4.61123">
        <ele>382</ele>
        <time>2012-05-12T09:06:21Z</time>
      </trkpt>
      <trkpt lat="45.57565" lon="4.61173">
        <ele>378</ele>
        <time>2012-05-12T09:06:26Z</time>
      </trkpt>
      <trkpt lat="45.57566" lon="4.61206">
        <ele>376</ele>
        <time>2012-05-12T09:06:29Z</time>
      </trkpt>
      <trkpt lat="45.57567" lon="4.61217">
        <ele>375</ele>
        <time>2012-05-12T09:06:30Z</time>
      </trkpt>
      <trkpt lat="45.5757" lon="4.61245">
        <ele>373</ele>
        <time>2012-05-12T09:06:33Z</time>
      </trkpt>
      <trkpt lat="45.57569" lon="4.61253">
        <ele>371</ele>
        <time>2012-05-12T09:06:34Z</time>
      </trkpt>
      <trkpt lat="45.57567" lon="4.61259">
        <ele>370</ele>
        <time>2012-05-12T09:06:35Z</time>
      </trkpt>
      <trkpt lat="45.57563" lon="4.61263">
        <ele>370</ele>
        <time>2012-05-12T09:06:36Z</time>
      </trkpt>
      <trkpt lat="45.57561" lon="4.61266">
        <ele>369</ele>
        <time>2012-05-12T09:06:37Z</time>
      </trkpt>
      <trkpt lat="45.57559" lon="4.61271">
        <ele>369</ele>
        <time>2012-05-12T09:06:38Z</time>
      </trkpt>
      <trkpt lat="45.5756" lon="4.61276">
        <ele>368</ele>
        <time>2012-05-12T09:06:39Z</time>
      </trkpt>
      <trkpt lat="45.57562" lon="4.6128">
        <ele>368</ele>
        <time>2012-05-12T09:06:40Z</time>
      </trkpt>
      <trkpt lat="45.57566" lon="4.61285">
        <ele>366</ele>
        <time>2012-05-12T09:06:41Z</time>
      </trkpt>
      <trkpt lat="45.57572" lon="4.61294">
        <ele>364</ele>
        <time>2012-05-12T09:06:43Z</time>
      </trkpt>
      <trkpt lat="45.57576" lon="4.613">
        <ele>364</ele>
        <time>2012-05-12T09:06:44Z</time>
      </trkpt>
      <trkpt lat="45.57579" lon="4.61305">
        <ele>363</ele>
        <time>2012-05-12T09:06:45Z</time>
      </trkpt>
      <trkpt lat="45.57581" lon="4.61311">
        <ele>362</ele>
        <time>2012-05-12T09:06:46Z</time>
      </trkpt>
      <trkpt lat="45.57579" lon="4.61317">
        <ele>361</ele>
        <time>2012-05-12T09:06:47Z</time>
      </trkpt>
      <trkpt lat="45.57575" lon="4.6132">
        <ele>360</ele>
        <time>2012-05-12T09:06:48Z</time>
      </trkpt>
      <trkpt lat="45.5757" lon="4.61322">
        <ele>360</ele>
        <time>2012-05-12T09:06:49Z</time>
      </trkpt>
      <trkpt lat="45.57566" lon="4.61321">
        <ele>360</ele>
        <time>2012-05-12T09:06:50Z</time>
      </trkpt>
      <trkpt lat="45.57562" lon="4.61322">
        <ele>359</ele>
        <time>2012-05-12T09:06:51Z</time>
      </trkpt>
      <trkpt lat="45.57559" lon="4.61322">
        <ele>358</ele>
        <time>2012-05-12T09:06:52Z</time>
      </trkpt>
      <trkpt lat="45.57556" lon="4.61322">
        <ele>358</ele>
        <time>2012-05-12T09:06:53Z</time>
      </trkpt>
      <trkpt lat="45.57552" lon="4.61321">
        <ele>357</ele>
        <time>2012-05-12T09:06:54Z</time>
      </trkpt>
      <trkpt lat="45.57537" lon="4.61317">
        <ele>354</ele>
        <time>2012-05-12T09:06:57Z</time>
      </trkpt>
      <trkpt lat="45.5753" lon="4.61316">
        <ele>353</ele>
        <time>2012-05-12T09:06:58Z</time>
      </trkpt>
      <trkpt lat="45.57516" lon="4.61316">
        <ele>351</ele>
        <time>2012-05-12T09:07:00Z</time>
      </trkpt>
      <trkpt lat="45.57511" lon="4.61317">
        <ele>351</ele>
        <time>2012-05-12T09:07:01Z</time>
      </trkpt>
      <trkpt lat="45.57506" lon="4.61317">
        <ele>349</ele>
        <time>2012-05-12T09:07:02Z</time>
      </trkpt>
      <trkpt lat="45.57503" lon="4.61315">
        <ele>349</ele>
        <time>2012-05-12T09:07:03Z</time>
      </trkpt>
      <trkpt lat="45.57501" lon="4.61312">
        <ele>349</ele>
        <time>2012-05-12T09:07:04Z</time>
      </trkpt>
      <trkpt lat="45.57495" lon="4.61309">
        <ele>347</ele>
        <time>2012-05-12T09:07:07Z</time>
      </trkpt>
      <trkpt lat="45.57494" lon="4.61313">
        <ele>346</ele>
        <time>2012-05-12T09:07:09Z</time>
      </trkpt>
      <trkpt lat="45.575" lon="4.61327">
        <ele>344</ele>
        <time>2012-05-12T09:07:13Z</time>
      </trkpt>
      <trkpt lat="45.57509" lon="4.61336">
        <ele>343</ele>
        <time>2012-05-12T09:07:16Z</time>
      </trkpt>
      <trkpt lat="45.57521" lon="4.61344">
        <ele>341</ele>
        <time>2012-05-12T09:07:19Z</time>
      </trkpt>
      <trkpt lat="45.57533" lon="4.61352">
        <ele>339</ele>
        <time>2012-05-12T09:07:23Z</time>
      </trkpt>
      <trkpt lat="45.57543" lon="4.61363">
        <ele>337</ele>
        <time>2012-05-12T09:07:27Z</time>
      </trkpt>
      <trkpt lat="45.57543" lon="4.61369">
        <ele>336</ele>
        <time>2012-05-12T09:07:29Z</time>
      </trkpt>
      <trkpt lat="45.5754" lon="4.61372">
        <ele>335</ele>
        <time>2012-05-12T09:07:30Z</time>
      </trkpt>
      <trkpt lat="45.57533" lon="4.6138">
        <ele>334</ele>
        <time>2012-05-12T09:07:32Z</time>
      </trkpt>
      <trkpt lat="45.57531" lon="4.61384">
        <ele>333</ele>
        <time>2012-05-12T09:07:33Z</time>
      </trkpt>
      <trkpt lat="45.57529" lon="4.6139">
        <ele>333</ele>
        <time>2012-05-12T09:07:34Z</time>
      </trkpt>
      <trkpt lat="45.57528" lon="4.61395">
        <ele>333</ele>
        <time>2012-05-12T09:07:35Z</time>
      </trkpt>
      <trkpt lat="45.57529" lon="4.61399">
        <ele>334</ele>
        <time>2012-05-12T09:07:36Z</time>
      </trkpt>
      <trkpt lat="45.57526" lon="4.61412">
        <ele>334</ele>
        <time>2012-05-12T09:07:41Z</time>
      </trkpt>
      <trkpt lat="45.57523" lon="4.6142">
        <ele>334</ele>
        <time>2012-05-12T09:07:48Z</time>
      </trkpt>
      <trkpt lat="45.57522" lon="4.61423">
        <ele>335</ele>
        <time>2012-05-12T09:07:55Z</time>
      </trkpt>
      <trkpt lat="45.57522" lon="4.61427">
        <ele>334</ele>
        <time>2012-05-12T09:08:02Z</time>
      </trkpt>
      <trkpt lat="45.57521" lon="4.61432">
        <ele>333</ele>
        <time>2012-05-12T09:08:09Z</time>
      </trkpt>
      <trkpt lat="45.57522" lon="4.61435">
        <ele>334</ele>
        <time>2012-05-12T09:08:24Z</time>
      </trkpt>
      <trkpt lat="45.57523" lon="4.61435">
        <ele>335</ele>
        <time>2012-05-12T09:08:39Z</time>
      </trkpt>
      <trkpt lat="45.57524" lon="4.61435">
        <ele>335</ele>
        <time>2012-05-12T09:08:54Z</time>
      </trkpt>
      <trkpt lat="45.57524" lon="4.61435">
        <ele>336</ele>
        <time>2012-05-12T09:09:08Z</time>
      </trkpt>
      <trkpt lat="45.57523" lon="4.61435">
        <ele>336</ele>
        <time>2012-05-12T09:09:21Z</time>
      </trkpt>
      <trkpt lat="45.57523" lon="4.61437">
        <ele>336</ele>
        <time>2012-05-12T09:09:38Z</time>
      </trkpt>
      <trkpt lat="45.57524" lon="4.61437">
        <ele>336</ele>
        <time>2012-05-12T09:09:55Z</time>
      </trkpt>
      <trkpt lat="45.57525" lon="4.61438">
        <ele>336</ele>
        <time>2012-05-12T09:10:11Z</time>
      </trkpt>
      <trkpt lat="45.57525" lon="4.61438">
        <ele>336</ele>
        <time>2012-05-12T09:10:20Z</time>
      </trkpt>
      <trkpt lat="45.57525" lon="4.61443">
        <ele>336</ele>
        <time>2012-05-12T09:10:25Z</time>
      </trkpt>
      <trkpt lat="45.57525" lon="4.61445">
        <ele>336</ele>
        <time>2012-05-12T09:10:26Z</time>
      </trkpt>
      <trkpt lat="45.57526" lon="4.61447">
        <ele>335</ele>
        <time>2012-05-12T09:10:27Z</time>
      </trkpt>
      <trkpt lat="45.57525" lon="4.61454">
        <ele>335</ele>
        <time>2012-05-12T09:10:30Z</time>
      </trkpt>
      <trkpt lat="45.57525" lon="4.61462">
        <ele>333</ele>
        <time>2012-05-12T09:10:34Z</time>
      </trkpt>
      <trkpt lat="45.57527" lon="4.61464">
        <ele>333</ele>
        <time>2012-05-12T09:10:35Z</time>
      </trkpt>
      <trkpt lat="45.57526" lon="4.61467">
        <ele>333</ele>
        <time>2012-05-12T09:10:36Z</time>
      </trkpt>
      <trkpt lat="45.57526" lon="4.61469">
        <ele>333</ele>
        <time>2012-05-12T09:10:37Z</time>
      </trkpt>
      <trkpt lat="45.57524" lon="4.6147">
        <ele>333</ele>
        <time>2012-05-12T09:10:38Z</time>
      </trkpt>
      <trkpt lat="45.57518" lon="4.6148">
        <ele>332</ele>
        <time>2012-05-12T09:10:45Z</time>
      </trkpt>
      <trkpt lat="45.5752" lon="4.61484">
        <ele>332</ele>
        <time>2012-05-12T09:10:51Z</time>
      </trkpt>
      <trkpt lat="45.57521" lon="4.61488">
        <ele>331</ele>
        <time>2012-05-12T09:10:58Z</time>
      </trkpt>
      <trkpt lat="45.57522" lon="4.61491">
        <ele>331</ele>
        <time>2012-05-12T09:11:05Z</time>
      </trkpt>
      <trkpt lat="45.57523" lon="4.61493">
        <ele>331</ele>
        <time>2012-05-12T09:11:12Z</time>
      </trkpt>
      <trkpt lat="45.57524" lon="4.61494">
        <ele>331</ele>
        <time>2012-05-12T09:11:23Z</time>
      </trkpt>
      <trkpt lat="45.57524" lon="4.61495">
        <ele>332</ele>
        <time>2012-05-12T09:11:31Z</time>
      </trkpt>
      <trkpt lat="45.57524" lon="4.61498">
        <ele>332</ele>
        <time>2012-05-12T09:11:37Z</time>
      </trkpt>
      <trkpt lat="45.57524" lon="4.615">
        <ele>332</ele>
        <time>2012-05-12T09:11:45Z</time>
      </trkpt>
      <trkpt lat="45.57523" lon="4.61501">
        <ele>332</ele>
        <time>2012-05-12T09:11:56Z</time>
      </trkpt>
      <trkpt lat="45.57525" lon="4.61502">
        <ele>332</ele>
        <time>2012-05-12T09:12:03Z</time>
      </trkpt>
      <trkpt lat="45.57527" lon="4.61506">
        <ele>332</ele>
        <time>2012-05-12T09:12:08Z</time>
      </trkpt>
      <trkpt lat="45.5753" lon="4.61512">
        <ele>333</ele>
        <time>2012-05-12T09:12:15Z</time>
      </trkpt>
      <trkpt lat="45.57532" lon="4.61515">
        <ele>334</ele>
        <time>2012-05-12T09:12:23Z</time>
      </trkpt>
      <trkpt lat="45.57537" lon="4.61516">
        <ele>335</ele>
        <time>2012-05-12T09:12:29Z</time>
      </trkpt>
      <trkpt lat="45.57539" lon="4.61516">
        <ele>335</ele>
        <time>2012-05-12T09:12:30Z</time>
      </trkpt>
      <trkpt lat="45.57544" lon="4.6152">
        <ele>336</ele>
        <time>2012-05-12T09:12:35Z</time>
      </trkpt>
      <trkpt lat="45.57551" lon="4.61523">
        <ele>337</ele>
        <time>2012-05-12T09:12:42Z</time>
      </trkpt>
      <trkpt lat="45.5756" lon="4.6152">
        <ele>338</ele>
        <time>2012-05-12T09:12:50Z</time>
      </trkpt>
      <trkpt lat="45.57569" lon="4.61517">
        <ele>340</ele>
        <time>2012-05-12T09:13:00Z</time>
      </trkpt>
      <trkpt lat="45.57575" lon="4.61516">
        <ele>341</ele>
        <time>2012-05-12T09:13:08Z</time>
      </trkpt>
      <trkpt lat="45.57581" lon="4.61515">
        <ele>342</ele>
        <time>2012-05-12T09:13:14Z</time>
      </trkpt>
      <trkpt lat="45.57586" lon="4.61516">
        <ele>342</ele>
        <time>2012-05-12T09:13:21Z</time>
      </trkpt>
      <trkpt lat="45.57589" lon="4.61518">
        <ele>343</ele>
        <time>2012-05-12T09:13:27Z</time>
      </trkpt>
      <trkpt lat="45.57596" lon="4.61521">
        <ele>343</ele>
        <time>2012-05-12T09:13:34Z</time>
      </trkpt>
      <trkpt lat="45.57601" lon="4.61526">
        <ele>345</ele>
        <time>2012-05-12T09:13:42Z</time>
      </trkpt>
      <trkpt lat="45.57602" lon="4.61526">
        <ele>345</ele>
        <time>2012-05-12T09:13:48Z</time>
      </trkpt>
      <trkpt lat="45.57607" lon="4.61528">
        <ele>346</ele>
        <time>2012-05-12T09:13:55Z</time>
      </trkpt>
      <trkpt lat="45.57614" lon="4.61532">
        <ele>347</ele>
        <time>2012-05-12T09:14:02Z</time>
      </trkpt>
      <trkpt lat="45.57616" lon="4.61533">
        <ele>347</ele>
        <time>2012-05-12T09:14:04Z</time>
      </trkpt>
      <trkpt lat="45.57619" lon="4.61535">
        <ele>347</ele>
        <time>2012-05-12T09:14:07Z</time>
      </trkpt>
      <trkpt lat="45.57621" lon="4.61536">
        <ele>347</ele>
        <time>2012-05-12T09:14:09Z</time>
      </trkpt>
      <trkpt lat="45.57628" lon="4.6154">
        <ele>349</ele>
        <time>2012-05-12T09:14:15Z</time>
      </trkpt>
      <trkpt lat="45.5763" lon="4.61541">
        <ele>349</ele>
        <time>2012-05-12T09:14:16Z</time>
      </trkpt>
      <trkpt lat="45.57632" lon="4.61543">
        <ele>349</ele>
        <time>2012-05-12T09:14:18Z</time>
      </trkpt>
      <trkpt lat="45.57633" lon="4.61545">
        <ele>349</ele>
        <time>2012-05-12T09:14:19Z</time>
      </trkpt>
      <trkpt lat="45.57635" lon="4.61546">
        <ele>349</ele>
        <time>2012-05-12T09:14:20Z</time>
      </trkpt>
      <trkpt lat="45.57637" lon="4.61546">
        <ele>349</ele>
        <time>2012-05-12T09:14:21Z</time>
      </trkpt>
      <trkpt lat="45.57639" lon="4.61546">
        <ele>350</ele>
        <time>2012-05-12T09:14:22Z</time>
      </trkpt>
      <trkpt lat="45.57654" lon="4.61546">
        <ele>350</ele>
        <time>2012-05-12T09:14:29Z</time>
      </trkpt>
      <trkpt lat="45.57658" lon="4.61548">
        <ele>351</ele>
        <time>2012-05-12T09:14:31Z</time>
      </trkpt>
      <trkpt lat="45.57662" lon="4.61553">
        <ele>352</ele>
        <time>2012-05-12T09:14:37Z</time>
      </trkpt>
      <trkpt lat="45.57661" lon="4.61553">
        <ele>353</ele>
        <time>2012-05-12T09:14:38Z</time>
      </trkpt>
      <trkpt lat="45.57661" lon="4.61554">
        <ele>353</ele>
        <time>2012-05-12T09:14:39Z</time>
      </trkpt>
      <trkpt lat="45.57659" lon="4.61555">
        <ele>353</ele>
        <time>2012-05-12T09:14:41Z</time>
      </trkpt>
      <trkpt lat="45.57658" lon="4.61556">
        <ele>353</ele>
        <time>2012-05-12T09:14:42Z</time>
      </trkpt>
      <trkpt lat="45.57654" lon="4.61558">
        <ele>354</ele>
        <time>2012-05-12T09:14:47Z</time>
      </trkpt>
      <trkpt lat="45.57652" lon="4.61559">
        <ele>354</ele>
        <time>2012-05-12T09:14:48Z</time>
      </trkpt>
      <trkpt lat="45.57643" lon="4.61562">
        <ele>355</ele>
        <time>2012-05-12T09:14:56Z</time>
      </trkpt>
      <trkpt lat="45.57634" lon="4.61563">
        <ele>356</ele>
        <time>2012-05-12T09:15:03Z</time>
      </trkpt>
      <trkpt lat="45.57623" lon="4.61567">
        <ele>357</ele>
        <time>2012-05-12T09:15:11Z</time>
      </trkpt>
      <trkpt lat="45.57614" lon="4.6157">
        <ele>358</ele>
        <time>2012-05-12T09:15:19Z</time>
      </trkpt>
      <trkpt lat="45.57607" lon="4.61573">
        <ele>360</ele>
        <time>2012-05-12T09:15:25Z</time>
      </trkpt>
      <trkpt lat="45.576" lon="4.6158">
        <ele>362</ele>
        <time>2012-05-12T09:15:32Z</time>
      </trkpt>
      <trkpt lat="45.57593" lon="4.61588">
        <ele>364</ele>
        <time>2012-05-12T09:15:40Z</time>
      </trkpt>
      <trkpt lat="45.57589" lon="4.61591">
        <ele>365</ele>
        <time>2012-05-12T09:15:47Z</time>
      </trkpt>
      <trkpt lat="45.57584" lon="4.61597">
        <ele>366</ele>
        <time>2012-05-12T09:15:54Z</time>
      </trkpt>
      <trkpt lat="45.5758" lon="4.61604">
        <ele>367</ele>
        <time>2012-05-12T09:16:02Z</time>
      </trkpt>
      <trkpt lat="45.57574" lon="4.61613">
        <ele>368</ele>
        <time>2012-05-12T09:16:08Z</time>
      </trkpt>
      <trkpt lat="45.57568" lon="4.61621">
        <ele>369</ele>
        <time>2012-05-12T09:16:14Z</time>
      </trkpt>
      <trkpt lat="45.57561" lon="4.61631">
        <ele>369</ele>
        <time>2012-05-12T09:16:21Z</time>
      </trkpt>
      <trkpt lat="45.57556" lon="4.61638">
        <ele>369</ele>
        <time>2012-05-12T09:16:26Z</time>
      </trkpt>
      <trkpt lat="45.57554" lon="4.61643">
        <ele>369</ele>
        <time>2012-05-12T09:16:29Z</time>
      </trkpt>
      <trkpt lat="45.57549" lon="4.61654">
        <ele>371</ele>
        <time>2012-05-12T09:16:35Z</time>
      </trkpt>
      <trkpt lat="45.57548" lon="4.61655">
        <ele>371</ele>
        <time>2012-05-12T09:16:36Z</time>
      </trkpt>
      <trkpt lat="45.57541" lon="4.61669">
        <ele>371</ele>
        <time>2012-05-12T09:16:43Z</time>
      </trkpt>
      <trkpt lat="45.57538" lon="4.61679">
        <ele>372</ele>
        <time>2012-05-12T09:16:47Z</time>
      </trkpt>
      <trkpt lat="45.57543" lon="4.61693">
        <ele>374</ele>
        <time>2012-05-12T09:16:54Z</time>
      </trkpt>
      <trkpt lat="45.57549" lon="4.61698">
        <ele>375</ele>
        <time>2012-05-12T09:16:58Z</time>
      </trkpt>
      <trkpt lat="45.57554" lon="4.61704">
        <ele>376</ele>
        <time>2012-05-12T09:17:02Z</time>
      </trkpt>
      <trkpt lat="45.57569" lon="4.61722">
        <ele>377</ele>
        <time>2012-05-12T09:17:13Z</time>
      </trkpt>
      <trkpt lat="45.57578" lon="4.61734">
        <ele>378</ele>
        <time>2012-05-12T09:17:21Z</time>
      </trkpt>
      <trkpt lat="45.57579" lon="4.61735">
        <ele>378</ele>
        <time>2012-05-12T09:17:22Z</time>
      </trkpt>
      <trkpt lat="45.57582" lon="4.61742">
        <ele>379</ele>
        <time>2012-05-12T09:17:26Z</time>
      </trkpt>
      <trkpt lat="45.57587" lon="4.61748">
        <ele>379</ele>
        <time>2012-05-12T09:17:30Z</time>
      </trkpt>
      <trkpt lat="45.5759" lon="4.61752">
        <ele>379</ele>
        <time>2012-05-12T09:17:33Z</time>
      </trkpt>
      <trkpt lat="45.57593" lon="4.61763">
        <ele>380</ele>
        <time>2012-05-12T09:17:39Z</time>
      </trkpt>
      <trkpt lat="45.57594" lon="4.61771">
        <ele>381</ele>
        <time>2012-05-12T09:17:45Z</time>
      </trkpt>
      <trkpt lat="45.57587" lon="4.61784">
        <ele>382</ele>
        <time>2012-05-12T09:17:52Z</time>
      </trkpt>
      <trkpt lat="45.57579" lon="4.61795">
        <ele>383</ele>
        <time>2012-05-12T09:18:00Z</time>
      </trkpt>
      <trkpt lat="45.57569" lon="4.61807">
        <ele>384</ele>
        <time>2012-05-12T09:18:08Z</time>
      </trkpt>
      <trkpt lat="45.57561" lon="4.61818">
        <ele>384</ele>
        <time>2012-05-12T09:18:15Z</time>
      </trkpt>
      <trkpt lat="45.57552" lon="4.61827">
        <ele>384</ele>
        <time>2012-05-12T09:18:21Z</time>
      </trkpt>
      <trkpt lat="45.57551" lon="4.61833">
        <ele>384</ele>
        <time>2012-05-12T09:18:25Z</time>
      </trkpt>
      <trkpt lat="45.57551" lon="4.61837">
        <ele>384</ele>
        <time>2012-05-12T09:18:27Z</time>
      </trkpt>
      <trkpt lat="45.57556" lon="4.61846">
        <ele>385</ele>
        <time>2012-05-12T09:18:33Z</time>
      </trkpt>
      <trkpt lat="45.57561" lon="4.61859">
        <ele>387</ele>
        <time>2012-05-12T09:18:41Z</time>
      </trkpt>
      <trkpt lat="45.57561" lon="4.61875">
        <ele>388</ele>
        <time>2012-05-12T09:18:49Z</time>
      </trkpt>
      <trkpt lat="45.57562" lon="4.61893">
        <ele>389</ele>
        <time>2012-05-12T09:18:59Z</time>
      </trkpt>
      <trkpt lat="45.57563" lon="4.6191">
        <ele>391</ele>
        <time>2012-05-12T09:19:08Z</time>
      </trkpt>
      <trkpt lat="45.57565" lon="4.61925">
        <ele>392</ele>
        <time>2012-05-12T09:19:16Z</time>
      </trkpt>
      <trkpt lat="45.57564" lon="4.61944">
        <ele>394</ele>
        <time>2012-05-12T09:19:26Z</time>
      </trkpt>
      <trkpt lat="45.57565" lon="4.61947">
        <ele>395</ele>
        <time>2012-05-12T09:19:28Z</time>
      </trkpt>
      <trkpt lat="45.57563" lon="4.61963">
        <ele>397</ele>
        <time>2012-05-12T09:19:37Z</time>
      </trkpt>
      <trkpt lat="45.57563" lon="4.61982">
        <ele>399</ele>
        <time>2012-05-12T09:19:48Z</time>
      </trkpt>
      <trkpt lat="45.57566" lon="4.62">
        <ele>402</ele>
        <time>2012-05-12T09:19:58Z</time>
      </trkpt>
      <trkpt lat="45.57571" lon="4.62015">
        <ele>404</ele>
        <time>2012-05-12T09:20:07Z</time>
      </trkpt>
      <trkpt lat="45.57576" lon="4.62033">
        <ele>406</ele>
        <time>2012-05-12T09:20:17Z</time>
      </trkpt>
      <trkpt lat="45.57582" lon="4.62048">
        <ele>408</ele>
        <time>2012-05-12T09:20:27Z</time>
      </trkpt>
      <trkpt lat="45.57589" lon="4.62056">
        <ele>409</ele>
        <time>2012-05-12T09:20:36Z</time>
      </trkpt>
      <trkpt lat="45.57597" lon="4.62065">
        <ele>410</ele>
        <time>2012-05-12T09:20:46Z</time>
      </trkpt>
      <trkpt lat="45.57603" lon="4.62072">
        <ele>411</ele>
        <time>2012-05-12T09:20:53Z</time>
      </trkpt>
      <trkpt lat="45.57606" lon="4.62075">
        <ele>411</ele>
        <time>2012-05-12T09:20:56Z</time>
      </trkpt>
      <trkpt lat="45.57608" lon="4.62084">
        <ele>412</ele>
        <time>2012-05-12T09:21:02Z</time>
      </trkpt>
      <trkpt lat="45.57607" lon="4.62099">
        <ele>413</ele>
        <time>2012-05-12T09:21:11Z</time>
      </trkpt>
      <trkpt lat="45.57605" lon="4.62112">
        <ele>413</ele>
        <time>2012-05-12T09:21:19Z</time>
      </trkpt>
      <trkpt lat="45.57602" lon="4.62126">
        <ele>413</ele>
        <time>2012-05-12T09:21:27Z</time>
      </trkpt>
      <trkpt lat="45.576" lon="4.62141">
        <ele>414</ele>
        <time>2012-05-12T09:21:35Z</time>
      </trkpt>
      <trkpt lat="45.57598" lon="4.62158">
        <ele>414</ele>
        <time>2012-05-12T09:21:44Z</time>
      </trkpt>
      <trkpt lat="45.57596" lon="4.62172">
        <ele>415</ele>
        <time>2012-05-12T09:21:51Z</time>
      </trkpt>
      <trkpt lat="45.57596" lon="4.62187">
        <ele>415</ele>
        <time>2012-05-12T09:21:58Z</time>
      </trkpt>
      <trkpt lat="45.57593" lon="4.62198">
        <ele>416</ele>
        <time>2012-05-12T09:22:06Z</time>
      </trkpt>
      <trkpt lat="45.57593" lon="4.62198">
        <ele>416</ele>
        <time>2012-05-12T09:22:14Z</time>
      </trkpt>
      <trkpt lat="45.57593" lon="4.62197">
        <ele>416</ele>
        <time>2012-05-12T09:22:22Z</time>
      </trkpt>
      <trkpt lat="45.57593" lon="4.62198">
        <ele>416</ele>
        <time>2012-05-12T09:22:40Z</time>
      </trkpt>
      <trkpt lat="45.57593" lon="4.62198">
        <ele>416</ele>
        <time>2012-05-12T09:23:00Z</time>
      </trkpt>
      <trkpt lat="45.57593" lon="4.62197">
        <ele>416</ele>
        <time>2012-05-12T09:23:18Z</time>
      </trkpt>
      <trkpt lat="45.57593" lon="4.62197">
        <ele>416</ele>
        <time>2012-05-12T09:23:39Z</time>
      </trkpt>
      <trkpt lat="45.57593" lon="4.62196">
        <ele>416</ele>
        <time>2012-05-12T09:24:00Z</time>
      </trkpt>
      <trkpt lat="45.57594" lon="4.62198">
        <ele>416</ele>
        <time>2012-05-12T09:24:13Z</time>
      </trkpt>
      <trkpt lat="45.57592" lon="4.62207">
        <ele>416</ele>
        <time>2012-05-12T09:24:19Z</time>
      </trkpt>
      <trkpt lat="45.57583" lon="4.62235">
        <ele>416</ele>
        <time>2012-05-12T09:24:27Z</time>
      </trkpt>
      <trkpt lat="45.57574" lon="4.62271">
        <ele>417</ele>
        <time>2012-05-12T09:24:36Z</time>
      </trkpt>
      <trkpt lat="45.57563" lon="4.6231">
        <ele>418</ele>
        <time>2012-05-12T09:24:46Z</time>
      </trkpt>
      <trkpt lat="45.57553" lon="4.62347">
        <ele>419</ele>
        <time>2012-05-12T09:24:55Z</time>
      </trkpt>
      <trkpt lat="45.57542" lon="4.6239">
        <ele>419</ele>
        <time>2012-05-12T09:25:04Z</time>
      </trkpt>
      <trkpt lat="45.57537" lon="4.62431">
        <ele>419</ele>
        <time>2012-05-12T09:25:12Z</time>
      </trkpt>
      <trkpt lat="45.57539" lon="4.62463">
        <ele>419</ele>
        <time>2012-05-12T09:25:18Z</time>
      </trkpt>
      <trkpt lat="45.5754" lon="4.62468">
        <ele>419</ele>
        <time>2012-05-12T09:25:19Z</time>
      </trkpt>
      <trkpt lat="45.57554" lon="4.62522">
        <ele>418</ele>
        <time>2012-05-12T09:25:29Z</time>
      </trkpt>
      <trkpt lat="45.57556" lon="4.62528">
        <ele>418</ele>
        <time>2012-05-12T09:25:30Z</time>
      </trkpt>
      <trkpt lat="45.57576" lon="4.62582">
        <ele>418</ele>
        <time>2012-05-12T09:25:40Z</time>
      </trkpt>
      <trkpt lat="45.57595" lon="4.62625">
        <ele>419</ele>
        <time>2012-05-12T09:25:49Z</time>
      </trkpt>
      <trkpt lat="45.57609" lon="4.6264">
        <ele>421</ele>
        <time>2012-05-12T09:25:56Z</time>
      </trkpt>
      <trkpt lat="45.5761" lon="4.62642">
        <ele>422</ele>
        <time>2012-05-12T09:25:57Z</time>
      </trkpt>
      <trkpt lat="45.57624" lon="4.6266">
        <ele>424</ele>
        <time>2012-05-12T09:26:05Z</time>
      </trkpt>
      <trkpt lat="45.57636" lon="4.62679">
        <ele>426</ele>
        <time>2012-05-12T09:26:14Z</time>
      </trkpt>
      <trkpt lat="45.57648" lon="4.62699">
        <ele>427</ele>
        <time>2012-05-12T09:26:22Z</time>
      </trkpt>
      <trkpt lat="45.57662" lon="4.62715">
        <ele>428</ele>
        <time>2012-05-12T09:26:30Z</time>
      </trkpt>
      <trkpt lat="45.57675" lon="4.62734">
        <ele>430</ele>
        <time>2012-05-12T09:26:38Z</time>
      </trkpt>
      <trkpt lat="45.57693" lon="4.62755">
        <ele>432</ele>
        <time>2012-05-12T09:26:48Z</time>
      </trkpt>
      <trkpt lat="45.57711" lon="4.62771">
        <ele>434</ele>
        <time>2012-05-12T09:26:57Z</time>
      </trkpt>
      <trkpt lat="45.57723" lon="4.62784">
        <ele>435</ele>
        <time>2012-05-12T09:27:04Z</time>
      </trkpt>
      <trkpt lat="45.57739" lon="4.62805">
        <ele>436</ele>
        <time>2012-05-12T09:27:12Z</time>
      </trkpt>
      <trkpt lat="45.57753" lon="4.62826">
        <ele>438</ele>
        <time>2012-05-12T09:27:21Z</time>
      </trkpt>
      <trkpt lat="45.57762" lon="4.62838">
        <ele>439</ele>
        <time>2012-05-12T09:27:28Z</time>
      </trkpt>
      <trkpt lat="45.57762" lon="4.6284">
        <ele>439</ele>
        <time>2012-05-12T09:27:29Z</time>
      </trkpt>
      <trkpt lat="45.57763" lon="4.62842">
        <ele>439</ele>
        <time>2012-05-12T09:27:30Z</time>
      </trkpt>
      <trkpt lat="45.57764" lon="4.62844">
        <ele>440</ele>
        <time>2012-05-12T09:27:31Z</time>
      </trkpt>
      <trkpt lat="45.57765" lon="4.62846">
        <ele>440</ele>
        <time>2012-05-12T09:27:32Z</time>
      </trkpt>
      <trkpt lat="45.57766" lon="4.62847">
        <ele>441</ele>
        <time>2012-05-12T09:27:33Z</time>
      </trkpt>
      <trkpt lat="45.57767" lon="4.62849">
        <ele>441</ele>
        <time>2012-05-12T09:27:34Z</time>
      </trkpt>
      <trkpt lat="45.57768" lon="4.62851">
        <ele>441</ele>
        <time>2012-05-12T09:27:35Z</time>
      </trkpt>
      <trkpt lat="45.57769" lon="4.62853">
        <ele>441</ele>
        <time>2012-05-12T09:27:36Z</time>
      </trkpt>
      <trkpt lat="45.57778" lon="4.62874">
        <ele>443</ele>
        <time>2012-05-12T09:27:45Z</time>
      </trkpt>
      <trkpt lat="45.57787" lon="4.62888">
        <ele>444</ele>
        <time>2012-05-12T09:27:52Z</time>
      </trkpt>
      <trkpt lat="45.57803" lon="4.62908">
        <ele>445</ele>
        <time>2012-05-12T09:28:02Z</time>
      </trkpt>
      <trkpt lat="45.57821" lon="4.62932">
        <ele>448</ele>
        <time>2012-05-12T09:28:13Z</time>
      </trkpt>
      <trkpt lat="45.57833" lon="4.62944">
        <ele>449</ele>
        <time>2012-05-12T09:28:20Z</time>
      </trkpt>
      <trkpt lat="45.57837" lon="4.62946">
        <ele>449</ele>
        <time>2012-05-12T09:28:22Z</time>
      </trkpt>
      <trkpt lat="45.57839" lon="4.62946">
        <ele>449</ele>
        <time>2012-05-12T09:28:23Z</time>
      </trkpt>
      <trkpt lat="45.57841" lon="4.62947">
        <ele>449</ele>
        <time>2012-05-12T09:28:24Z</time>
      </trkpt>
      <trkpt lat="45.57856" lon="4.62962">
        <ele>450</ele>
        <time>2012-05-12T09:28:32Z</time>
      </trkpt>
      <trkpt lat="45.57872" lon="4.62975">
        <ele>449</ele>
        <time>2012-05-12T09:28:40Z</time>
      </trkpt>
      <trkpt lat="45.57885" lon="4.62984">
        <ele>451</ele>
        <time>2012-05-12T09:28:46Z</time>
      </trkpt>
      <trkpt lat="45.57898" lon="4.62994">
        <ele>451</ele>
        <time>2012-05-12T09:28:52Z</time>
      </trkpt>
      <trkpt lat="45.57912" lon="4.63003">
        <ele>452</ele>
        <time>2012-05-12T09:28:58Z</time>
      </trkpt>
      <trkpt lat="45.57927" lon="4.63009">
        <ele>453</ele>
        <time>2012-05-12T09:29:04Z</time>
      </trkpt>
      <trkpt lat="45.57944" lon="4.63015">
        <ele>454</ele>
        <time>2012-05-12T09:29:10Z</time>
      </trkpt>
      <trkpt lat="45.57961" lon="4.6302">
        <ele>454</ele>
        <time>2012-05-12T09:29:16Z</time>
      </trkpt>
      <trkpt lat="45.57988" lon="4.63027">
        <ele>455</ele>
        <time>2012-05-12T09:29:24Z</time>
      </trkpt>
      <trkpt lat="45.58012" lon="4.63038">
        <ele>455</ele>
        <time>2012-05-12T09:29:31Z</time>
      </trkpt>
      <trkpt lat="45.58025" lon="4.63046">
        <ele>454</ele>
        <time>2012-05-12T09:29:34Z</time>
      </trkpt>
      <trkpt lat="45.58029" lon="4.63051">
        <ele>454</ele>
        <time>2012-05-12T09:29:35Z</time>
      </trkpt>
      <trkpt lat="45.58033" lon="4.63053">
        <ele>455</ele>
        <time>2012-05-12T09:29:36Z</time>
      </trkpt>
      <trkpt lat="45.58037" lon="4.63055">
        <ele>454</ele>
        <time>2012-05-12T09:29:37Z</time>
      </trkpt>
      <trkpt lat="45.5804" lon="4.63056">
        <ele>454</ele>
        <time>2012-05-12T09:29:38Z</time>
      </trkpt>
      <trkpt lat="45.58043" lon="4.63057">
        <ele>454</ele>
        <time>2012-05-12T09:29:39Z</time>
      </trkpt>
      <trkpt lat="45.58046" lon="4.63058">
        <ele>455</ele>
        <time>2012-05-12T09:29:40Z</time>
      </trkpt>
      <trkpt lat="45.58049" lon="4.6306">
        <ele>455</ele>
        <time>2012-05-12T09:29:41Z</time>
      </trkpt>
      <trkpt lat="45.58072" lon="4.63071">
        <ele>456</ele>
        <time>2012-05-12T09:29:49Z</time>
      </trkpt>
      <trkpt lat="45.58095" lon="4.63083">
        <ele>458</ele>
        <time>2012-05-12T09:29:58Z</time>
      </trkpt>
      <trkpt lat="45.5812" lon="4.63097">
        <ele>460</ele>
        <time>2012-05-12T09:30:08Z</time>
      </trkpt>
      <trkpt lat="45.58143" lon="4.63108">
        <ele>462</ele>
        <time>2012-05-12T09:30:17Z</time>
      </trkpt>
      <trkpt lat="45.58159" lon="4.63117">
        <ele>463</ele>
        <time>2012-05-12T09:30:23Z</time>
      </trkpt>
      <trkpt lat="45.58178" lon="4.63125">
        <ele>464</ele>
        <time>2012-05-12T09:30:30Z</time>
      </trkpt>
      <trkpt lat="45.58201" lon="4.63125">
        <ele>466</ele>
        <time>2012-05-12T09:30:38Z</time>
      </trkpt>
      <trkpt lat="45.58211" lon="4.63106">
        <ele>467</ele>
        <time>2012-05-12T09:30:44Z</time>
      </trkpt>
      <trkpt lat="45.58219" lon="4.63083">
        <ele>469</ele>
        <time>2012-05-12T09:30:51Z</time>
      </trkpt>
      <trkpt lat="45.58219" lon="4.63076">
        <ele>469</ele>
        <time>2012-05-12T09:30:53Z</time>
      </trkpt>
      <trkpt lat="45.58218" lon="4.63073">
        <ele>469</ele>
        <time>2012-05-12T09:30:54Z</time>
      </trkpt>
      <trkpt lat="45.58216" lon="4.6307">
        <ele>470</ele>
        <time>2012-05-12T09:30:55Z</time>
      </trkpt>
      <trkpt lat="45.58213" lon="4.63068">
        <ele>470</ele>
        <time>2012-05-12T09:30:56Z</time>
      </trkpt>
      <trkpt lat="45.58212" lon="4.63065">
        <ele>470</ele>
        <time>2012-05-12T09:30:57Z</time>
      </trkpt>
      <trkpt lat="45.5821" lon="4.63062">
        <ele>470</ele>
        <time>2012-05-12T09:30:58Z</time>
      </trkpt>
      <trkpt lat="45.58209" lon="4.63059">
        <ele>470</ele>
        <time>2012-05-12T09:30:59Z</time>
      </trkpt>
      <trkpt lat="45.58209" lon="4.63055">
        <ele>470</ele>
        <time>2012-05-12T09:31:00Z</time>
      </trkpt>
      <trkpt lat="45.58207" lon="4.63052">
        <ele>471</ele>
        <time>2012-05-12T09:31:01Z</time>
      </trkpt>
      <trkpt lat="45.58207" lon="4.63049">
        <ele>471</ele>
        <time>2012-05-12T09:31:02Z</time>
      </trkpt>
      <trkpt lat="45.58206" lon="4.63046">
        <ele>471</ele>
        <time>2012-05-12T09:31:03Z</time>
      </trkpt>
      <trkpt lat="45.58205" lon="4.63043">
        <ele>471</ele>
        <time>2012-05-12T09:31:04Z</time>
      </trkpt>
      <trkpt lat="45.58204" lon="4.63039">
        <ele>471</ele>
        <time>2012-05-12T09:31:05Z</time>
      </trkpt>
      <trkpt lat="45.58198" lon="4.63019">
        <ele>472</ele>
        <time>2012-05-12T09:31:12Z</time>
      </trkpt>
      <trkpt lat="45.58197" lon="4.63011">
        <ele>473</ele>
        <time>2012-05-12T09:31:15Z</time>
      </trkpt>
      <trkpt lat="45.58197" lon="4.63009">
        <ele>473</ele>
        <time>2012-05-12T09:31:16Z</time>
      </trkpt>
      <trkpt lat="45.58199" lon="4.63008">
        <ele>473</ele>
        <time>2012-05-12T09:31:17Z</time>
      </trkpt>
      <trkpt lat="45.582" lon="4.63007">
        <ele>473</ele>
        <time>2012-05-12T09:31:22Z</time>
      </trkpt>
      <trkpt lat="45.58201" lon="4.63006">
        <ele>473</ele>
        <time>2012-05-12T09:31:31Z</time>
      </trkpt>
      <trkpt lat="45.58201" lon="4.63005">
        <ele>469</ele>
        <time>2012-05-12T09:31:44Z</time>
      </trkpt>
      <trkpt lat="45.58201" lon="4.63005">
        <ele>475</ele>
        <time>2012-05-12T09:31:45Z</time>
      </trkpt>
      <trkpt lat="45.58201" lon="4.63005">
        <ele>470</ele>
        <time>2012-05-12T09:31:46Z</time>
      </trkpt>
      <trkpt lat="45.58201" lon="4.63005">
        <ele>470</ele>
        <time>2012-05-12T09:31:47Z</time>
      </trkpt>
    </trkseg>
  </trk>
</gpx>